<?xml version="1.0" encoding="UTF-8" standalone="no" ?>
<gpx xmlns="http://www.topografix.com/GPX/1/1" xmlns:xsi="http://www.w3.org/2001/XMLSchema-instance" xsi:schemaLocation="http://www.topografix.com/GPX/1/1 http://www.topografix.com/GPX/1/1/gpx.xsd" version="1.1" creator="VisuGPX - https://www.visugpx.com">
  <metadata>
    <name>Saint Laurent sur Sèvre 27 km</name>
  </metadata>
  <trk>
    <name><![CDATA[2021-05-13 16:04:24]]></name>
    <extensions>
      <line xmlns="http://www.topografix.com/GPX/gpx_style/0/2">
        <color>0000FF</color>
        <width>4</width>
      </line>
    </extensions>
    <trkseg>
      <trkpt lat="46.96391" lon="-0.88744">
        <ele>143.85</ele>
        <time>2021-05-13T06:47:44Z</time>
      </trkpt>
      <trkpt lat="46.96395" lon="-0.88722">
        <ele>144.82</ele>
        <time>2021-05-13T06:48:03Z</time>
      </trkpt>
      <trkpt lat="46.96398" lon="-0.88696">
        <ele>144.82</ele>
        <time>2021-05-13T06:48:20Z</time>
      </trkpt>
      <trkpt lat="46.96398" lon="-0.88673">
        <ele>144.82</ele>
        <time>2021-05-13T06:48:38Z</time>
      </trkpt>
      <trkpt lat="46.96395" lon="-0.88665">
        <ele>143.85</ele>
        <time>2021-05-13T06:48:44Z</time>
      </trkpt>
      <trkpt lat="46.96383" lon="-0.88642">
        <ele>143.37</ele>
        <time>2021-05-13T06:48:59Z</time>
      </trkpt>
      <trkpt lat="46.96378" lon="-0.88623">
        <ele>142.89</ele>
        <time>2021-05-13T06:49:11Z</time>
      </trkpt>
      <trkpt lat="46.96365" lon="-0.88599">
        <ele>142.41</ele>
        <time>2021-05-13T06:49:27Z</time>
      </trkpt>
      <trkpt lat="46.96356" lon="-0.88583">
        <ele>142.41</ele>
        <time>2021-05-13T06:49:44Z</time>
      </trkpt>
      <trkpt lat="46.96347" lon="-0.8859">
        <ele>142.41</ele>
        <time>2021-05-13T06:49:58Z</time>
      </trkpt>
      <trkpt lat="46.96328" lon="-0.88602">
        <ele>141.45</ele>
        <time>2021-05-13T06:50:17Z</time>
      </trkpt>
      <trkpt lat="46.96315" lon="-0.88599">
        <ele>141.45</ele>
        <time>2021-05-13T06:50:28Z</time>
      </trkpt>
      <trkpt lat="46.96291" lon="-0.88592">
        <ele>141.45</ele>
        <time>2021-05-13T06:50:51Z</time>
      </trkpt>
      <trkpt lat="46.96279" lon="-0.8859">
        <ele>140.97</ele>
        <time>2021-05-13T06:51:03Z</time>
      </trkpt>
      <trkpt lat="46.9627" lon="-0.88615">
        <ele>139.53</ele>
        <time>2021-05-13T06:51:19Z</time>
      </trkpt>
      <trkpt lat="46.96267" lon="-0.88633">
        <ele>136.64</ele>
        <time>2021-05-13T06:51:36Z</time>
      </trkpt>
      <trkpt lat="46.96259" lon="-0.88648">
        <ele>136.16</ele>
        <time>2021-05-13T06:51:46Z</time>
      </trkpt>
      <trkpt lat="46.96256" lon="-0.88653">
        <ele>136.16</ele>
        <time>2021-05-13T06:51:50Z</time>
      </trkpt>
      <trkpt lat="46.96246" lon="-0.88645">
        <ele>135.2</ele>
        <time>2021-05-13T06:52:04Z</time>
      </trkpt>
      <trkpt lat="46.96239" lon="-0.88633">
        <ele>134.24</ele>
        <time>2021-05-13T06:52:17Z</time>
      </trkpt>
      <trkpt lat="46.96231" lon="-0.88616">
        <ele>133.76</ele>
        <time>2021-05-13T06:52:28Z</time>
      </trkpt>
      <trkpt lat="46.96229" lon="-0.88622">
        <ele>133.28</ele>
        <time>2021-05-13T06:52:32Z</time>
      </trkpt>
      <trkpt lat="46.96231" lon="-0.88634">
        <ele>134.72</ele>
        <time>2021-05-13T06:52:41Z</time>
      </trkpt>
      <trkpt lat="46.96231" lon="-0.88643">
        <ele>134.72</ele>
        <time>2021-05-13T06:52:50Z</time>
      </trkpt>
      <trkpt lat="46.96234" lon="-0.88652">
        <ele>135.2</ele>
        <time>2021-05-13T06:53:02Z</time>
      </trkpt>
      <trkpt lat="46.96235" lon="-0.88653">
        <ele>135.2</ele>
        <time>2021-05-13T06:53:03Z</time>
      </trkpt>
      <trkpt lat="46.96234" lon="-0.88669">
        <ele>133.76</ele>
        <time>2021-05-13T06:53:18Z</time>
      </trkpt>
      <trkpt lat="46.9623" lon="-0.88678">
        <ele>130.88</ele>
        <time>2021-05-13T06:53:29Z</time>
      </trkpt>
      <trkpt lat="46.96233" lon="-0.8869">
        <ele>127.51</ele>
        <time>2021-05-13T06:53:45Z</time>
      </trkpt>
      <trkpt lat="46.96235" lon="-0.88694">
        <ele>127.03</ele>
        <time>2021-05-13T06:53:59Z</time>
      </trkpt>
      <trkpt lat="46.96247" lon="-0.88705">
        <ele>125.59</ele>
        <time>2021-05-13T06:54:21Z</time>
      </trkpt>
      <trkpt lat="46.96241" lon="-0.88707">
        <ele>123.67</ele>
        <time>2021-05-13T06:54:40Z</time>
      </trkpt>
      <trkpt lat="46.96233" lon="-0.88712">
        <ele>121.26</ele>
        <time>2021-05-13T06:54:59Z</time>
      </trkpt>
      <trkpt lat="46.96231" lon="-0.8871">
        <ele>120.78</ele>
        <time>2021-05-13T06:55:01Z</time>
      </trkpt>
      <trkpt lat="46.96219" lon="-0.88702">
        <ele>120.78</ele>
        <time>2021-05-13T06:55:17Z</time>
      </trkpt>
      <trkpt lat="46.96211" lon="-0.88702">
        <ele>120.78</ele>
        <time>2021-05-13T06:55:22Z</time>
      </trkpt>
      <trkpt lat="46.96209" lon="-0.887">
        <ele>120.78</ele>
        <time>2021-05-13T06:55:24Z</time>
      </trkpt>
      <trkpt lat="46.96194" lon="-0.88681">
        <ele>120.3</ele>
        <time>2021-05-13T06:55:41Z</time>
      </trkpt>
      <trkpt lat="46.96187" lon="-0.8866">
        <ele>120.3</ele>
        <time>2021-05-13T06:55:53Z</time>
      </trkpt>
      <trkpt lat="46.96175" lon="-0.88634">
        <ele>118.86</ele>
        <time>2021-05-13T06:56:11Z</time>
      </trkpt>
      <trkpt lat="46.96161" lon="-0.88604">
        <ele>117.42</ele>
        <time>2021-05-13T06:56:27Z</time>
      </trkpt>
      <trkpt lat="46.96152" lon="-0.88587">
        <ele>115.5</ele>
        <time>2021-05-13T06:56:43Z</time>
      </trkpt>
      <trkpt lat="46.96133" lon="-0.88558">
        <ele>114.53</ele>
        <time>2021-05-13T06:57:01Z</time>
      </trkpt>
      <trkpt lat="46.96126" lon="-0.88546">
        <ele>111.65</ele>
        <time>2021-05-13T06:57:10Z</time>
      </trkpt>
      <trkpt lat="46.96123" lon="-0.88547">
        <ele>112.61</ele>
        <time>2021-05-13T06:57:13Z</time>
      </trkpt>
      <trkpt lat="46.96121" lon="-0.88547">
        <ele>111.17</ele>
        <time>2021-05-13T06:57:15Z</time>
      </trkpt>
      <trkpt lat="46.96114" lon="-0.8855">
        <ele>111.17</ele>
        <time>2021-05-13T06:57:22Z</time>
      </trkpt>
      <trkpt lat="46.96092" lon="-0.88572">
        <ele>110.21</ele>
        <time>2021-05-13T06:57:42Z</time>
      </trkpt>
      <trkpt lat="46.96085" lon="-0.88581">
        <ele>108.77</ele>
        <time>2021-05-13T06:57:49Z</time>
      </trkpt>
      <trkpt lat="46.96079" lon="-0.88573">
        <ele>108.77</ele>
        <time>2021-05-13T06:58:01Z</time>
      </trkpt>
      <trkpt lat="46.96072" lon="-0.88552">
        <ele>108.77</ele>
        <time>2021-05-13T06:58:15Z</time>
      </trkpt>
      <trkpt lat="46.96064" lon="-0.88525">
        <ele>108.77</ele>
        <time>2021-05-13T06:58:33Z</time>
      </trkpt>
      <trkpt lat="46.96058" lon="-0.88501">
        <ele>108.77</ele>
        <time>2021-05-13T06:58:50Z</time>
      </trkpt>
      <trkpt lat="46.96053" lon="-0.88476">
        <ele>108.29</ele>
        <time>2021-05-13T06:59:07Z</time>
      </trkpt>
      <trkpt lat="46.96046" lon="-0.88449">
        <ele>108.29</ele>
        <time>2021-05-13T06:59:25Z</time>
      </trkpt>
      <trkpt lat="46.96037" lon="-0.88424">
        <ele>108.29</ele>
        <time>2021-05-13T06:59:40Z</time>
      </trkpt>
      <trkpt lat="46.96024" lon="-0.884">
        <ele>108.29</ele>
        <time>2021-05-13T06:59:56Z</time>
      </trkpt>
      <trkpt lat="46.9601" lon="-0.88376">
        <ele>107.81</ele>
        <time>2021-05-13T07:00:15Z</time>
      </trkpt>
      <trkpt lat="46.96001" lon="-0.88352">
        <ele>107.81</ele>
        <time>2021-05-13T07:00:31Z</time>
      </trkpt>
      <trkpt lat="46.95986" lon="-0.88324">
        <ele>108.77</ele>
        <time>2021-05-13T07:00:48Z</time>
      </trkpt>
      <trkpt lat="46.95969" lon="-0.88301">
        <ele>108.77</ele>
        <time>2021-05-13T07:01:02Z</time>
      </trkpt>
      <trkpt lat="46.95959" lon="-0.88286">
        <ele>108.77</ele>
        <time>2021-05-13T07:01:14Z</time>
      </trkpt>
      <trkpt lat="46.9595" lon="-0.8827">
        <ele>108.29</ele>
        <time>2021-05-13T07:01:30Z</time>
      </trkpt>
      <trkpt lat="46.95944" lon="-0.88249">
        <ele>108.29</ele>
        <time>2021-05-13T07:01:46Z</time>
      </trkpt>
      <trkpt lat="46.95943" lon="-0.88247">
        <ele>108.29</ele>
        <time>2021-05-13T07:01:47Z</time>
      </trkpt>
      <trkpt lat="46.95928" lon="-0.8821">
        <ele>108.29</ele>
        <time>2021-05-13T07:02:08Z</time>
      </trkpt>
      <trkpt lat="46.95912" lon="-0.88178">
        <ele>107.81</ele>
        <time>2021-05-13T07:02:27Z</time>
      </trkpt>
      <trkpt lat="46.95898" lon="-0.88155">
        <ele>107.81</ele>
        <time>2021-05-13T07:02:47Z</time>
      </trkpt>
      <trkpt lat="46.95882" lon="-0.88133">
        <ele>107.81</ele>
        <time>2021-05-13T07:03:03Z</time>
      </trkpt>
      <trkpt lat="46.95858" lon="-0.88117">
        <ele>107.81</ele>
        <time>2021-05-13T07:03:24Z</time>
      </trkpt>
      <trkpt lat="46.9583" lon="-0.88105">
        <ele>107.81</ele>
        <time>2021-05-13T07:03:45Z</time>
      </trkpt>
      <trkpt lat="46.95814" lon="-0.88094">
        <ele>107.81</ele>
        <time>2021-05-13T07:04:01Z</time>
      </trkpt>
      <trkpt lat="46.95804" lon="-0.88084">
        <ele>108.77</ele>
        <time>2021-05-13T07:04:11Z</time>
      </trkpt>
      <trkpt lat="46.95795" lon="-0.8807">
        <ele>109.73</ele>
        <time>2021-05-13T07:04:23Z</time>
      </trkpt>
      <trkpt lat="46.95794" lon="-0.8807">
        <ele>109.73</ele>
        <time>2021-05-13T07:04:24Z</time>
      </trkpt>
      <trkpt lat="46.95789" lon="-0.88069">
        <ele>109.73</ele>
        <time>2021-05-13T07:04:29Z</time>
      </trkpt>
      <trkpt lat="46.95777" lon="-0.88086">
        <ele>110.21</ele>
        <time>2021-05-13T07:04:49Z</time>
      </trkpt>
      <trkpt lat="46.95775" lon="-0.8809">
        <ele>110.21</ele>
        <time>2021-05-13T07:05:02Z</time>
      </trkpt>
      <trkpt lat="46.95765" lon="-0.88098">
        <ele>110.21</ele>
        <time>2021-05-13T07:05:17Z</time>
      </trkpt>
      <trkpt lat="46.95762" lon="-0.88102">
        <ele>110.21</ele>
        <time>2021-05-13T07:05:20Z</time>
      </trkpt>
      <trkpt lat="46.95756" lon="-0.88108">
        <ele>110.69</ele>
        <time>2021-05-13T07:05:26Z</time>
      </trkpt>
      <trkpt lat="46.95755" lon="-0.88109">
        <ele>110.69</ele>
        <time>2021-05-13T07:05:28Z</time>
      </trkpt>
      <trkpt lat="46.95753" lon="-0.88105">
        <ele>110.69</ele>
        <time>2021-05-13T07:05:32Z</time>
      </trkpt>
      <trkpt lat="46.95752" lon="-0.88103">
        <ele>110.69</ele>
        <time>2021-05-13T07:05:33Z</time>
      </trkpt>
      <trkpt lat="46.95744" lon="-0.88084">
        <ele>112.13</ele>
        <time>2021-05-13T07:05:49Z</time>
      </trkpt>
      <trkpt lat="46.95739" lon="-0.88075">
        <ele>112.13</ele>
        <time>2021-05-13T07:05:58Z</time>
      </trkpt>
      <trkpt lat="46.95738" lon="-0.88074">
        <ele>112.13</ele>
        <time>2021-05-13T07:05:59Z</time>
      </trkpt>
      <trkpt lat="46.95737" lon="-0.88073">
        <ele>112.13</ele>
        <time>2021-05-13T07:06:00Z</time>
      </trkpt>
      <trkpt lat="46.95736" lon="-0.88071">
        <ele>112.61</ele>
        <time>2021-05-13T07:06:01Z</time>
      </trkpt>
      <trkpt lat="46.95735" lon="-0.8807">
        <ele>112.61</ele>
        <time>2021-05-13T07:06:02Z</time>
      </trkpt>
      <trkpt lat="46.95734" lon="-0.88069">
        <ele>112.61</ele>
        <time>2021-05-13T07:06:03Z</time>
      </trkpt>
      <trkpt lat="46.95733" lon="-0.88068">
        <ele>112.61</ele>
        <time>2021-05-13T07:06:04Z</time>
      </trkpt>
      <trkpt lat="46.95731" lon="-0.8807">
        <ele>113.09</ele>
        <time>2021-05-13T07:06:15Z</time>
      </trkpt>
      <trkpt lat="46.95732" lon="-0.88072">
        <ele>113.09</ele>
        <time>2021-05-13T07:06:16Z</time>
      </trkpt>
      <trkpt lat="46.95745" lon="-0.88092">
        <ele>111.65</ele>
        <time>2021-05-13T07:06:32Z</time>
      </trkpt>
      <trkpt lat="46.95757" lon="-0.88121">
        <ele>110.69</ele>
        <time>2021-05-13T07:06:49Z</time>
      </trkpt>
      <trkpt lat="46.95762" lon="-0.88139">
        <ele>109.73</ele>
        <time>2021-05-13T07:07:03Z</time>
      </trkpt>
      <trkpt lat="46.95762" lon="-0.88149">
        <ele>109.25</ele>
        <time>2021-05-13T07:07:08Z</time>
      </trkpt>
      <trkpt lat="46.95761" lon="-0.88151">
        <ele>109.25</ele>
        <time>2021-05-13T07:07:09Z</time>
      </trkpt>
      <trkpt lat="46.95748" lon="-0.88178">
        <ele>109.25</ele>
        <time>2021-05-13T07:07:27Z</time>
      </trkpt>
      <trkpt lat="46.95731" lon="-0.88199">
        <ele>109.25</ele>
        <time>2021-05-13T07:07:44Z</time>
      </trkpt>
      <trkpt lat="46.95706" lon="-0.8822">
        <ele>109.25</ele>
        <time>2021-05-13T07:08:07Z</time>
      </trkpt>
      <trkpt lat="46.95687" lon="-0.88241">
        <ele>109.73</ele>
        <time>2021-05-13T07:08:27Z</time>
      </trkpt>
      <trkpt lat="46.95673" lon="-0.88265">
        <ele>109.73</ele>
        <time>2021-05-13T07:08:44Z</time>
      </trkpt>
      <trkpt lat="46.95658" lon="-0.88283">
        <ele>109.25</ele>
        <time>2021-05-13T07:08:58Z</time>
      </trkpt>
      <trkpt lat="46.95654" lon="-0.88285">
        <ele>109.25</ele>
        <time>2021-05-13T07:09:02Z</time>
      </trkpt>
      <trkpt lat="46.95653" lon="-0.88286">
        <ele>109.25</ele>
        <time>2021-05-13T07:09:03Z</time>
      </trkpt>
      <trkpt lat="46.95652" lon="-0.88287">
        <ele>109.25</ele>
        <time>2021-05-13T07:09:04Z</time>
      </trkpt>
      <trkpt lat="46.95651" lon="-0.88288">
        <ele>109.25</ele>
        <time>2021-05-13T07:09:05Z</time>
      </trkpt>
      <trkpt lat="46.9565" lon="-0.88289">
        <ele>109.25</ele>
        <time>2021-05-13T07:09:06Z</time>
      </trkpt>
      <trkpt lat="46.95648" lon="-0.8829">
        <ele>109.25</ele>
        <time>2021-05-13T07:09:07Z</time>
      </trkpt>
      <trkpt lat="46.95632" lon="-0.88305">
        <ele>109.25</ele>
        <time>2021-05-13T07:09:23Z</time>
      </trkpt>
      <trkpt lat="46.95609" lon="-0.88317">
        <ele>109.25</ele>
        <time>2021-05-13T07:09:46Z</time>
      </trkpt>
      <trkpt lat="46.95599" lon="-0.88321">
        <ele>109.25</ele>
        <time>2021-05-13T07:09:54Z</time>
      </trkpt>
      <trkpt lat="46.95597" lon="-0.88321">
        <ele>109.25</ele>
        <time>2021-05-13T07:09:55Z</time>
      </trkpt>
      <trkpt lat="46.95573" lon="-0.88321">
        <ele>108.29</ele>
        <time>2021-05-13T07:10:12Z</time>
      </trkpt>
      <trkpt lat="46.95549" lon="-0.88313">
        <ele>108.29</ele>
        <time>2021-05-13T07:10:31Z</time>
      </trkpt>
      <trkpt lat="46.95522" lon="-0.88315">
        <ele>107.81</ele>
        <time>2021-05-13T07:10:49Z</time>
      </trkpt>
      <trkpt lat="46.955" lon="-0.88322">
        <ele>107.81</ele>
        <time>2021-05-13T07:11:06Z</time>
      </trkpt>
      <trkpt lat="46.95483" lon="-0.88338">
        <ele>107.81</ele>
        <time>2021-05-13T07:11:22Z</time>
      </trkpt>
      <trkpt lat="46.95462" lon="-0.88362">
        <ele>107.81</ele>
        <time>2021-05-13T07:11:46Z</time>
      </trkpt>
      <trkpt lat="46.95461" lon="-0.88363">
        <ele>107.81</ele>
        <time>2021-05-13T07:11:47Z</time>
      </trkpt>
      <trkpt lat="46.95447" lon="-0.88374">
        <ele>107.81</ele>
        <time>2021-05-13T07:11:57Z</time>
      </trkpt>
      <trkpt lat="46.95429" lon="-0.88379">
        <ele>107.81</ele>
        <time>2021-05-13T07:12:13Z</time>
      </trkpt>
      <trkpt lat="46.95408" lon="-0.88382">
        <ele>107.81</ele>
        <time>2021-05-13T07:12:29Z</time>
      </trkpt>
      <trkpt lat="46.95403" lon="-0.8838">
        <ele>108.29</ele>
        <time>2021-05-13T07:12:34Z</time>
      </trkpt>
      <trkpt lat="46.95402" lon="-0.8838">
        <ele>108.29</ele>
        <time>2021-05-13T07:12:35Z</time>
      </trkpt>
      <trkpt lat="46.95401" lon="-0.88379">
        <ele>108.29</ele>
        <time>2021-05-13T07:12:36Z</time>
      </trkpt>
      <trkpt lat="46.954" lon="-0.88379">
        <ele>108.29</ele>
        <time>2021-05-13T07:12:37Z</time>
      </trkpt>
      <trkpt lat="46.95399" lon="-0.88378">
        <ele>108.29</ele>
        <time>2021-05-13T07:12:38Z</time>
      </trkpt>
      <trkpt lat="46.95397" lon="-0.88378">
        <ele>108.29</ele>
        <time>2021-05-13T07:12:39Z</time>
      </trkpt>
      <trkpt lat="46.95395" lon="-0.88378">
        <ele>108.29</ele>
        <time>2021-05-13T07:12:40Z</time>
      </trkpt>
      <trkpt lat="46.95386" lon="-0.88376">
        <ele>108.29</ele>
        <time>2021-05-13T07:12:45Z</time>
      </trkpt>
      <trkpt lat="46.95384" lon="-0.88377">
        <ele>108.29</ele>
        <time>2021-05-13T07:12:46Z</time>
      </trkpt>
      <trkpt lat="46.95382" lon="-0.88377">
        <ele>108.29</ele>
        <time>2021-05-13T07:12:47Z</time>
      </trkpt>
      <trkpt lat="46.95376" lon="-0.88377">
        <ele>108.29</ele>
        <time>2021-05-13T07:12:52Z</time>
      </trkpt>
      <trkpt lat="46.95374" lon="-0.88378">
        <ele>108.29</ele>
        <time>2021-05-13T07:12:53Z</time>
      </trkpt>
      <trkpt lat="46.95347" lon="-0.88375">
        <ele>108.29</ele>
        <time>2021-05-13T07:13:14Z</time>
      </trkpt>
      <trkpt lat="46.95336" lon="-0.88374">
        <ele>108.29</ele>
        <time>2021-05-13T07:13:24Z</time>
      </trkpt>
      <trkpt lat="46.95333" lon="-0.88374">
        <ele>108.29</ele>
        <time>2021-05-13T07:13:27Z</time>
      </trkpt>
      <trkpt lat="46.95331" lon="-0.88375">
        <ele>108.29</ele>
        <time>2021-05-13T07:13:28Z</time>
      </trkpt>
      <trkpt lat="46.95316" lon="-0.88378">
        <ele>108.29</ele>
        <time>2021-05-13T07:13:41Z</time>
      </trkpt>
      <trkpt lat="46.95305" lon="-0.88386">
        <ele>108.29</ele>
        <time>2021-05-13T07:13:52Z</time>
      </trkpt>
      <trkpt lat="46.95304" lon="-0.88387">
        <ele>108.29</ele>
        <time>2021-05-13T07:13:53Z</time>
      </trkpt>
      <trkpt lat="46.95302" lon="-0.88386">
        <ele>108.29</ele>
        <time>2021-05-13T07:13:54Z</time>
      </trkpt>
      <trkpt lat="46.95301" lon="-0.88387">
        <ele>108.29</ele>
        <time>2021-05-13T07:13:55Z</time>
      </trkpt>
      <trkpt lat="46.953" lon="-0.88387">
        <ele>108.29</ele>
        <time>2021-05-13T07:13:56Z</time>
      </trkpt>
      <trkpt lat="46.95299" lon="-0.88388">
        <ele>108.29</ele>
        <time>2021-05-13T07:13:57Z</time>
      </trkpt>
      <trkpt lat="46.95272" lon="-0.88393">
        <ele>108.29</ele>
        <time>2021-05-13T07:14:16Z</time>
      </trkpt>
      <trkpt lat="46.95268" lon="-0.88392">
        <ele>108.29</ele>
        <time>2021-05-13T07:14:21Z</time>
      </trkpt>
      <trkpt lat="46.95244" lon="-0.88384">
        <ele>108.29</ele>
        <time>2021-05-13T07:14:40Z</time>
      </trkpt>
      <trkpt lat="46.9524" lon="-0.88383">
        <ele>109.25</ele>
        <time>2021-05-13T07:14:43Z</time>
      </trkpt>
      <trkpt lat="46.95219" lon="-0.88381">
        <ele>109.25</ele>
        <time>2021-05-13T07:15:00Z</time>
      </trkpt>
      <trkpt lat="46.95197" lon="-0.88375">
        <ele>109.25</ele>
        <time>2021-05-13T07:15:19Z</time>
      </trkpt>
      <trkpt lat="46.95196" lon="-0.88374">
        <ele>109.25</ele>
        <time>2021-05-13T07:15:20Z</time>
      </trkpt>
      <trkpt lat="46.95172" lon="-0.88361">
        <ele>109.73</ele>
        <time>2021-05-13T07:15:41Z</time>
      </trkpt>
      <trkpt lat="46.9516" lon="-0.88358">
        <ele>109.73</ele>
        <time>2021-05-13T07:15:53Z</time>
      </trkpt>
      <trkpt lat="46.95149" lon="-0.88348">
        <ele>109.73</ele>
        <time>2021-05-13T07:16:09Z</time>
      </trkpt>
      <trkpt lat="46.95142" lon="-0.88339">
        <ele>109.73</ele>
        <time>2021-05-13T07:16:18Z</time>
      </trkpt>
      <trkpt lat="46.95141" lon="-0.88338">
        <ele>109.73</ele>
        <time>2021-05-13T07:16:19Z</time>
      </trkpt>
      <trkpt lat="46.95122" lon="-0.88315">
        <ele>110.21</ele>
        <time>2021-05-13T07:16:39Z</time>
      </trkpt>
      <trkpt lat="46.95106" lon="-0.88284">
        <ele>111.65</ele>
        <time>2021-05-13T07:17:00Z</time>
      </trkpt>
      <trkpt lat="46.95103" lon="-0.88277">
        <ele>111.65</ele>
        <time>2021-05-13T07:17:05Z</time>
      </trkpt>
      <trkpt lat="46.95102" lon="-0.88276">
        <ele>111.65</ele>
        <time>2021-05-13T07:17:06Z</time>
      </trkpt>
      <trkpt lat="46.95101" lon="-0.88275">
        <ele>111.65</ele>
        <time>2021-05-13T07:17:07Z</time>
      </trkpt>
      <trkpt lat="46.95089" lon="-0.88246">
        <ele>112.61</ele>
        <time>2021-05-13T07:17:27Z</time>
      </trkpt>
      <trkpt lat="46.95078" lon="-0.88212">
        <ele>113.57</ele>
        <time>2021-05-13T07:17:48Z</time>
      </trkpt>
      <trkpt lat="46.95058" lon="-0.88182">
        <ele>113.09</ele>
        <time>2021-05-13T07:18:09Z</time>
      </trkpt>
      <trkpt lat="46.95036" lon="-0.8816">
        <ele>111.65</ele>
        <time>2021-05-13T07:18:28Z</time>
      </trkpt>
      <trkpt lat="46.95011" lon="-0.88139">
        <ele>111.17</ele>
        <time>2021-05-13T07:18:49Z</time>
      </trkpt>
      <trkpt lat="46.94986" lon="-0.88132">
        <ele>110.21</ele>
        <time>2021-05-13T07:19:08Z</time>
      </trkpt>
      <trkpt lat="46.9496" lon="-0.88141">
        <ele>108.29</ele>
        <time>2021-05-13T07:19:26Z</time>
      </trkpt>
      <trkpt lat="46.9494" lon="-0.88139">
        <ele>108.29</ele>
        <time>2021-05-13T07:19:44Z</time>
      </trkpt>
      <trkpt lat="46.94938" lon="-0.88138">
        <ele>108.29</ele>
        <time>2021-05-13T07:19:45Z</time>
      </trkpt>
      <trkpt lat="46.94937" lon="-0.88138">
        <ele>108.29</ele>
        <time>2021-05-13T07:19:46Z</time>
      </trkpt>
      <trkpt lat="46.94914" lon="-0.88122">
        <ele>108.29</ele>
        <time>2021-05-13T07:20:07Z</time>
      </trkpt>
      <trkpt lat="46.94894" lon="-0.88108">
        <ele>108.29</ele>
        <time>2021-05-13T07:20:25Z</time>
      </trkpt>
      <trkpt lat="46.94868" lon="-0.88085">
        <ele>108.29</ele>
        <time>2021-05-13T07:20:50Z</time>
      </trkpt>
      <trkpt lat="46.94846" lon="-0.88067">
        <ele>109.73</ele>
        <time>2021-05-13T07:21:09Z</time>
      </trkpt>
      <trkpt lat="46.9483" lon="-0.88056">
        <ele>109.73</ele>
        <time>2021-05-13T07:21:24Z</time>
      </trkpt>
      <trkpt lat="46.94805" lon="-0.88053">
        <ele>109.73</ele>
        <time>2021-05-13T07:21:43Z</time>
      </trkpt>
      <trkpt lat="46.94786" lon="-0.88058">
        <ele>109.73</ele>
        <time>2021-05-13T07:22:00Z</time>
      </trkpt>
      <trkpt lat="46.94769" lon="-0.88062">
        <ele>109.73</ele>
        <time>2021-05-13T07:22:14Z</time>
      </trkpt>
      <trkpt lat="46.94768" lon="-0.88063">
        <ele>109.73</ele>
        <time>2021-05-13T07:22:15Z</time>
      </trkpt>
      <trkpt lat="46.94766" lon="-0.88063">
        <ele>109.73</ele>
        <time>2021-05-13T07:22:16Z</time>
      </trkpt>
      <trkpt lat="46.9475" lon="-0.88052">
        <ele>109.73</ele>
        <time>2021-05-13T07:22:29Z</time>
      </trkpt>
      <trkpt lat="46.94749" lon="-0.88051">
        <ele>109.73</ele>
        <time>2021-05-13T07:22:30Z</time>
      </trkpt>
      <trkpt lat="46.94736" lon="-0.88029">
        <ele>110.21</ele>
        <time>2021-05-13T07:22:49Z</time>
      </trkpt>
      <trkpt lat="46.94729" lon="-0.8802">
        <ele>111.65</ele>
        <time>2021-05-13T07:23:05Z</time>
      </trkpt>
      <trkpt lat="46.94723" lon="-0.88014">
        <ele>113.09</ele>
        <time>2021-05-13T07:23:21Z</time>
      </trkpt>
      <trkpt lat="46.94709" lon="-0.88019">
        <ele>115.01</ele>
        <time>2021-05-13T07:23:37Z</time>
      </trkpt>
      <trkpt lat="46.94701" lon="-0.88022">
        <ele>118.38</ele>
        <time>2021-05-13T07:23:50Z</time>
      </trkpt>
      <trkpt lat="46.94682" lon="-0.8803">
        <ele>118.86</ele>
        <time>2021-05-13T07:24:10Z</time>
      </trkpt>
      <trkpt lat="46.94666" lon="-0.88027">
        <ele>120.78</ele>
        <time>2021-05-13T07:24:29Z</time>
      </trkpt>
      <trkpt lat="46.94658" lon="-0.88025">
        <ele>119.34</ele>
        <time>2021-05-13T07:24:45Z</time>
      </trkpt>
      <trkpt lat="46.94653" lon="-0.88025">
        <ele>117.42</ele>
        <time>2021-05-13T07:24:53Z</time>
      </trkpt>
      <trkpt lat="46.94645" lon="-0.88035">
        <ele>113.57</ele>
        <time>2021-05-13T07:25:08Z</time>
      </trkpt>
      <trkpt lat="46.94624" lon="-0.88039">
        <ele>113.09</ele>
        <time>2021-05-13T07:25:29Z</time>
      </trkpt>
      <trkpt lat="46.94607" lon="-0.88036">
        <ele>114.05</ele>
        <time>2021-05-13T07:25:44Z</time>
      </trkpt>
      <trkpt lat="46.94593" lon="-0.88051">
        <ele>113.09</ele>
        <time>2021-05-13T07:26:03Z</time>
      </trkpt>
      <trkpt lat="46.94583" lon="-0.88057">
        <ele>114.05</ele>
        <time>2021-05-13T07:26:18Z</time>
      </trkpt>
      <trkpt lat="46.94567" lon="-0.88067">
        <ele>113.09</ele>
        <time>2021-05-13T07:26:29Z</time>
      </trkpt>
      <trkpt lat="46.94561" lon="-0.88085">
        <ele>111.65</ele>
        <time>2021-05-13T07:26:44Z</time>
      </trkpt>
      <trkpt lat="46.94557" lon="-0.88089">
        <ele>111.65</ele>
        <time>2021-05-13T07:26:59Z</time>
      </trkpt>
      <trkpt lat="46.94548" lon="-0.88097">
        <ele>111.65</ele>
        <time>2021-05-13T07:27:12Z</time>
      </trkpt>
      <trkpt lat="46.94539" lon="-0.88102">
        <ele>112.13</ele>
        <time>2021-05-13T07:27:26Z</time>
      </trkpt>
      <trkpt lat="46.94537" lon="-0.88104">
        <ele>112.13</ele>
        <time>2021-05-13T07:27:44Z</time>
      </trkpt>
      <trkpt lat="46.94528" lon="-0.88106">
        <ele>112.13</ele>
        <time>2021-05-13T07:27:59Z</time>
      </trkpt>
      <trkpt lat="46.94522" lon="-0.88107">
        <ele>112.13</ele>
        <time>2021-05-13T07:28:15Z</time>
      </trkpt>
      <trkpt lat="46.94514" lon="-0.88109">
        <ele>112.61</ele>
        <time>2021-05-13T07:28:30Z</time>
      </trkpt>
      <trkpt lat="46.94512" lon="-0.88117">
        <ele>112.61</ele>
        <time>2021-05-13T07:28:45Z</time>
      </trkpt>
      <trkpt lat="46.94502" lon="-0.8812">
        <ele>112.61</ele>
        <time>2021-05-13T07:29:02Z</time>
      </trkpt>
      <trkpt lat="46.94495" lon="-0.88129">
        <ele>114.05</ele>
        <time>2021-05-13T07:29:19Z</time>
      </trkpt>
      <trkpt lat="46.94495" lon="-0.8813">
        <ele>114.05</ele>
        <time>2021-05-13T07:29:22Z</time>
      </trkpt>
      <trkpt lat="46.94494" lon="-0.88131">
        <ele>114.05</ele>
        <time>2021-05-13T07:29:23Z</time>
      </trkpt>
      <trkpt lat="46.94484" lon="-0.88133">
        <ele>114.53</ele>
        <time>2021-05-13T07:29:39Z</time>
      </trkpt>
      <trkpt lat="46.94475" lon="-0.88147">
        <ele>115.01</ele>
        <time>2021-05-13T07:29:54Z</time>
      </trkpt>
      <trkpt lat="46.94467" lon="-0.88153">
        <ele>115.01</ele>
        <time>2021-05-13T07:30:11Z</time>
      </trkpt>
      <trkpt lat="46.94457" lon="-0.88165">
        <ele>115.01</ele>
        <time>2021-05-13T07:30:25Z</time>
      </trkpt>
      <trkpt lat="46.94443" lon="-0.88176">
        <ele>115.01</ele>
        <time>2021-05-13T07:30:40Z</time>
      </trkpt>
      <trkpt lat="46.94435" lon="-0.88174">
        <ele>115.5</ele>
        <time>2021-05-13T07:30:55Z</time>
      </trkpt>
      <trkpt lat="46.94421" lon="-0.88165">
        <ele>115.98</ele>
        <time>2021-05-13T07:31:09Z</time>
      </trkpt>
      <trkpt lat="46.94416" lon="-0.88158">
        <ele>115.98</ele>
        <time>2021-05-13T07:31:17Z</time>
      </trkpt>
      <trkpt lat="46.94398" lon="-0.88119">
        <ele>115.98</ele>
        <time>2021-05-13T07:31:42Z</time>
      </trkpt>
      <trkpt lat="46.94394" lon="-0.88107">
        <ele>115.98</ele>
        <time>2021-05-13T07:31:47Z</time>
      </trkpt>
      <trkpt lat="46.94391" lon="-0.88085">
        <ele>115.98</ele>
        <time>2021-05-13T07:32:03Z</time>
      </trkpt>
      <trkpt lat="46.94387" lon="-0.88068">
        <ele>115.98</ele>
        <time>2021-05-13T07:32:19Z</time>
      </trkpt>
      <trkpt lat="46.94384" lon="-0.88053">
        <ele>115.98</ele>
        <time>2021-05-13T07:32:32Z</time>
      </trkpt>
      <trkpt lat="46.94375" lon="-0.8804">
        <ele>115.98</ele>
        <time>2021-05-13T07:32:46Z</time>
      </trkpt>
      <trkpt lat="46.94372" lon="-0.88025">
        <ele>116.46</ele>
        <time>2021-05-13T07:32:59Z</time>
      </trkpt>
      <trkpt lat="46.94359" lon="-0.87985">
        <ele>115.98</ele>
        <time>2021-05-13T07:33:20Z</time>
      </trkpt>
      <trkpt lat="46.94357" lon="-0.87981">
        <ele>115.98</ele>
        <time>2021-05-13T07:33:24Z</time>
      </trkpt>
      <trkpt lat="46.94356" lon="-0.87976">
        <ele>116.46</ele>
        <time>2021-05-13T07:33:27Z</time>
      </trkpt>
      <trkpt lat="46.94351" lon="-0.87951">
        <ele>116.46</ele>
        <time>2021-05-13T07:33:44Z</time>
      </trkpt>
      <trkpt lat="46.94347" lon="-0.87942">
        <ele>117.42</ele>
        <time>2021-05-13T07:33:53Z</time>
      </trkpt>
      <trkpt lat="46.94348" lon="-0.87938">
        <ele>117.9</ele>
        <time>2021-05-13T07:33:58Z</time>
      </trkpt>
      <trkpt lat="46.94346" lon="-0.87937">
        <ele>118.38</ele>
        <time>2021-05-13T07:34:00Z</time>
      </trkpt>
      <trkpt lat="46.94345" lon="-0.87918">
        <ele>120.3</ele>
        <time>2021-05-13T07:34:13Z</time>
      </trkpt>
      <trkpt lat="46.9434" lon="-0.87888">
        <ele>123.19</ele>
        <time>2021-05-13T07:34:32Z</time>
      </trkpt>
      <trkpt lat="46.94341" lon="-0.87871">
        <ele>125.11</ele>
        <time>2021-05-13T07:34:45Z</time>
      </trkpt>
      <trkpt lat="46.9434" lon="-0.87856">
        <ele>127.51</ele>
        <time>2021-05-13T07:35:02Z</time>
      </trkpt>
      <trkpt lat="46.94332" lon="-0.87847">
        <ele>126.55</ele>
        <time>2021-05-13T07:35:14Z</time>
      </trkpt>
      <trkpt lat="46.94317" lon="-0.87838">
        <ele>124.15</ele>
        <time>2021-05-13T07:35:32Z</time>
      </trkpt>
      <trkpt lat="46.94294" lon="-0.87827">
        <ele>121.74</ele>
        <time>2021-05-13T07:35:53Z</time>
      </trkpt>
      <trkpt lat="46.94266" lon="-0.87821">
        <ele>119.82</ele>
        <time>2021-05-13T07:36:11Z</time>
      </trkpt>
      <trkpt lat="46.94257" lon="-0.87812">
        <ele>119.82</ele>
        <time>2021-05-13T07:36:25Z</time>
      </trkpt>
      <trkpt lat="46.94248" lon="-0.87801">
        <ele>119.34</ele>
        <time>2021-05-13T07:36:39Z</time>
      </trkpt>
      <trkpt lat="46.94233" lon="-0.87785">
        <ele>119.34</ele>
        <time>2021-05-13T07:36:55Z</time>
      </trkpt>
      <trkpt lat="46.94213" lon="-0.87772">
        <ele>117.42</ele>
        <time>2021-05-13T07:37:12Z</time>
      </trkpt>
      <trkpt lat="46.94196" lon="-0.87748">
        <ele>117.42</ele>
        <time>2021-05-13T07:37:32Z</time>
      </trkpt>
      <trkpt lat="46.94182" lon="-0.87726">
        <ele>116.46</ele>
        <time>2021-05-13T07:37:50Z</time>
      </trkpt>
      <trkpt lat="46.94168" lon="-0.87711">
        <ele>116.46</ele>
        <time>2021-05-13T07:38:03Z</time>
      </trkpt>
      <trkpt lat="46.94157" lon="-0.87695">
        <ele>115.5</ele>
        <time>2021-05-13T07:38:22Z</time>
      </trkpt>
      <trkpt lat="46.94157" lon="-0.87691">
        <ele>116.94</ele>
        <time>2021-05-13T07:38:29Z</time>
      </trkpt>
      <trkpt lat="46.94164" lon="-0.87693">
        <ele>119.34</ele>
        <time>2021-05-13T07:38:46Z</time>
      </trkpt>
      <trkpt lat="46.9417" lon="-0.87695">
        <ele>122.22</ele>
        <time>2021-05-13T07:39:05Z</time>
      </trkpt>
      <trkpt lat="46.94171" lon="-0.87701">
        <ele>123.67</ele>
        <time>2021-05-13T07:39:25Z</time>
      </trkpt>
      <trkpt lat="46.94184" lon="-0.87706">
        <ele>124.15</ele>
        <time>2021-05-13T07:39:39Z</time>
      </trkpt>
      <trkpt lat="46.94204" lon="-0.87723">
        <ele>126.55</ele>
        <time>2021-05-13T07:40:04Z</time>
      </trkpt>
      <trkpt lat="46.94211" lon="-0.87726">
        <ele>126.55</ele>
        <time>2021-05-13T07:40:13Z</time>
      </trkpt>
      <trkpt lat="46.9422" lon="-0.87724">
        <ele>128.47</ele>
        <time>2021-05-13T07:40:26Z</time>
      </trkpt>
      <trkpt lat="46.94221" lon="-0.87718">
        <ele>130.88</ele>
        <time>2021-05-13T07:40:40Z</time>
      </trkpt>
      <trkpt lat="46.94218" lon="-0.87707">
        <ele>131.84</ele>
        <time>2021-05-13T07:40:54Z</time>
      </trkpt>
      <trkpt lat="46.94207" lon="-0.87692">
        <ele>133.28</ele>
        <time>2021-05-13T07:41:11Z</time>
      </trkpt>
      <trkpt lat="46.94198" lon="-0.87686">
        <ele>134.24</ele>
        <time>2021-05-13T07:41:33Z</time>
      </trkpt>
      <trkpt lat="46.94179" lon="-0.87665">
        <ele>134.72</ele>
        <time>2021-05-13T07:41:57Z</time>
      </trkpt>
      <trkpt lat="46.94173" lon="-0.87663">
        <ele>135.68</ele>
        <time>2021-05-13T07:42:06Z</time>
      </trkpt>
      <trkpt lat="46.94164" lon="-0.87661">
        <ele>133.28</ele>
        <time>2021-05-13T07:42:20Z</time>
      </trkpt>
      <trkpt lat="46.94164" lon="-0.87653">
        <ele>135.68</ele>
        <time>2021-05-13T07:42:32Z</time>
      </trkpt>
      <trkpt lat="46.94171" lon="-0.87656">
        <ele>136.16</ele>
        <time>2021-05-13T07:42:43Z</time>
      </trkpt>
      <trkpt lat="46.94174" lon="-0.87653">
        <ele>138.09</ele>
        <time>2021-05-13T07:42:55Z</time>
      </trkpt>
      <trkpt lat="46.94171" lon="-0.87652">
        <ele>138.09</ele>
        <time>2021-05-13T07:43:07Z</time>
      </trkpt>
      <trkpt lat="46.94178" lon="-0.87645">
        <ele>141.45</ele>
        <time>2021-05-13T07:43:21Z</time>
      </trkpt>
      <trkpt lat="46.94187" lon="-0.87639">
        <ele>143.85</ele>
        <time>2021-05-13T07:43:37Z</time>
      </trkpt>
      <trkpt lat="46.94192" lon="-0.8764">
        <ele>144.82</ele>
        <time>2021-05-13T07:43:52Z</time>
      </trkpt>
      <trkpt lat="46.94199" lon="-0.87646">
        <ele>144.82</ele>
        <time>2021-05-13T07:44:03Z</time>
      </trkpt>
      <trkpt lat="46.94202" lon="-0.87647">
        <ele>144.82</ele>
        <time>2021-05-13T07:44:06Z</time>
      </trkpt>
      <trkpt lat="46.9422" lon="-0.87654">
        <ele>144.82</ele>
        <time>2021-05-13T07:44:21Z</time>
      </trkpt>
      <trkpt lat="46.94231" lon="-0.87661">
        <ele>144.82</ele>
        <time>2021-05-13T07:44:36Z</time>
      </trkpt>
      <trkpt lat="46.94245" lon="-0.87669">
        <ele>143.85</ele>
        <time>2021-05-13T07:44:47Z</time>
      </trkpt>
      <trkpt lat="46.94253" lon="-0.87662">
        <ele>145.78</ele>
        <time>2021-05-13T07:45:04Z</time>
      </trkpt>
      <trkpt lat="46.94259" lon="-0.87656">
        <ele>148.66</ele>
        <time>2021-05-13T07:45:18Z</time>
      </trkpt>
      <trkpt lat="46.94267" lon="-0.8765">
        <ele>150.58</ele>
        <time>2021-05-13T07:45:37Z</time>
      </trkpt>
      <trkpt lat="46.94262" lon="-0.87644">
        <ele>153.47</ele>
        <time>2021-05-13T07:45:50Z</time>
      </trkpt>
      <trkpt lat="46.94265" lon="-0.87635">
        <ele>154.91</ele>
        <time>2021-05-13T07:46:02Z</time>
      </trkpt>
      <trkpt lat="46.94268" lon="-0.87633">
        <ele>155.39</ele>
        <time>2021-05-13T07:46:20Z</time>
      </trkpt>
      <trkpt lat="46.94272" lon="-0.8763">
        <ele>156.35</ele>
        <time>2021-05-13T07:46:42Z</time>
      </trkpt>
      <trkpt lat="46.94273" lon="-0.8763">
        <ele>156.35</ele>
        <time>2021-05-13T07:46:44Z</time>
      </trkpt>
      <trkpt lat="46.94277" lon="-0.87633">
        <ele>156.35</ele>
        <time>2021-05-13T07:46:47Z</time>
      </trkpt>
      <trkpt lat="46.94289" lon="-0.87635">
        <ele>156.83</ele>
        <time>2021-05-13T07:47:00Z</time>
      </trkpt>
      <trkpt lat="46.94294" lon="-0.87643">
        <ele>156.83</ele>
        <time>2021-05-13T07:47:08Z</time>
      </trkpt>
      <trkpt lat="46.94307" lon="-0.87648">
        <ele>157.31</ele>
        <time>2021-05-13T07:47:23Z</time>
      </trkpt>
      <trkpt lat="46.94319" lon="-0.87642">
        <ele>158.75</ele>
        <time>2021-05-13T07:47:38Z</time>
      </trkpt>
      <trkpt lat="46.9432" lon="-0.87635">
        <ele>159.24</ele>
        <time>2021-05-13T07:47:45Z</time>
      </trkpt>
      <trkpt lat="46.94321" lon="-0.87616">
        <ele>161.16</ele>
        <time>2021-05-13T07:48:01Z</time>
      </trkpt>
      <trkpt lat="46.94321" lon="-0.87597">
        <ele>163.08</ele>
        <time>2021-05-13T07:48:19Z</time>
      </trkpt>
      <trkpt lat="46.94328" lon="-0.87583">
        <ele>165</ele>
        <time>2021-05-13T07:48:34Z</time>
      </trkpt>
      <trkpt lat="46.94337" lon="-0.87582">
        <ele>165.48</ele>
        <time>2021-05-13T07:48:43Z</time>
      </trkpt>
      <trkpt lat="46.94343" lon="-0.87589">
        <ele>164.04</ele>
        <time>2021-05-13T07:48:55Z</time>
      </trkpt>
      <trkpt lat="46.94354" lon="-0.87606">
        <ele>162.12</ele>
        <time>2021-05-13T07:49:08Z</time>
      </trkpt>
      <trkpt lat="46.94357" lon="-0.87611">
        <ele>162.12</ele>
        <time>2021-05-13T07:49:11Z</time>
      </trkpt>
      <trkpt lat="46.94367" lon="-0.87629">
        <ele>159.72</ele>
        <time>2021-05-13T07:49:28Z</time>
      </trkpt>
      <trkpt lat="46.94369" lon="-0.87641">
        <ele>158.75</ele>
        <time>2021-05-13T07:49:38Z</time>
      </trkpt>
      <trkpt lat="46.94371" lon="-0.87645">
        <ele>158.27</ele>
        <time>2021-05-13T07:49:42Z</time>
      </trkpt>
      <trkpt lat="46.94371" lon="-0.87649">
        <ele>158.27</ele>
        <time>2021-05-13T07:49:44Z</time>
      </trkpt>
      <trkpt lat="46.94381" lon="-0.87675">
        <ele>155.87</ele>
        <time>2021-05-13T07:49:58Z</time>
      </trkpt>
      <trkpt lat="46.9438" lon="-0.87687">
        <ele>154.43</ele>
        <time>2021-05-13T07:50:07Z</time>
      </trkpt>
      <trkpt lat="46.94379" lon="-0.87705">
        <ele>152.51</ele>
        <time>2021-05-13T07:50:21Z</time>
      </trkpt>
      <trkpt lat="46.94375" lon="-0.87725">
        <ele>151.54</ele>
        <time>2021-05-13T07:50:39Z</time>
      </trkpt>
      <trkpt lat="46.94367" lon="-0.87744">
        <ele>148.66</ele>
        <time>2021-05-13T07:50:55Z</time>
      </trkpt>
      <trkpt lat="46.94367" lon="-0.87745">
        <ele>148.66</ele>
        <time>2021-05-13T07:50:56Z</time>
      </trkpt>
      <trkpt lat="46.94365" lon="-0.87763">
        <ele>146.26</ele>
        <time>2021-05-13T07:51:12Z</time>
      </trkpt>
      <trkpt lat="46.94369" lon="-0.87776">
        <ele>143.85</ele>
        <time>2021-05-13T07:51:29Z</time>
      </trkpt>
      <trkpt lat="46.94381" lon="-0.87784">
        <ele>141.45</ele>
        <time>2021-05-13T07:51:48Z</time>
      </trkpt>
      <trkpt lat="46.94396" lon="-0.87792">
        <ele>140.49</ele>
        <time>2021-05-13T07:52:04Z</time>
      </trkpt>
      <trkpt lat="46.94402" lon="-0.87786">
        <ele>141.93</ele>
        <time>2021-05-13T07:52:15Z</time>
      </trkpt>
      <trkpt lat="46.94404" lon="-0.87777">
        <ele>142.89</ele>
        <time>2021-05-13T07:52:21Z</time>
      </trkpt>
      <trkpt lat="46.94412" lon="-0.87759">
        <ele>144.82</ele>
        <time>2021-05-13T07:52:36Z</time>
      </trkpt>
      <trkpt lat="46.94434" lon="-0.8775">
        <ele>147.22</ele>
        <time>2021-05-13T07:52:53Z</time>
      </trkpt>
      <trkpt lat="46.94448" lon="-0.87754">
        <ele>149.62</ele>
        <time>2021-05-13T07:53:09Z</time>
      </trkpt>
      <trkpt lat="46.94457" lon="-0.87744">
        <ele>151.54</ele>
        <time>2021-05-13T07:53:24Z</time>
      </trkpt>
      <trkpt lat="46.94463" lon="-0.87733">
        <ele>153.47</ele>
        <time>2021-05-13T07:53:40Z</time>
      </trkpt>
      <trkpt lat="46.94477" lon="-0.87729">
        <ele>154.91</ele>
        <time>2021-05-13T07:53:57Z</time>
      </trkpt>
      <trkpt lat="46.94483" lon="-0.87728">
        <ele>155.39</ele>
        <time>2021-05-13T07:54:12Z</time>
      </trkpt>
      <trkpt lat="46.94495" lon="-0.87709">
        <ele>157.31</ele>
        <time>2021-05-13T07:54:29Z</time>
      </trkpt>
      <trkpt lat="46.94506" lon="-0.87693">
        <ele>158.27</ele>
        <time>2021-05-13T07:54:45Z</time>
      </trkpt>
      <trkpt lat="46.94516" lon="-0.87679">
        <ele>159.24</ele>
        <time>2021-05-13T07:54:59Z</time>
      </trkpt>
      <trkpt lat="46.9452" lon="-0.87675">
        <ele>159.24</ele>
        <time>2021-05-13T07:55:04Z</time>
      </trkpt>
      <trkpt lat="46.94535" lon="-0.87658">
        <ele>159.72</ele>
        <time>2021-05-13T07:55:20Z</time>
      </trkpt>
      <trkpt lat="46.94541" lon="-0.87652">
        <ele>160.2</ele>
        <time>2021-05-13T07:55:36Z</time>
      </trkpt>
      <trkpt lat="46.94549" lon="-0.87657">
        <ele>160.2</ele>
        <time>2021-05-13T07:55:51Z</time>
      </trkpt>
      <trkpt lat="46.9455" lon="-0.87654">
        <ele>160.2</ele>
        <time>2021-05-13T07:55:54Z</time>
      </trkpt>
      <trkpt lat="46.94561" lon="-0.87626">
        <ele>160.2</ele>
        <time>2021-05-13T07:56:10Z</time>
      </trkpt>
      <trkpt lat="46.94564" lon="-0.87624">
        <ele>160.2</ele>
        <time>2021-05-13T07:56:26Z</time>
      </trkpt>
      <trkpt lat="46.94564" lon="-0.87624">
        <ele>160.2</ele>
        <time>2021-05-13T07:56:59Z</time>
      </trkpt>
      <trkpt lat="46.94562" lon="-0.87624">
        <ele>160.68</ele>
        <time>2021-05-13T07:57:34Z</time>
      </trkpt>
      <trkpt lat="46.94575" lon="-0.87605">
        <ele>159.24</ele>
        <time>2021-05-13T07:57:51Z</time>
      </trkpt>
      <trkpt lat="46.94594" lon="-0.87572">
        <ele>156.83</ele>
        <time>2021-05-13T07:58:14Z</time>
      </trkpt>
      <trkpt lat="46.94606" lon="-0.87546">
        <ele>155.87</ele>
        <time>2021-05-13T07:58:31Z</time>
      </trkpt>
      <trkpt lat="46.94621" lon="-0.87519">
        <ele>156.35</ele>
        <time>2021-05-13T07:58:51Z</time>
      </trkpt>
      <trkpt lat="46.94635" lon="-0.87491">
        <ele>156.35</ele>
        <time>2021-05-13T07:59:10Z</time>
      </trkpt>
      <trkpt lat="46.94651" lon="-0.87465">
        <ele>156.35</ele>
        <time>2021-05-13T07:59:29Z</time>
      </trkpt>
      <trkpt lat="46.94667" lon="-0.87437">
        <ele>157.79</ele>
        <time>2021-05-13T07:59:50Z</time>
      </trkpt>
      <trkpt lat="46.9468" lon="-0.87409">
        <ele>159.24</ele>
        <time>2021-05-13T08:00:10Z</time>
      </trkpt>
      <trkpt lat="46.94692" lon="-0.87392">
        <ele>160.2</ele>
        <time>2021-05-13T08:00:27Z</time>
      </trkpt>
      <trkpt lat="46.94702" lon="-0.87377">
        <ele>160.68</ele>
        <time>2021-05-13T08:00:40Z</time>
      </trkpt>
      <trkpt lat="46.94714" lon="-0.87345">
        <ele>161.64</ele>
        <time>2021-05-13T08:01:00Z</time>
      </trkpt>
      <trkpt lat="46.94712" lon="-0.87333">
        <ele>162.12</ele>
        <time>2021-05-13T08:01:08Z</time>
      </trkpt>
      <trkpt lat="46.94708" lon="-0.87326">
        <ele>163.08</ele>
        <time>2021-05-13T08:01:21Z</time>
      </trkpt>
      <trkpt lat="46.94706" lon="-0.87323">
        <ele>163.08</ele>
        <time>2021-05-13T08:01:37Z</time>
      </trkpt>
      <trkpt lat="46.94704" lon="-0.8732">
        <ele>163.08</ele>
        <time>2021-05-13T08:01:53Z</time>
      </trkpt>
      <trkpt lat="46.947" lon="-0.87318">
        <ele>163.56</ele>
        <time>2021-05-13T08:02:09Z</time>
      </trkpt>
      <trkpt lat="46.94692" lon="-0.8731">
        <ele>163.56</ele>
        <time>2021-05-13T08:02:22Z</time>
      </trkpt>
      <trkpt lat="46.94676" lon="-0.87291">
        <ele>163.56</ele>
        <time>2021-05-13T08:02:42Z</time>
      </trkpt>
      <trkpt lat="46.94669" lon="-0.87283">
        <ele>163.56</ele>
        <time>2021-05-13T08:02:53Z</time>
      </trkpt>
      <trkpt lat="46.94652" lon="-0.87259">
        <ele>164.52</ele>
        <time>2021-05-13T08:03:14Z</time>
      </trkpt>
      <trkpt lat="46.94632" lon="-0.87229">
        <ele>165.48</ele>
        <time>2021-05-13T08:03:37Z</time>
      </trkpt>
      <trkpt lat="46.94614" lon="-0.87205">
        <ele>166.45</ele>
        <time>2021-05-13T08:03:57Z</time>
      </trkpt>
      <trkpt lat="46.94596" lon="-0.87179">
        <ele>167.41</ele>
        <time>2021-05-13T08:04:21Z</time>
      </trkpt>
      <trkpt lat="46.94577" lon="-0.87146">
        <ele>169.33</ele>
        <time>2021-05-13T08:04:47Z</time>
      </trkpt>
      <trkpt lat="46.94563" lon="-0.87118">
        <ele>170.29</ele>
        <time>2021-05-13T08:05:05Z</time>
      </trkpt>
      <trkpt lat="46.94548" lon="-0.87086">
        <ele>171.25</ele>
        <time>2021-05-13T08:05:26Z</time>
      </trkpt>
      <trkpt lat="46.94528" lon="-0.87054">
        <ele>171.73</ele>
        <time>2021-05-13T08:05:48Z</time>
      </trkpt>
      <trkpt lat="46.94512" lon="-0.87026">
        <ele>172.69</ele>
        <time>2021-05-13T08:06:10Z</time>
      </trkpt>
      <trkpt lat="46.94506" lon="-0.87016">
        <ele>172.69</ele>
        <time>2021-05-13T08:06:19Z</time>
      </trkpt>
      <trkpt lat="46.94485" lon="-0.86991">
        <ele>171.73</ele>
        <time>2021-05-13T08:06:37Z</time>
      </trkpt>
      <trkpt lat="46.94467" lon="-0.86968">
        <ele>170.77</ele>
        <time>2021-05-13T08:06:56Z</time>
      </trkpt>
      <trkpt lat="46.94452" lon="-0.86947">
        <ele>169.33</ele>
        <time>2021-05-13T08:07:13Z</time>
      </trkpt>
      <trkpt lat="46.94432" lon="-0.86921">
        <ele>168.85</ele>
        <time>2021-05-13T08:07:33Z</time>
      </trkpt>
      <trkpt lat="46.94415" lon="-0.86893">
        <ele>167.41</ele>
        <time>2021-05-13T08:07:54Z</time>
      </trkpt>
      <trkpt lat="46.94401" lon="-0.8687">
        <ele>166.45</ele>
        <time>2021-05-13T08:08:11Z</time>
      </trkpt>
      <trkpt lat="46.94391" lon="-0.86854">
        <ele>165.96</ele>
        <time>2021-05-13T08:08:24Z</time>
      </trkpt>
      <trkpt lat="46.94376" lon="-0.8683">
        <ele>165.96</ele>
        <time>2021-05-13T08:08:42Z</time>
      </trkpt>
      <trkpt lat="46.94354" lon="-0.86805">
        <ele>165.96</ele>
        <time>2021-05-13T08:09:03Z</time>
      </trkpt>
      <trkpt lat="46.94329" lon="-0.86779">
        <ele>166.93</ele>
        <time>2021-05-13T08:09:28Z</time>
      </trkpt>
      <trkpt lat="46.94314" lon="-0.86768">
        <ele>165.48</ele>
        <time>2021-05-13T08:09:40Z</time>
      </trkpt>
      <trkpt lat="46.94288" lon="-0.86742">
        <ele>165.96</ele>
        <time>2021-05-13T08:10:05Z</time>
      </trkpt>
      <trkpt lat="46.94266" lon="-0.86716">
        <ele>165.48</ele>
        <time>2021-05-13T08:10:28Z</time>
      </trkpt>
      <trkpt lat="46.94249" lon="-0.86693">
        <ele>164.52</ele>
        <time>2021-05-13T08:10:47Z</time>
      </trkpt>
      <trkpt lat="46.94229" lon="-0.86664">
        <ele>163.56</ele>
        <time>2021-05-13T08:11:08Z</time>
      </trkpt>
      <trkpt lat="46.94226" lon="-0.8666">
        <ele>163.56</ele>
        <time>2021-05-13T08:11:12Z</time>
      </trkpt>
      <trkpt lat="46.94223" lon="-0.86656">
        <ele>163.56</ele>
        <time>2021-05-13T08:11:16Z</time>
      </trkpt>
      <trkpt lat="46.94206" lon="-0.86634">
        <ele>162.6</ele>
        <time>2021-05-13T08:11:34Z</time>
      </trkpt>
      <trkpt lat="46.94187" lon="-0.86605">
        <ele>162.12</ele>
        <time>2021-05-13T08:11:56Z</time>
      </trkpt>
      <trkpt lat="46.94166" lon="-0.86582">
        <ele>161.64</ele>
        <time>2021-05-13T08:12:14Z</time>
      </trkpt>
      <trkpt lat="46.94145" lon="-0.86561">
        <ele>160.68</ele>
        <time>2021-05-13T08:12:34Z</time>
      </trkpt>
      <trkpt lat="46.94118" lon="-0.86538">
        <ele>159.24</ele>
        <time>2021-05-13T08:12:57Z</time>
      </trkpt>
      <trkpt lat="46.9409" lon="-0.86517">
        <ele>157.79</ele>
        <time>2021-05-13T08:13:20Z</time>
      </trkpt>
      <trkpt lat="46.94064" lon="-0.86499">
        <ele>156.35</ele>
        <time>2021-05-13T08:13:43Z</time>
      </trkpt>
      <trkpt lat="46.9404" lon="-0.86483">
        <ele>154.91</ele>
        <time>2021-05-13T08:14:04Z</time>
      </trkpt>
      <trkpt lat="46.94014" lon="-0.86467">
        <ele>153.95</ele>
        <time>2021-05-13T08:14:24Z</time>
      </trkpt>
      <trkpt lat="46.93992" lon="-0.86443">
        <ele>152.51</ele>
        <time>2021-05-13T08:14:44Z</time>
      </trkpt>
      <trkpt lat="46.93974" lon="-0.86415">
        <ele>152.03</ele>
        <time>2021-05-13T08:15:04Z</time>
      </trkpt>
      <trkpt lat="46.93963" lon="-0.86383">
        <ele>153.47</ele>
        <time>2021-05-13T08:15:24Z</time>
      </trkpt>
      <trkpt lat="46.93954" lon="-0.86349">
        <ele>155.87</ele>
        <time>2021-05-13T08:15:43Z</time>
      </trkpt>
      <trkpt lat="46.93947" lon="-0.86318">
        <ele>158.27</ele>
        <time>2021-05-13T08:16:02Z</time>
      </trkpt>
      <trkpt lat="46.93933" lon="-0.86281">
        <ele>159.24</ele>
        <time>2021-05-13T08:16:24Z</time>
      </trkpt>
      <trkpt lat="46.93916" lon="-0.86249">
        <ele>159.72</ele>
        <time>2021-05-13T08:16:45Z</time>
      </trkpt>
      <trkpt lat="46.93898" lon="-0.86221">
        <ele>160.2</ele>
        <time>2021-05-13T08:17:05Z</time>
      </trkpt>
      <trkpt lat="46.93871" lon="-0.86191">
        <ele>160.2</ele>
        <time>2021-05-13T08:17:30Z</time>
      </trkpt>
      <trkpt lat="46.93846" lon="-0.86167">
        <ele>160.2</ele>
        <time>2021-05-13T08:17:53Z</time>
      </trkpt>
      <trkpt lat="46.9382" lon="-0.86142">
        <ele>160.2</ele>
        <time>2021-05-13T08:18:17Z</time>
      </trkpt>
      <trkpt lat="46.93799" lon="-0.86121">
        <ele>160.68</ele>
        <time>2021-05-13T08:18:36Z</time>
      </trkpt>
      <trkpt lat="46.93776" lon="-0.86098">
        <ele>162.12</ele>
        <time>2021-05-13T08:18:57Z</time>
      </trkpt>
      <trkpt lat="46.9375" lon="-0.8607">
        <ele>163.56</ele>
        <time>2021-05-13T08:19:22Z</time>
      </trkpt>
      <trkpt lat="46.93726" lon="-0.86046">
        <ele>165.48</ele>
        <time>2021-05-13T08:19:45Z</time>
      </trkpt>
      <trkpt lat="46.937" lon="-0.8602">
        <ele>167.89</ele>
        <time>2021-05-13T08:20:10Z</time>
      </trkpt>
      <trkpt lat="46.93682" lon="-0.86002">
        <ele>169.81</ele>
        <time>2021-05-13T08:20:30Z</time>
      </trkpt>
      <trkpt lat="46.93661" lon="-0.85986">
        <ele>170.77</ele>
        <time>2021-05-13T08:20:49Z</time>
      </trkpt>
      <trkpt lat="46.93635" lon="-0.8597">
        <ele>171.25</ele>
        <time>2021-05-13T08:21:12Z</time>
      </trkpt>
      <trkpt lat="46.93609" lon="-0.85958">
        <ele>169.33</ele>
        <time>2021-05-13T08:21:36Z</time>
      </trkpt>
      <trkpt lat="46.93606" lon="-0.85986">
        <ele>170.77</ele>
        <time>2021-05-13T08:21:53Z</time>
      </trkpt>
      <trkpt lat="46.93596" lon="-0.86021">
        <ele>170.77</ele>
        <time>2021-05-13T08:22:14Z</time>
      </trkpt>
      <trkpt lat="46.93577" lon="-0.86035">
        <ele>170.77</ele>
        <time>2021-05-13T08:22:30Z</time>
      </trkpt>
      <trkpt lat="46.93554" lon="-0.86048">
        <ele>170.77</ele>
        <time>2021-05-13T08:22:49Z</time>
      </trkpt>
      <trkpt lat="46.93528" lon="-0.86066">
        <ele>169.33</ele>
        <time>2021-05-13T08:23:12Z</time>
      </trkpt>
      <trkpt lat="46.9351" lon="-0.86078">
        <ele>169.33</ele>
        <time>2021-05-13T08:23:27Z</time>
      </trkpt>
      <trkpt lat="46.93487" lon="-0.86097">
        <ele>168.85</ele>
        <time>2021-05-13T08:23:47Z</time>
      </trkpt>
      <trkpt lat="46.93468" lon="-0.86113">
        <ele>167.89</ele>
        <time>2021-05-13T08:24:05Z</time>
      </trkpt>
      <trkpt lat="46.93443" lon="-0.86141">
        <ele>166.93</ele>
        <time>2021-05-13T08:24:28Z</time>
      </trkpt>
      <trkpt lat="46.93425" lon="-0.86177">
        <ele>165.96</ele>
        <time>2021-05-13T08:24:52Z</time>
      </trkpt>
      <trkpt lat="46.93411" lon="-0.86209">
        <ele>165</ele>
        <time>2021-05-13T08:25:13Z</time>
      </trkpt>
      <trkpt lat="46.93397" lon="-0.86237">
        <ele>163.56</ele>
        <time>2021-05-13T08:25:31Z</time>
      </trkpt>
      <trkpt lat="46.93383" lon="-0.86274">
        <ele>162.12</ele>
        <time>2021-05-13T08:25:53Z</time>
      </trkpt>
      <trkpt lat="46.93371" lon="-0.86305">
        <ele>160.68</ele>
        <time>2021-05-13T08:26:12Z</time>
      </trkpt>
      <trkpt lat="46.93363" lon="-0.86339">
        <ele>160.2</ele>
        <time>2021-05-13T08:26:30Z</time>
      </trkpt>
      <trkpt lat="46.93362" lon="-0.86377">
        <ele>160.2</ele>
        <time>2021-05-13T08:26:50Z</time>
      </trkpt>
      <trkpt lat="46.93359" lon="-0.86426">
        <ele>160.2</ele>
        <time>2021-05-13T08:27:16Z</time>
      </trkpt>
      <trkpt lat="46.93364" lon="-0.86462">
        <ele>158.75</ele>
        <time>2021-05-13T08:27:35Z</time>
      </trkpt>
      <trkpt lat="46.93378" lon="-0.86485">
        <ele>157.79</ele>
        <time>2021-05-13T08:27:52Z</time>
      </trkpt>
      <trkpt lat="46.93397" lon="-0.86512">
        <ele>154.91</ele>
        <time>2021-05-13T08:28:14Z</time>
      </trkpt>
      <trkpt lat="46.93415" lon="-0.86536">
        <ele>152.51</ele>
        <time>2021-05-13T08:28:34Z</time>
      </trkpt>
      <trkpt lat="46.9343" lon="-0.86551">
        <ele>150.58</ele>
        <time>2021-05-13T08:28:48Z</time>
      </trkpt>
      <trkpt lat="46.93449" lon="-0.8656">
        <ele>148.18</ele>
        <time>2021-05-13T08:29:05Z</time>
      </trkpt>
      <trkpt lat="46.93457" lon="-0.86581">
        <ele>145.3</ele>
        <time>2021-05-13T08:29:18Z</time>
      </trkpt>
      <trkpt lat="46.93455" lon="-0.86598">
        <ele>143.37</ele>
        <time>2021-05-13T08:29:27Z</time>
      </trkpt>
      <trkpt lat="46.93453" lon="-0.86606">
        <ele>142.89</ele>
        <time>2021-05-13T08:29:31Z</time>
      </trkpt>
      <trkpt lat="46.93447" lon="-0.86633">
        <ele>140.49</ele>
        <time>2021-05-13T08:29:47Z</time>
      </trkpt>
      <trkpt lat="46.93443" lon="-0.86659">
        <ele>137.13</ele>
        <time>2021-05-13T08:30:01Z</time>
      </trkpt>
      <trkpt lat="46.93435" lon="-0.86687">
        <ele>134.24</ele>
        <time>2021-05-13T08:30:17Z</time>
      </trkpt>
      <trkpt lat="46.93427" lon="-0.86714">
        <ele>131.36</ele>
        <time>2021-05-13T08:30:32Z</time>
      </trkpt>
      <trkpt lat="46.9342" lon="-0.86744">
        <ele>128.95</ele>
        <time>2021-05-13T08:30:49Z</time>
      </trkpt>
      <trkpt lat="46.93419" lon="-0.86751">
        <ele>127.99</ele>
        <time>2021-05-13T08:30:53Z</time>
      </trkpt>
      <trkpt lat="46.93409" lon="-0.86783">
        <ele>125.59</ele>
        <time>2021-05-13T08:31:11Z</time>
      </trkpt>
      <trkpt lat="46.93396" lon="-0.86808">
        <ele>123.67</ele>
        <time>2021-05-13T08:31:28Z</time>
      </trkpt>
      <trkpt lat="46.9338" lon="-0.86831">
        <ele>122.71</ele>
        <time>2021-05-13T08:31:45Z</time>
      </trkpt>
      <trkpt lat="46.93364" lon="-0.8685">
        <ele>121.74</ele>
        <time>2021-05-13T08:32:02Z</time>
      </trkpt>
      <trkpt lat="46.93355" lon="-0.86865">
        <ele>120.78</ele>
        <time>2021-05-13T08:32:18Z</time>
      </trkpt>
      <trkpt lat="46.93356" lon="-0.86872">
        <ele>119.82</ele>
        <time>2021-05-13T08:32:33Z</time>
      </trkpt>
      <trkpt lat="46.93362" lon="-0.86863">
        <ele>119.82</ele>
        <time>2021-05-13T08:32:50Z</time>
      </trkpt>
      <trkpt lat="46.93365" lon="-0.86865">
        <ele>119.82</ele>
        <time>2021-05-13T08:33:18Z</time>
      </trkpt>
      <trkpt lat="46.93362" lon="-0.86867">
        <ele>119.34</ele>
        <time>2021-05-13T08:33:33Z</time>
      </trkpt>
      <trkpt lat="46.93359" lon="-0.86867">
        <ele>119.34</ele>
        <time>2021-05-13T08:33:58Z</time>
      </trkpt>
      <trkpt lat="46.93357" lon="-0.8687">
        <ele>119.34</ele>
        <time>2021-05-13T08:34:31Z</time>
      </trkpt>
      <trkpt lat="46.93363" lon="-0.86866">
        <ele>119.34</ele>
        <time>2021-05-13T08:35:02Z</time>
      </trkpt>
      <trkpt lat="46.9336" lon="-0.86868">
        <ele>119.34</ele>
        <time>2021-05-13T08:35:35Z</time>
      </trkpt>
      <trkpt lat="46.93362" lon="-0.86867">
        <ele>119.34</ele>
        <time>2021-05-13T08:36:01Z</time>
      </trkpt>
      <trkpt lat="46.93358" lon="-0.86868">
        <ele>119.82</ele>
        <time>2021-05-13T08:36:38Z</time>
      </trkpt>
      <trkpt lat="46.93361" lon="-0.86866">
        <ele>119.82</ele>
        <time>2021-05-13T08:37:10Z</time>
      </trkpt>
      <trkpt lat="46.93359" lon="-0.86873">
        <ele>119.82</ele>
        <time>2021-05-13T08:37:43Z</time>
      </trkpt>
      <trkpt lat="46.93361" lon="-0.86871">
        <ele>119.82</ele>
        <time>2021-05-13T08:38:12Z</time>
      </trkpt>
      <trkpt lat="46.93363" lon="-0.86872">
        <ele>119.82</ele>
        <time>2021-05-13T08:38:43Z</time>
      </trkpt>
      <trkpt lat="46.93357" lon="-0.86872">
        <ele>120.3</ele>
        <time>2021-05-13T08:39:10Z</time>
      </trkpt>
      <trkpt lat="46.93356" lon="-0.86875">
        <ele>120.3</ele>
        <time>2021-05-13T08:39:41Z</time>
      </trkpt>
      <trkpt lat="46.9336" lon="-0.86872">
        <ele>120.78</ele>
        <time>2021-05-13T08:40:15Z</time>
      </trkpt>
      <trkpt lat="46.93363" lon="-0.86869">
        <ele>122.22</ele>
        <time>2021-05-13T08:40:50Z</time>
      </trkpt>
      <trkpt lat="46.93363" lon="-0.86868">
        <ele>122.22</ele>
        <time>2021-05-13T08:41:21Z</time>
      </trkpt>
      <trkpt lat="46.93363" lon="-0.86872">
        <ele>122.22</ele>
        <time>2021-05-13T08:41:50Z</time>
      </trkpt>
      <trkpt lat="46.93363" lon="-0.86874">
        <ele>122.22</ele>
        <time>2021-05-13T08:42:16Z</time>
      </trkpt>
      <trkpt lat="46.9336" lon="-0.86875">
        <ele>122.22</ele>
        <time>2021-05-13T08:42:50Z</time>
      </trkpt>
      <trkpt lat="46.93359" lon="-0.86878">
        <ele>122.71</ele>
        <time>2021-05-13T08:43:24Z</time>
      </trkpt>
      <trkpt lat="46.9336" lon="-0.86875">
        <ele>122.71</ele>
        <time>2021-05-13T08:43:53Z</time>
      </trkpt>
      <trkpt lat="46.93362" lon="-0.86871">
        <ele>122.71</ele>
        <time>2021-05-13T08:44:13Z</time>
      </trkpt>
      <trkpt lat="46.93366" lon="-0.86869">
        <ele>122.71</ele>
        <time>2021-05-13T08:44:28Z</time>
      </trkpt>
      <trkpt lat="46.93368" lon="-0.86867">
        <ele>121.74</ele>
        <time>2021-05-13T08:44:34Z</time>
      </trkpt>
      <trkpt lat="46.93372" lon="-0.86864">
        <ele>121.74</ele>
        <time>2021-05-13T08:44:59Z</time>
      </trkpt>
      <trkpt lat="46.93376" lon="-0.86865">
        <ele>122.71</ele>
        <time>2021-05-13T08:45:15Z</time>
      </trkpt>
      <trkpt lat="46.93379" lon="-0.86865">
        <ele>122.71</ele>
        <time>2021-05-13T08:45:40Z</time>
      </trkpt>
      <trkpt lat="46.93366" lon="-0.86866">
        <ele>122.71</ele>
        <time>2021-05-13T08:46:05Z</time>
      </trkpt>
      <trkpt lat="46.93357" lon="-0.86873">
        <ele>122.71</ele>
        <time>2021-05-13T08:46:20Z</time>
      </trkpt>
      <trkpt lat="46.93353" lon="-0.86875">
        <ele>122.71</ele>
        <time>2021-05-13T08:46:41Z</time>
      </trkpt>
      <trkpt lat="46.93346" lon="-0.86864">
        <ele>123.19</ele>
        <time>2021-05-13T08:46:57Z</time>
      </trkpt>
      <trkpt lat="46.93336" lon="-0.86864">
        <ele>123.19</ele>
        <time>2021-05-13T08:47:13Z</time>
      </trkpt>
      <trkpt lat="46.93321" lon="-0.86857">
        <ele>123.19</ele>
        <time>2021-05-13T08:47:24Z</time>
      </trkpt>
      <trkpt lat="46.93301" lon="-0.86855">
        <ele>121.74</ele>
        <time>2021-05-13T08:47:38Z</time>
      </trkpt>
      <trkpt lat="46.93293" lon="-0.86856">
        <ele>121.74</ele>
        <time>2021-05-13T08:47:44Z</time>
      </trkpt>
      <trkpt lat="46.93287" lon="-0.86854">
        <ele>121.74</ele>
        <time>2021-05-13T08:47:48Z</time>
      </trkpt>
      <trkpt lat="46.93265" lon="-0.86851">
        <ele>121.74</ele>
        <time>2021-05-13T08:48:07Z</time>
      </trkpt>
      <trkpt lat="46.93246" lon="-0.86854">
        <ele>123.19</ele>
        <time>2021-05-13T08:48:22Z</time>
      </trkpt>
      <trkpt lat="46.9324" lon="-0.86853">
        <ele>123.67</ele>
        <time>2021-05-13T08:48:27Z</time>
      </trkpt>
      <trkpt lat="46.93234" lon="-0.86853">
        <ele>124.15</ele>
        <time>2021-05-13T08:48:44Z</time>
      </trkpt>
      <trkpt lat="46.93226" lon="-0.8685">
        <ele>125.11</ele>
        <time>2021-05-13T08:48:57Z</time>
      </trkpt>
      <trkpt lat="46.93213" lon="-0.8685">
        <ele>127.03</ele>
        <time>2021-05-13T08:49:10Z</time>
      </trkpt>
      <trkpt lat="46.93205" lon="-0.86848">
        <ele>128.95</ele>
        <time>2021-05-13T08:49:23Z</time>
      </trkpt>
      <trkpt lat="46.93187" lon="-0.86838">
        <ele>130.4</ele>
        <time>2021-05-13T08:49:40Z</time>
      </trkpt>
      <trkpt lat="46.93171" lon="-0.86832">
        <ele>130.88</ele>
        <time>2021-05-13T08:49:54Z</time>
      </trkpt>
      <trkpt lat="46.93168" lon="-0.86833">
        <ele>130.88</ele>
        <time>2021-05-13T08:49:57Z</time>
      </trkpt>
      <trkpt lat="46.93155" lon="-0.86834">
        <ele>128.95</ele>
        <time>2021-05-13T08:50:11Z</time>
      </trkpt>
      <trkpt lat="46.93141" lon="-0.86828">
        <ele>127.51</ele>
        <time>2021-05-13T08:50:27Z</time>
      </trkpt>
      <trkpt lat="46.93134" lon="-0.86811">
        <ele>127.51</ele>
        <time>2021-05-13T08:50:41Z</time>
      </trkpt>
      <trkpt lat="46.93135" lon="-0.86804">
        <ele>127.51</ele>
        <time>2021-05-13T08:50:47Z</time>
      </trkpt>
      <trkpt lat="46.93139" lon="-0.86798">
        <ele>128.47</ele>
        <time>2021-05-13T08:50:54Z</time>
      </trkpt>
      <trkpt lat="46.93136" lon="-0.86779">
        <ele>127.99</ele>
        <time>2021-05-13T08:51:09Z</time>
      </trkpt>
      <trkpt lat="46.93127" lon="-0.86762">
        <ele>127.51</ele>
        <time>2021-05-13T08:51:23Z</time>
      </trkpt>
      <trkpt lat="46.93126" lon="-0.86757">
        <ele>127.51</ele>
        <time>2021-05-13T08:51:27Z</time>
      </trkpt>
      <trkpt lat="46.93116" lon="-0.86725">
        <ele>126.07</ele>
        <time>2021-05-13T08:51:46Z</time>
      </trkpt>
      <trkpt lat="46.9311" lon="-0.86701">
        <ele>126.07</ele>
        <time>2021-05-13T08:52:01Z</time>
      </trkpt>
      <trkpt lat="46.93099" lon="-0.86668">
        <ele>126.07</ele>
        <time>2021-05-13T08:52:18Z</time>
      </trkpt>
      <trkpt lat="46.93088" lon="-0.86643">
        <ele>125.59</ele>
        <time>2021-05-13T08:52:36Z</time>
      </trkpt>
      <trkpt lat="46.93083" lon="-0.86631">
        <ele>125.11</ele>
        <time>2021-05-13T08:52:44Z</time>
      </trkpt>
      <trkpt lat="46.93073" lon="-0.86596">
        <ele>125.11</ele>
        <time>2021-05-13T08:53:02Z</time>
      </trkpt>
      <trkpt lat="46.93063" lon="-0.8657">
        <ele>126.55</ele>
        <time>2021-05-13T08:53:19Z</time>
      </trkpt>
      <trkpt lat="46.93051" lon="-0.86573">
        <ele>126.07</ele>
        <time>2021-05-13T08:53:34Z</time>
      </trkpt>
      <trkpt lat="46.9305" lon="-0.86574">
        <ele>126.07</ele>
        <time>2021-05-13T08:53:35Z</time>
      </trkpt>
      <trkpt lat="46.93044" lon="-0.86576">
        <ele>125.11</ele>
        <time>2021-05-13T08:53:40Z</time>
      </trkpt>
      <trkpt lat="46.93026" lon="-0.86586">
        <ele>123.67</ele>
        <time>2021-05-13T08:53:56Z</time>
      </trkpt>
      <trkpt lat="46.93003" lon="-0.86599">
        <ele>123.19</ele>
        <time>2021-05-13T08:54:15Z</time>
      </trkpt>
      <trkpt lat="46.92982" lon="-0.86612">
        <ele>122.22</ele>
        <time>2021-05-13T08:54:32Z</time>
      </trkpt>
      <trkpt lat="46.92977" lon="-0.86613">
        <ele>121.74</ele>
        <time>2021-05-13T08:54:36Z</time>
      </trkpt>
      <trkpt lat="46.92958" lon="-0.86595">
        <ele>122.22</ele>
        <time>2021-05-13T08:54:53Z</time>
      </trkpt>
      <trkpt lat="46.9294" lon="-0.86579">
        <ele>122.22</ele>
        <time>2021-05-13T08:55:09Z</time>
      </trkpt>
      <trkpt lat="46.92915" lon="-0.86556">
        <ele>123.19</ele>
        <time>2021-05-13T08:55:32Z</time>
      </trkpt>
      <trkpt lat="46.92898" lon="-0.86538">
        <ele>125.11</ele>
        <time>2021-05-13T08:55:48Z</time>
      </trkpt>
      <trkpt lat="46.92883" lon="-0.86524">
        <ele>126.07</ele>
        <time>2021-05-13T08:56:04Z</time>
      </trkpt>
      <trkpt lat="46.92869" lon="-0.86526">
        <ele>128.95</ele>
        <time>2021-05-13T08:56:22Z</time>
      </trkpt>
      <trkpt lat="46.92857" lon="-0.86537">
        <ele>132.32</ele>
        <time>2021-05-13T08:56:36Z</time>
      </trkpt>
      <trkpt lat="46.92848" lon="-0.86545">
        <ele>135.2</ele>
        <time>2021-05-13T08:56:51Z</time>
      </trkpt>
      <trkpt lat="46.92837" lon="-0.86556">
        <ele>137.61</ele>
        <time>2021-05-13T08:57:06Z</time>
      </trkpt>
      <trkpt lat="46.92827" lon="-0.86566">
        <ele>140.49</ele>
        <time>2021-05-13T08:57:23Z</time>
      </trkpt>
      <trkpt lat="46.92815" lon="-0.86583">
        <ele>143.37</ele>
        <time>2021-05-13T08:57:40Z</time>
      </trkpt>
      <trkpt lat="46.92805" lon="-0.86598">
        <ele>145.3</ele>
        <time>2021-05-13T08:57:56Z</time>
      </trkpt>
      <trkpt lat="46.92796" lon="-0.86601">
        <ele>147.22</ele>
        <time>2021-05-13T08:58:09Z</time>
      </trkpt>
      <trkpt lat="46.92787" lon="-0.86598">
        <ele>150.58</ele>
        <time>2021-05-13T08:58:23Z</time>
      </trkpt>
      <trkpt lat="46.92776" lon="-0.86588">
        <ele>152.51</ele>
        <time>2021-05-13T08:58:39Z</time>
      </trkpt>
      <trkpt lat="46.92764" lon="-0.86583">
        <ele>154.91</ele>
        <time>2021-05-13T08:58:54Z</time>
      </trkpt>
      <trkpt lat="46.92749" lon="-0.86582">
        <ele>157.31</ele>
        <time>2021-05-13T08:59:12Z</time>
      </trkpt>
      <trkpt lat="46.9274" lon="-0.86576">
        <ele>159.24</ele>
        <time>2021-05-13T08:59:21Z</time>
      </trkpt>
      <trkpt lat="46.92721" lon="-0.86569">
        <ele>161.64</ele>
        <time>2021-05-13T08:59:42Z</time>
      </trkpt>
      <trkpt lat="46.92707" lon="-0.86573">
        <ele>164.52</ele>
        <time>2021-05-13T08:59:58Z</time>
      </trkpt>
      <trkpt lat="46.92701" lon="-0.86571">
        <ele>165</ele>
        <time>2021-05-13T09:00:09Z</time>
      </trkpt>
      <trkpt lat="46.927" lon="-0.86568">
        <ele>165</ele>
        <time>2021-05-13T09:00:28Z</time>
      </trkpt>
      <trkpt lat="46.92698" lon="-0.86569">
        <ele>165</ele>
        <time>2021-05-13T09:00:33Z</time>
      </trkpt>
      <trkpt lat="46.92686" lon="-0.86578">
        <ele>165.96</ele>
        <time>2021-05-13T09:00:49Z</time>
      </trkpt>
      <trkpt lat="46.92682" lon="-0.86581">
        <ele>166.45</ele>
        <time>2021-05-13T09:00:54Z</time>
      </trkpt>
      <trkpt lat="46.92666" lon="-0.86599">
        <ele>166.93</ele>
        <time>2021-05-13T09:01:12Z</time>
      </trkpt>
      <trkpt lat="46.92656" lon="-0.86606">
        <ele>167.89</ele>
        <time>2021-05-13T09:01:25Z</time>
      </trkpt>
      <trkpt lat="46.92636" lon="-0.86615">
        <ele>168.85</ele>
        <time>2021-05-13T09:01:42Z</time>
      </trkpt>
      <trkpt lat="46.92614" lon="-0.86618">
        <ele>170.77</ele>
        <time>2021-05-13T09:02:00Z</time>
      </trkpt>
      <trkpt lat="46.92603" lon="-0.86622">
        <ele>170.77</ele>
        <time>2021-05-13T09:02:09Z</time>
      </trkpt>
      <trkpt lat="46.92578" lon="-0.86621">
        <ele>171.73</ele>
        <time>2021-05-13T09:02:30Z</time>
      </trkpt>
      <trkpt lat="46.9256" lon="-0.86628">
        <ele>172.69</ele>
        <time>2021-05-13T09:02:49Z</time>
      </trkpt>
      <trkpt lat="46.92559" lon="-0.86628">
        <ele>172.69</ele>
        <time>2021-05-13T09:02:50Z</time>
      </trkpt>
      <trkpt lat="46.92542" lon="-0.86634">
        <ele>173.17</ele>
        <time>2021-05-13T09:03:05Z</time>
      </trkpt>
      <trkpt lat="46.92519" lon="-0.86635">
        <ele>174.14</ele>
        <time>2021-05-13T09:03:22Z</time>
      </trkpt>
      <trkpt lat="46.92497" lon="-0.86629">
        <ele>176.06</ele>
        <time>2021-05-13T09:03:40Z</time>
      </trkpt>
      <trkpt lat="46.92478" lon="-0.86631">
        <ele>178.46</ele>
        <time>2021-05-13T09:03:57Z</time>
      </trkpt>
      <trkpt lat="46.9246" lon="-0.86628">
        <ele>181.35</ele>
        <time>2021-05-13T09:04:15Z</time>
      </trkpt>
      <trkpt lat="46.92443" lon="-0.86631">
        <ele>182.31</ele>
        <time>2021-05-13T09:04:31Z</time>
      </trkpt>
      <trkpt lat="46.92427" lon="-0.86633">
        <ele>183.75</ele>
        <time>2021-05-13T09:04:45Z</time>
      </trkpt>
      <trkpt lat="46.92425" lon="-0.86632">
        <ele>184.23</ele>
        <time>2021-05-13T09:04:47Z</time>
      </trkpt>
      <trkpt lat="46.92402" lon="-0.86625">
        <ele>184.71</ele>
        <time>2021-05-13T09:05:05Z</time>
      </trkpt>
      <trkpt lat="46.92381" lon="-0.86612">
        <ele>186.15</ele>
        <time>2021-05-13T09:05:23Z</time>
      </trkpt>
      <trkpt lat="46.92378" lon="-0.86609">
        <ele>186.63</ele>
        <time>2021-05-13T09:05:27Z</time>
      </trkpt>
      <trkpt lat="46.92363" lon="-0.86586">
        <ele>188.08</ele>
        <time>2021-05-13T09:05:45Z</time>
      </trkpt>
      <trkpt lat="46.92362" lon="-0.86585">
        <ele>188.08</ele>
        <time>2021-05-13T09:05:46Z</time>
      </trkpt>
      <trkpt lat="46.92345" lon="-0.8659">
        <ele>188.08</ele>
        <time>2021-05-13T09:06:03Z</time>
      </trkpt>
      <trkpt lat="46.92339" lon="-0.86593">
        <ele>187.11</ele>
        <time>2021-05-13T09:06:09Z</time>
      </trkpt>
      <trkpt lat="46.9233" lon="-0.86596">
        <ele>188.08</ele>
        <time>2021-05-13T09:06:17Z</time>
      </trkpt>
      <trkpt lat="46.92312" lon="-0.86602">
        <ele>188.08</ele>
        <time>2021-05-13T09:06:33Z</time>
      </trkpt>
      <trkpt lat="46.9229" lon="-0.86605">
        <ele>188.08</ele>
        <time>2021-05-13T09:06:51Z</time>
      </trkpt>
      <trkpt lat="46.92269" lon="-0.86615">
        <ele>187.11</ele>
        <time>2021-05-13T09:07:08Z</time>
      </trkpt>
      <trkpt lat="46.92246" lon="-0.86631">
        <ele>185.67</ele>
        <time>2021-05-13T09:07:27Z</time>
      </trkpt>
      <trkpt lat="46.92225" lon="-0.86644">
        <ele>185.19</ele>
        <time>2021-05-13T09:07:45Z</time>
      </trkpt>
      <trkpt lat="46.92209" lon="-0.86651">
        <ele>184.71</ele>
        <time>2021-05-13T09:08:00Z</time>
      </trkpt>
      <trkpt lat="46.92196" lon="-0.86658">
        <ele>184.23</ele>
        <time>2021-05-13T09:08:11Z</time>
      </trkpt>
      <trkpt lat="46.92187" lon="-0.8666">
        <ele>183.27</ele>
        <time>2021-05-13T09:08:19Z</time>
      </trkpt>
      <trkpt lat="46.9217" lon="-0.86664">
        <ele>182.79</ele>
        <time>2021-05-13T09:08:33Z</time>
      </trkpt>
      <trkpt lat="46.92149" lon="-0.86665">
        <ele>182.31</ele>
        <time>2021-05-13T09:08:51Z</time>
      </trkpt>
      <trkpt lat="46.92129" lon="-0.86663">
        <ele>181.83</ele>
        <time>2021-05-13T09:09:09Z</time>
      </trkpt>
      <trkpt lat="46.92105" lon="-0.86661">
        <ele>179.9</ele>
        <time>2021-05-13T09:09:27Z</time>
      </trkpt>
      <trkpt lat="46.92089" lon="-0.86659">
        <ele>178.94</ele>
        <time>2021-05-13T09:09:41Z</time>
      </trkpt>
      <trkpt lat="46.92069" lon="-0.86653">
        <ele>178.46</ele>
        <time>2021-05-13T09:09:58Z</time>
      </trkpt>
      <trkpt lat="46.92053" lon="-0.86649">
        <ele>178.46</ele>
        <time>2021-05-13T09:10:12Z</time>
      </trkpt>
      <trkpt lat="46.92036" lon="-0.8665">
        <ele>177.98</ele>
        <time>2021-05-13T09:10:24Z</time>
      </trkpt>
      <trkpt lat="46.92013" lon="-0.86652">
        <ele>177.5</ele>
        <time>2021-05-13T09:10:38Z</time>
      </trkpt>
      <trkpt lat="46.91988" lon="-0.86648">
        <ele>176.06</ele>
        <time>2021-05-13T09:10:57Z</time>
      </trkpt>
      <trkpt lat="46.91971" lon="-0.86646">
        <ele>175.58</ele>
        <time>2021-05-13T09:11:13Z</time>
      </trkpt>
      <trkpt lat="46.91956" lon="-0.86645">
        <ele>174.14</ele>
        <time>2021-05-13T09:11:25Z</time>
      </trkpt>
      <trkpt lat="46.91949" lon="-0.86644">
        <ele>174.14</ele>
        <time>2021-05-13T09:11:30Z</time>
      </trkpt>
      <trkpt lat="46.91932" lon="-0.8664">
        <ele>173.66</ele>
        <time>2021-05-13T09:11:45Z</time>
      </trkpt>
      <trkpt lat="46.91929" lon="-0.8664">
        <ele>173.66</ele>
        <time>2021-05-13T09:12:00Z</time>
      </trkpt>
      <trkpt lat="46.91931" lon="-0.86641">
        <ele>173.66</ele>
        <time>2021-05-13T09:12:15Z</time>
      </trkpt>
      <trkpt lat="46.9193" lon="-0.86642">
        <ele>173.66</ele>
        <time>2021-05-13T09:12:49Z</time>
      </trkpt>
      <trkpt lat="46.91929" lon="-0.86643">
        <ele>173.66</ele>
        <time>2021-05-13T09:13:10Z</time>
      </trkpt>
      <trkpt lat="46.91917" lon="-0.86641">
        <ele>172.69</ele>
        <time>2021-05-13T09:13:30Z</time>
      </trkpt>
      <trkpt lat="46.91896" lon="-0.86648">
        <ele>169.81</ele>
        <time>2021-05-13T09:13:49Z</time>
      </trkpt>
      <trkpt lat="46.91878" lon="-0.86646">
        <ele>166.93</ele>
        <time>2021-05-13T09:14:04Z</time>
      </trkpt>
      <trkpt lat="46.91859" lon="-0.86641">
        <ele>165.96</ele>
        <time>2021-05-13T09:14:20Z</time>
      </trkpt>
      <trkpt lat="46.91855" lon="-0.8664">
        <ele>165.96</ele>
        <time>2021-05-13T09:14:25Z</time>
      </trkpt>
      <trkpt lat="46.91852" lon="-0.86642">
        <ele>165</ele>
        <time>2021-05-13T09:14:29Z</time>
      </trkpt>
      <trkpt lat="46.91843" lon="-0.86641">
        <ele>165.48</ele>
        <time>2021-05-13T09:14:39Z</time>
      </trkpt>
      <trkpt lat="46.91823" lon="-0.86637">
        <ele>164.04</ele>
        <time>2021-05-13T09:14:55Z</time>
      </trkpt>
      <trkpt lat="46.91803" lon="-0.8663">
        <ele>163.08</ele>
        <time>2021-05-13T09:15:12Z</time>
      </trkpt>
      <trkpt lat="46.91784" lon="-0.86624">
        <ele>162.6</ele>
        <time>2021-05-13T09:15:28Z</time>
      </trkpt>
      <trkpt lat="46.91763" lon="-0.86617">
        <ele>162.12</ele>
        <time>2021-05-13T09:15:45Z</time>
      </trkpt>
      <trkpt lat="46.9174" lon="-0.86603">
        <ele>160.68</ele>
        <time>2021-05-13T09:16:04Z</time>
      </trkpt>
      <trkpt lat="46.91734" lon="-0.86601">
        <ele>160.68</ele>
        <time>2021-05-13T09:16:10Z</time>
      </trkpt>
      <trkpt lat="46.91714" lon="-0.86582">
        <ele>159.24</ele>
        <time>2021-05-13T09:16:30Z</time>
      </trkpt>
      <trkpt lat="46.91707" lon="-0.86576">
        <ele>157.79</ele>
        <time>2021-05-13T09:16:44Z</time>
      </trkpt>
      <trkpt lat="46.91697" lon="-0.86568">
        <ele>156.35</ele>
        <time>2021-05-13T09:16:58Z</time>
      </trkpt>
      <trkpt lat="46.91681" lon="-0.86555">
        <ele>153.95</ele>
        <time>2021-05-13T09:17:15Z</time>
      </trkpt>
      <trkpt lat="46.91666" lon="-0.86545">
        <ele>153.47</ele>
        <time>2021-05-13T09:17:31Z</time>
      </trkpt>
      <trkpt lat="46.91643" lon="-0.8653">
        <ele>152.99</ele>
        <time>2021-05-13T09:17:48Z</time>
      </trkpt>
      <trkpt lat="46.91625" lon="-0.86504">
        <ele>152.51</ele>
        <time>2021-05-13T09:18:06Z</time>
      </trkpt>
      <trkpt lat="46.9162" lon="-0.86502">
        <ele>152.03</ele>
        <time>2021-05-13T09:18:11Z</time>
      </trkpt>
      <trkpt lat="46.91596" lon="-0.86519">
        <ele>150.1</ele>
        <time>2021-05-13T09:18:34Z</time>
      </trkpt>
      <trkpt lat="46.91579" lon="-0.8653">
        <ele>150.58</ele>
        <time>2021-05-13T09:18:49Z</time>
      </trkpt>
      <trkpt lat="46.91558" lon="-0.86539">
        <ele>149.14</ele>
        <time>2021-05-13T09:19:05Z</time>
      </trkpt>
      <trkpt lat="46.91542" lon="-0.86552">
        <ele>149.14</ele>
        <time>2021-05-13T09:19:19Z</time>
      </trkpt>
      <trkpt lat="46.91524" lon="-0.86568">
        <ele>148.18</ele>
        <time>2021-05-13T09:19:36Z</time>
      </trkpt>
      <trkpt lat="46.91504" lon="-0.86583">
        <ele>147.7</ele>
        <time>2021-05-13T09:19:54Z</time>
      </trkpt>
      <trkpt lat="46.91483" lon="-0.86598">
        <ele>146.74</ele>
        <time>2021-05-13T09:20:14Z</time>
      </trkpt>
      <trkpt lat="46.91466" lon="-0.86611">
        <ele>146.74</ele>
        <time>2021-05-13T09:20:36Z</time>
      </trkpt>
      <trkpt lat="46.91444" lon="-0.86626">
        <ele>145.78</ele>
        <time>2021-05-13T09:20:58Z</time>
      </trkpt>
      <trkpt lat="46.9142" lon="-0.86646">
        <ele>143.85</ele>
        <time>2021-05-13T09:21:19Z</time>
      </trkpt>
      <trkpt lat="46.914" lon="-0.86662">
        <ele>143.37</ele>
        <time>2021-05-13T09:21:36Z</time>
      </trkpt>
      <trkpt lat="46.91385" lon="-0.86671">
        <ele>143.37</ele>
        <time>2021-05-13T09:21:48Z</time>
      </trkpt>
      <trkpt lat="46.91375" lon="-0.8666">
        <ele>143.37</ele>
        <time>2021-05-13T09:21:57Z</time>
      </trkpt>
      <trkpt lat="46.91353" lon="-0.8664">
        <ele>142.41</ele>
        <time>2021-05-13T09:22:17Z</time>
      </trkpt>
      <trkpt lat="46.91329" lon="-0.8662">
        <ele>141.45</ele>
        <time>2021-05-13T09:22:38Z</time>
      </trkpt>
      <trkpt lat="46.91313" lon="-0.866">
        <ele>139.05</ele>
        <time>2021-05-13T09:22:57Z</time>
      </trkpt>
      <trkpt lat="46.913" lon="-0.86591">
        <ele>138.09</ele>
        <time>2021-05-13T09:23:12Z</time>
      </trkpt>
      <trkpt lat="46.91282" lon="-0.86576">
        <ele>135.2</ele>
        <time>2021-05-13T09:23:30Z</time>
      </trkpt>
      <trkpt lat="46.91266" lon="-0.86559">
        <ele>133.76</ele>
        <time>2021-05-13T09:23:44Z</time>
      </trkpt>
      <trkpt lat="46.91252" lon="-0.86544">
        <ele>133.28</ele>
        <time>2021-05-13T09:23:58Z</time>
      </trkpt>
      <trkpt lat="46.91232" lon="-0.86534">
        <ele>134.72</ele>
        <time>2021-05-13T09:24:17Z</time>
      </trkpt>
      <trkpt lat="46.91219" lon="-0.86536">
        <ele>135.68</ele>
        <time>2021-05-13T09:24:28Z</time>
      </trkpt>
      <trkpt lat="46.9121" lon="-0.86538">
        <ele>135.68</ele>
        <time>2021-05-13T09:24:39Z</time>
      </trkpt>
      <trkpt lat="46.91197" lon="-0.86534">
        <ele>137.13</ele>
        <time>2021-05-13T09:24:53Z</time>
      </trkpt>
      <trkpt lat="46.91185" lon="-0.86527">
        <ele>140.01</ele>
        <time>2021-05-13T09:25:10Z</time>
      </trkpt>
      <trkpt lat="46.91192" lon="-0.86514">
        <ele>141.93</ele>
        <time>2021-05-13T09:25:29Z</time>
      </trkpt>
      <trkpt lat="46.91193" lon="-0.86511">
        <ele>142.41</ele>
        <time>2021-05-13T09:25:31Z</time>
      </trkpt>
      <trkpt lat="46.91193" lon="-0.86509">
        <ele>142.89</ele>
        <time>2021-05-13T09:25:32Z</time>
      </trkpt>
      <trkpt lat="46.91194" lon="-0.86507">
        <ele>142.89</ele>
        <time>2021-05-13T09:25:33Z</time>
      </trkpt>
      <trkpt lat="46.91199" lon="-0.86484">
        <ele>144.34</ele>
        <time>2021-05-13T09:25:49Z</time>
      </trkpt>
      <trkpt lat="46.91199" lon="-0.86483">
        <ele>144.34</ele>
        <time>2021-05-13T09:25:50Z</time>
      </trkpt>
      <trkpt lat="46.91205" lon="-0.86463">
        <ele>145.3</ele>
        <time>2021-05-13T09:26:01Z</time>
      </trkpt>
      <trkpt lat="46.91205" lon="-0.86462">
        <ele>145.78</ele>
        <time>2021-05-13T09:26:02Z</time>
      </trkpt>
      <trkpt lat="46.91206" lon="-0.86445">
        <ele>147.7</ele>
        <time>2021-05-13T09:26:15Z</time>
      </trkpt>
      <trkpt lat="46.91205" lon="-0.86424">
        <ele>148.66</ele>
        <time>2021-05-13T09:26:32Z</time>
      </trkpt>
      <trkpt lat="46.91203" lon="-0.86402">
        <ele>149.14</ele>
        <time>2021-05-13T09:26:45Z</time>
      </trkpt>
      <trkpt lat="46.91191" lon="-0.86391">
        <ele>149.62</ele>
        <time>2021-05-13T09:27:00Z</time>
      </trkpt>
      <trkpt lat="46.91175" lon="-0.86387">
        <ele>150.1</ele>
        <time>2021-05-13T09:27:16Z</time>
      </trkpt>
      <trkpt lat="46.91171" lon="-0.86387">
        <ele>150.1</ele>
        <time>2021-05-13T09:27:19Z</time>
      </trkpt>
      <trkpt lat="46.91168" lon="-0.86387">
        <ele>150.1</ele>
        <time>2021-05-13T09:27:21Z</time>
      </trkpt>
      <trkpt lat="46.91167" lon="-0.86387">
        <ele>150.1</ele>
        <time>2021-05-13T09:27:22Z</time>
      </trkpt>
      <trkpt lat="46.91138" lon="-0.86398">
        <ele>147.7</ele>
        <time>2021-05-13T09:27:44Z</time>
      </trkpt>
      <trkpt lat="46.91124" lon="-0.8641">
        <ele>147.22</ele>
        <time>2021-05-13T09:28:01Z</time>
      </trkpt>
      <trkpt lat="46.91123" lon="-0.8641">
        <ele>147.22</ele>
        <time>2021-05-13T09:28:02Z</time>
      </trkpt>
      <trkpt lat="46.91122" lon="-0.86409">
        <ele>147.22</ele>
        <time>2021-05-13T09:28:03Z</time>
      </trkpt>
      <trkpt lat="46.91106" lon="-0.86383">
        <ele>147.7</ele>
        <time>2021-05-13T09:28:21Z</time>
      </trkpt>
      <trkpt lat="46.91097" lon="-0.8638">
        <ele>147.7</ele>
        <time>2021-05-13T09:28:37Z</time>
      </trkpt>
      <trkpt lat="46.91095" lon="-0.86389">
        <ele>146.26</ele>
        <time>2021-05-13T09:28:55Z</time>
      </trkpt>
      <trkpt lat="46.91095" lon="-0.86391">
        <ele>145.78</ele>
        <time>2021-05-13T09:29:09Z</time>
      </trkpt>
      <trkpt lat="46.91095" lon="-0.86394">
        <ele>145.78</ele>
        <time>2021-05-13T09:29:10Z</time>
      </trkpt>
      <trkpt lat="46.91095" lon="-0.86396">
        <ele>145.78</ele>
        <time>2021-05-13T09:29:11Z</time>
      </trkpt>
      <trkpt lat="46.91095" lon="-0.86398">
        <ele>145.78</ele>
        <time>2021-05-13T09:29:12Z</time>
      </trkpt>
      <trkpt lat="46.911" lon="-0.86426">
        <ele>142.41</ele>
        <time>2021-05-13T09:29:29Z</time>
      </trkpt>
      <trkpt lat="46.91102" lon="-0.86433">
        <ele>141.93</ele>
        <time>2021-05-13T09:29:33Z</time>
      </trkpt>
      <trkpt lat="46.91102" lon="-0.86434">
        <ele>141.93</ele>
        <time>2021-05-13T09:29:34Z</time>
      </trkpt>
      <trkpt lat="46.91104" lon="-0.86455">
        <ele>139.53</ele>
        <time>2021-05-13T09:29:49Z</time>
      </trkpt>
      <trkpt lat="46.91116" lon="-0.86477">
        <ele>136.64</ele>
        <time>2021-05-13T09:30:04Z</time>
      </trkpt>
      <trkpt lat="46.91117" lon="-0.86488">
        <ele>135.2</ele>
        <time>2021-05-13T09:30:13Z</time>
      </trkpt>
      <trkpt lat="46.91118" lon="-0.8649">
        <ele>135.2</ele>
        <time>2021-05-13T09:30:14Z</time>
      </trkpt>
      <trkpt lat="46.91125" lon="-0.86518">
        <ele>131.36</ele>
        <time>2021-05-13T09:30:32Z</time>
      </trkpt>
      <trkpt lat="46.91122" lon="-0.86525">
        <ele>131.36</ele>
        <time>2021-05-13T09:30:36Z</time>
      </trkpt>
      <trkpt lat="46.91119" lon="-0.86529">
        <ele>131.36</ele>
        <time>2021-05-13T09:30:40Z</time>
      </trkpt>
      <trkpt lat="46.91118" lon="-0.8653">
        <ele>131.36</ele>
        <time>2021-05-13T09:30:41Z</time>
      </trkpt>
      <trkpt lat="46.91107" lon="-0.86543">
        <ele>130.4</ele>
        <time>2021-05-13T09:30:57Z</time>
      </trkpt>
      <trkpt lat="46.91092" lon="-0.86565">
        <ele>128.95</ele>
        <time>2021-05-13T09:31:17Z</time>
      </trkpt>
      <trkpt lat="46.9109" lon="-0.86577">
        <ele>127.99</ele>
        <time>2021-05-13T09:31:26Z</time>
      </trkpt>
      <trkpt lat="46.9109" lon="-0.86579">
        <ele>127.99</ele>
        <time>2021-05-13T09:31:27Z</time>
      </trkpt>
      <trkpt lat="46.91092" lon="-0.86586">
        <ele>127.99</ele>
        <time>2021-05-13T09:31:40Z</time>
      </trkpt>
      <trkpt lat="46.91092" lon="-0.86584">
        <ele>129.43</ele>
        <time>2021-05-13T09:32:04Z</time>
      </trkpt>
      <trkpt lat="46.91087" lon="-0.86587">
        <ele>129.43</ele>
        <time>2021-05-13T09:32:33Z</time>
      </trkpt>
      <trkpt lat="46.91078" lon="-0.86597">
        <ele>129.43</ele>
        <time>2021-05-13T09:32:48Z</time>
      </trkpt>
      <trkpt lat="46.91082" lon="-0.86603">
        <ele>129.43</ele>
        <time>2021-05-13T09:33:03Z</time>
      </trkpt>
      <trkpt lat="46.91073" lon="-0.86612">
        <ele>129.43</ele>
        <time>2021-05-13T09:33:22Z</time>
      </trkpt>
      <trkpt lat="46.91062" lon="-0.86642">
        <ele>128.47</ele>
        <time>2021-05-13T09:33:42Z</time>
      </trkpt>
      <trkpt lat="46.91047" lon="-0.86669">
        <ele>127.51</ele>
        <time>2021-05-13T09:34:04Z</time>
      </trkpt>
      <trkpt lat="46.91032" lon="-0.86692">
        <ele>127.51</ele>
        <time>2021-05-13T09:34:25Z</time>
      </trkpt>
      <trkpt lat="46.91021" lon="-0.86713">
        <ele>126.55</ele>
        <time>2021-05-13T09:34:39Z</time>
      </trkpt>
      <trkpt lat="46.91018" lon="-0.86714">
        <ele>126.55</ele>
        <time>2021-05-13T09:34:42Z</time>
      </trkpt>
      <trkpt lat="46.91017" lon="-0.86715">
        <ele>126.55</ele>
        <time>2021-05-13T09:34:43Z</time>
      </trkpt>
      <trkpt lat="46.91016" lon="-0.86715">
        <ele>126.55</ele>
        <time>2021-05-13T09:34:44Z</time>
      </trkpt>
      <trkpt lat="46.91011" lon="-0.86721">
        <ele>127.99</ele>
        <time>2021-05-13T09:34:59Z</time>
      </trkpt>
      <trkpt lat="46.91011" lon="-0.86721">
        <ele>127.99</ele>
        <time>2021-05-13T09:35:00Z</time>
      </trkpt>
      <trkpt lat="46.91007" lon="-0.86731">
        <ele>127.99</ele>
        <time>2021-05-13T09:35:18Z</time>
      </trkpt>
      <trkpt lat="46.91007" lon="-0.86734">
        <ele>127.99</ele>
        <time>2021-05-13T09:35:38Z</time>
      </trkpt>
      <trkpt lat="46.91006" lon="-0.8673">
        <ele>127.51</ele>
        <time>2021-05-13T09:35:58Z</time>
      </trkpt>
      <trkpt lat="46.91002" lon="-0.86725">
        <ele>127.99</ele>
        <time>2021-05-13T09:36:18Z</time>
      </trkpt>
      <trkpt lat="46.90997" lon="-0.86717">
        <ele>127.03</ele>
        <time>2021-05-13T09:36:28Z</time>
      </trkpt>
      <trkpt lat="46.90993" lon="-0.8671">
        <ele>127.03</ele>
        <time>2021-05-13T09:36:38Z</time>
      </trkpt>
      <trkpt lat="46.90974" lon="-0.86694">
        <ele>125.59</ele>
        <time>2021-05-13T09:36:58Z</time>
      </trkpt>
      <trkpt lat="46.90979" lon="-0.86702">
        <ele>125.59</ele>
        <time>2021-05-13T09:37:15Z</time>
      </trkpt>
      <trkpt lat="46.90982" lon="-0.86704">
        <ele>126.55</ele>
        <time>2021-05-13T09:37:32Z</time>
      </trkpt>
      <trkpt lat="46.90983" lon="-0.86703">
        <ele>126.55</ele>
        <time>2021-05-13T09:37:50Z</time>
      </trkpt>
      <trkpt lat="46.90991" lon="-0.86705">
        <ele>127.03</ele>
        <time>2021-05-13T09:38:05Z</time>
      </trkpt>
      <trkpt lat="46.90993" lon="-0.86705">
        <ele>127.03</ele>
        <time>2021-05-13T09:38:09Z</time>
      </trkpt>
      <trkpt lat="46.91005" lon="-0.86725">
        <ele>127.99</ele>
        <time>2021-05-13T09:38:25Z</time>
      </trkpt>
      <trkpt lat="46.90998" lon="-0.86739">
        <ele>128.95</ele>
        <time>2021-05-13T09:38:37Z</time>
      </trkpt>
      <trkpt lat="46.90995" lon="-0.86741">
        <ele>129.43</ele>
        <time>2021-05-13T09:38:40Z</time>
      </trkpt>
      <trkpt lat="46.90993" lon="-0.86741">
        <ele>129.43</ele>
        <time>2021-05-13T09:38:42Z</time>
      </trkpt>
      <trkpt lat="46.90974" lon="-0.86751">
        <ele>131.84</ele>
        <time>2021-05-13T09:39:00Z</time>
      </trkpt>
      <trkpt lat="46.90964" lon="-0.86756">
        <ele>132.8</ele>
        <time>2021-05-13T09:39:11Z</time>
      </trkpt>
      <trkpt lat="46.90947" lon="-0.86764">
        <ele>135.68</ele>
        <time>2021-05-13T09:39:28Z</time>
      </trkpt>
      <trkpt lat="46.90932" lon="-0.86765">
        <ele>139.05</ele>
        <time>2021-05-13T09:39:45Z</time>
      </trkpt>
      <trkpt lat="46.90915" lon="-0.86766">
        <ele>141.45</ele>
        <time>2021-05-13T09:40:01Z</time>
      </trkpt>
      <trkpt lat="46.90899" lon="-0.86769">
        <ele>143.37</ele>
        <time>2021-05-13T09:40:17Z</time>
      </trkpt>
      <trkpt lat="46.90894" lon="-0.86771">
        <ele>144.82</ele>
        <time>2021-05-13T09:40:24Z</time>
      </trkpt>
      <trkpt lat="46.90881" lon="-0.86786">
        <ele>147.22</ele>
        <time>2021-05-13T09:40:40Z</time>
      </trkpt>
      <trkpt lat="46.90866" lon="-0.868">
        <ele>149.62</ele>
        <time>2021-05-13T09:40:58Z</time>
      </trkpt>
      <trkpt lat="46.90851" lon="-0.86814">
        <ele>150.58</ele>
        <time>2021-05-13T09:41:13Z</time>
      </trkpt>
      <trkpt lat="46.90834" lon="-0.86821">
        <ele>152.51</ele>
        <time>2021-05-13T09:41:34Z</time>
      </trkpt>
      <trkpt lat="46.9083" lon="-0.86825">
        <ele>152.99</ele>
        <time>2021-05-13T09:41:39Z</time>
      </trkpt>
      <trkpt lat="46.9081" lon="-0.86834">
        <ele>154.91</ele>
        <time>2021-05-13T09:41:59Z</time>
      </trkpt>
      <trkpt lat="46.90791" lon="-0.86839">
        <ele>157.79</ele>
        <time>2021-05-13T09:42:18Z</time>
      </trkpt>
      <trkpt lat="46.90774" lon="-0.8685">
        <ele>159.72</ele>
        <time>2021-05-13T09:42:37Z</time>
      </trkpt>
      <trkpt lat="46.90758" lon="-0.86859">
        <ele>161.64</ele>
        <time>2021-05-13T09:42:54Z</time>
      </trkpt>
      <trkpt lat="46.90755" lon="-0.8686">
        <ele>162.12</ele>
        <time>2021-05-13T09:42:57Z</time>
      </trkpt>
      <trkpt lat="46.90734" lon="-0.86865">
        <ele>164.04</ele>
        <time>2021-05-13T09:43:16Z</time>
      </trkpt>
      <trkpt lat="46.90732" lon="-0.86867">
        <ele>164.04</ele>
        <time>2021-05-13T09:43:19Z</time>
      </trkpt>
      <trkpt lat="46.90714" lon="-0.86869">
        <ele>165</ele>
        <time>2021-05-13T09:43:37Z</time>
      </trkpt>
      <trkpt lat="46.90695" lon="-0.86872">
        <ele>165.96</ele>
        <time>2021-05-13T09:43:54Z</time>
      </trkpt>
      <trkpt lat="46.90674" lon="-0.86879">
        <ele>168.37</ele>
        <time>2021-05-13T09:44:14Z</time>
      </trkpt>
      <trkpt lat="46.90671" lon="-0.8688">
        <ele>168.85</ele>
        <time>2021-05-13T09:44:16Z</time>
      </trkpt>
      <trkpt lat="46.90649" lon="-0.86887">
        <ele>169.81</ele>
        <time>2021-05-13T09:44:34Z</time>
      </trkpt>
      <trkpt lat="46.90632" lon="-0.86895">
        <ele>170.77</ele>
        <time>2021-05-13T09:44:51Z</time>
      </trkpt>
      <trkpt lat="46.90615" lon="-0.86901">
        <ele>172.21</ele>
        <time>2021-05-13T09:45:07Z</time>
      </trkpt>
      <trkpt lat="46.90591" lon="-0.86911">
        <ele>173.17</ele>
        <time>2021-05-13T09:45:26Z</time>
      </trkpt>
      <trkpt lat="46.90584" lon="-0.86916">
        <ele>173.17</ele>
        <time>2021-05-13T09:45:32Z</time>
      </trkpt>
      <trkpt lat="46.90557" lon="-0.86929">
        <ele>174.62</ele>
        <time>2021-05-13T09:45:52Z</time>
      </trkpt>
      <trkpt lat="46.90543" lon="-0.86935">
        <ele>175.1</ele>
        <time>2021-05-13T09:46:08Z</time>
      </trkpt>
      <trkpt lat="46.90523" lon="-0.86949">
        <ele>175.58</ele>
        <time>2021-05-13T09:46:24Z</time>
      </trkpt>
      <trkpt lat="46.90498" lon="-0.86962">
        <ele>176.06</ele>
        <time>2021-05-13T09:46:46Z</time>
      </trkpt>
      <trkpt lat="46.90475" lon="-0.86978">
        <ele>175.58</ele>
        <time>2021-05-13T09:47:05Z</time>
      </trkpt>
      <trkpt lat="46.90452" lon="-0.8699">
        <ele>176.54</ele>
        <time>2021-05-13T09:47:24Z</time>
      </trkpt>
      <trkpt lat="46.90428" lon="-0.87005">
        <ele>176.54</ele>
        <time>2021-05-13T09:47:46Z</time>
      </trkpt>
      <trkpt lat="46.90403" lon="-0.87024">
        <ele>177.02</ele>
        <time>2021-05-13T09:48:07Z</time>
      </trkpt>
      <trkpt lat="46.90381" lon="-0.87043">
        <ele>177.5</ele>
        <time>2021-05-13T09:48:28Z</time>
      </trkpt>
      <trkpt lat="46.90356" lon="-0.87064">
        <ele>177.98</ele>
        <time>2021-05-13T09:48:51Z</time>
      </trkpt>
      <trkpt lat="46.90331" lon="-0.87087">
        <ele>178.46</ele>
        <time>2021-05-13T09:49:12Z</time>
      </trkpt>
      <trkpt lat="46.90312" lon="-0.87101">
        <ele>178.94</ele>
        <time>2021-05-13T09:49:30Z</time>
      </trkpt>
      <trkpt lat="46.90295" lon="-0.87117">
        <ele>178.94</ele>
        <time>2021-05-13T09:49:46Z</time>
      </trkpt>
      <trkpt lat="46.90277" lon="-0.87135">
        <ele>178.94</ele>
        <time>2021-05-13T09:50:03Z</time>
      </trkpt>
      <trkpt lat="46.9026" lon="-0.87154">
        <ele>178.94</ele>
        <time>2021-05-13T09:50:19Z</time>
      </trkpt>
      <trkpt lat="46.90243" lon="-0.87171">
        <ele>177.98</ele>
        <time>2021-05-13T09:50:35Z</time>
      </trkpt>
      <trkpt lat="46.90228" lon="-0.87195">
        <ele>177.98</ele>
        <time>2021-05-13T09:50:52Z</time>
      </trkpt>
      <trkpt lat="46.90214" lon="-0.87218">
        <ele>177.98</ele>
        <time>2021-05-13T09:51:10Z</time>
      </trkpt>
      <trkpt lat="46.90196" lon="-0.87251">
        <ele>178.94</ele>
        <time>2021-05-13T09:51:29Z</time>
      </trkpt>
      <trkpt lat="46.90187" lon="-0.8727">
        <ele>179.9</ele>
        <time>2021-05-13T09:51:46Z</time>
      </trkpt>
      <trkpt lat="46.9017" lon="-0.87293">
        <ele>180.87</ele>
        <time>2021-05-13T09:52:05Z</time>
      </trkpt>
      <trkpt lat="46.90154" lon="-0.87316">
        <ele>180.87</ele>
        <time>2021-05-13T09:52:24Z</time>
      </trkpt>
      <trkpt lat="46.90136" lon="-0.87342">
        <ele>181.35</ele>
        <time>2021-05-13T09:52:44Z</time>
      </trkpt>
      <trkpt lat="46.90121" lon="-0.87372">
        <ele>181.35</ele>
        <time>2021-05-13T09:53:03Z</time>
      </trkpt>
      <trkpt lat="46.90103" lon="-0.87405">
        <ele>182.31</ele>
        <time>2021-05-13T09:53:25Z</time>
      </trkpt>
      <trkpt lat="46.90083" lon="-0.87439">
        <ele>182.31</ele>
        <time>2021-05-13T09:53:49Z</time>
      </trkpt>
      <trkpt lat="46.90068" lon="-0.8746">
        <ele>182.31</ele>
        <time>2021-05-13T09:54:06Z</time>
      </trkpt>
      <trkpt lat="46.90066" lon="-0.87462">
        <ele>180.87</ele>
        <time>2021-05-13T09:54:08Z</time>
      </trkpt>
      <trkpt lat="46.90049" lon="-0.8748">
        <ele>180.87</ele>
        <time>2021-05-13T09:54:24Z</time>
      </trkpt>
      <trkpt lat="46.90027" lon="-0.87499">
        <ele>179.9</ele>
        <time>2021-05-13T09:54:44Z</time>
      </trkpt>
      <trkpt lat="46.90008" lon="-0.87512">
        <ele>179.9</ele>
        <time>2021-05-13T09:54:59Z</time>
      </trkpt>
      <trkpt lat="46.89993" lon="-0.87525">
        <ele>179.9</ele>
        <time>2021-05-13T09:55:16Z</time>
      </trkpt>
      <trkpt lat="46.89969" lon="-0.87539">
        <ele>181.83</ele>
        <time>2021-05-13T09:55:33Z</time>
      </trkpt>
      <trkpt lat="46.8995" lon="-0.8755">
        <ele>181.83</ele>
        <time>2021-05-13T09:55:49Z</time>
      </trkpt>
      <trkpt lat="46.8995" lon="-0.87553">
        <ele>182.79</ele>
        <time>2021-05-13T09:56:04Z</time>
      </trkpt>
      <trkpt lat="46.89951" lon="-0.8756">
        <ele>183.75</ele>
        <time>2021-05-13T09:56:19Z</time>
      </trkpt>
      <trkpt lat="46.89951" lon="-0.87571">
        <ele>183.75</ele>
        <time>2021-05-13T09:56:34Z</time>
      </trkpt>
      <trkpt lat="46.8995" lon="-0.87573">
        <ele>183.75</ele>
        <time>2021-05-13T09:56:36Z</time>
      </trkpt>
      <trkpt lat="46.89949" lon="-0.87574">
        <ele>183.75</ele>
        <time>2021-05-13T09:56:37Z</time>
      </trkpt>
      <trkpt lat="46.89949" lon="-0.87582">
        <ele>184.23</ele>
        <time>2021-05-13T09:56:54Z</time>
      </trkpt>
      <trkpt lat="46.8995" lon="-0.87585">
        <ele>184.23</ele>
        <time>2021-05-13T09:56:57Z</time>
      </trkpt>
      <trkpt lat="46.8995" lon="-0.87593">
        <ele>184.23</ele>
        <time>2021-05-13T09:57:03Z</time>
      </trkpt>
      <trkpt lat="46.8995" lon="-0.87621">
        <ele>184.71</ele>
        <time>2021-05-13T09:57:18Z</time>
      </trkpt>
      <trkpt lat="46.89951" lon="-0.8763">
        <ele>185.19</ele>
        <time>2021-05-13T09:57:25Z</time>
      </trkpt>
      <trkpt lat="46.89949" lon="-0.87649">
        <ele>186.15</ele>
        <time>2021-05-13T09:57:42Z</time>
      </trkpt>
      <trkpt lat="46.89948" lon="-0.87673">
        <ele>187.11</ele>
        <time>2021-05-13T09:57:58Z</time>
      </trkpt>
      <trkpt lat="46.89947" lon="-0.87686">
        <ele>187.59</ele>
        <time>2021-05-13T09:58:04Z</time>
      </trkpt>
      <trkpt lat="46.89949" lon="-0.87718">
        <ele>188.08</ele>
        <time>2021-05-13T09:58:19Z</time>
      </trkpt>
      <trkpt lat="46.89947" lon="-0.87741">
        <ele>188.56</ele>
        <time>2021-05-13T09:58:33Z</time>
      </trkpt>
      <trkpt lat="46.89945" lon="-0.87764">
        <ele>186.63</ele>
        <time>2021-05-13T09:58:48Z</time>
      </trkpt>
      <trkpt lat="46.89945" lon="-0.87774">
        <ele>186.63</ele>
        <time>2021-05-13T09:58:52Z</time>
      </trkpt>
      <trkpt lat="46.89943" lon="-0.87805">
        <ele>186.15</ele>
        <time>2021-05-13T09:59:07Z</time>
      </trkpt>
      <trkpt lat="46.89942" lon="-0.87818">
        <ele>185.67</ele>
        <time>2021-05-13T09:59:17Z</time>
      </trkpt>
      <trkpt lat="46.89938" lon="-0.87828">
        <ele>185.67</ele>
        <time>2021-05-13T09:59:25Z</time>
      </trkpt>
      <trkpt lat="46.89928" lon="-0.87838">
        <ele>185.67</ele>
        <time>2021-05-13T09:59:37Z</time>
      </trkpt>
      <trkpt lat="46.89915" lon="-0.87849">
        <ele>185.67</ele>
        <time>2021-05-13T09:59:52Z</time>
      </trkpt>
      <trkpt lat="46.89898" lon="-0.87865">
        <ele>185.67</ele>
        <time>2021-05-13T10:00:10Z</time>
      </trkpt>
      <trkpt lat="46.89896" lon="-0.87867">
        <ele>187.11</ele>
        <time>2021-05-13T10:00:23Z</time>
      </trkpt>
      <trkpt lat="46.89894" lon="-0.87865">
        <ele>187.11</ele>
        <time>2021-05-13T10:00:40Z</time>
      </trkpt>
      <trkpt lat="46.89887" lon="-0.87873">
        <ele>187.11</ele>
        <time>2021-05-13T10:00:56Z</time>
      </trkpt>
      <trkpt lat="46.89884" lon="-0.87878">
        <ele>187.59</ele>
        <time>2021-05-13T10:01:14Z</time>
      </trkpt>
      <trkpt lat="46.89884" lon="-0.87878">
        <ele>187.59</ele>
        <time>2021-05-13T10:01:30Z</time>
      </trkpt>
      <trkpt lat="46.89878" lon="-0.87883">
        <ele>187.59</ele>
        <time>2021-05-13T10:01:47Z</time>
      </trkpt>
      <trkpt lat="46.89868" lon="-0.87892">
        <ele>187.59</ele>
        <time>2021-05-13T10:02:01Z</time>
      </trkpt>
      <trkpt lat="46.89858" lon="-0.87899">
        <ele>188.56</ele>
        <time>2021-05-13T10:02:15Z</time>
      </trkpt>
      <trkpt lat="46.89853" lon="-0.87902">
        <ele>189.04</ele>
        <time>2021-05-13T10:02:27Z</time>
      </trkpt>
      <trkpt lat="46.89844" lon="-0.87903">
        <ele>189.04</ele>
        <time>2021-05-13T10:02:42Z</time>
      </trkpt>
      <trkpt lat="46.89843" lon="-0.87898">
        <ele>189.04</ele>
        <time>2021-05-13T10:03:05Z</time>
      </trkpt>
      <trkpt lat="46.89843" lon="-0.87901">
        <ele>189.04</ele>
        <time>2021-05-13T10:03:23Z</time>
      </trkpt>
      <trkpt lat="46.89846" lon="-0.87896">
        <ele>189.52</ele>
        <time>2021-05-13T10:03:42Z</time>
      </trkpt>
      <trkpt lat="46.89843" lon="-0.87884">
        <ele>189.52</ele>
        <time>2021-05-13T10:03:51Z</time>
      </trkpt>
      <trkpt lat="46.89839" lon="-0.87878">
        <ele>190</ele>
        <time>2021-05-13T10:03:58Z</time>
      </trkpt>
      <trkpt lat="46.89828" lon="-0.87883">
        <ele>190.48</ele>
        <time>2021-05-13T10:04:11Z</time>
      </trkpt>
      <trkpt lat="46.89818" lon="-0.87902">
        <ele>190.48</ele>
        <time>2021-05-13T10:04:28Z</time>
      </trkpt>
      <trkpt lat="46.89808" lon="-0.87915">
        <ele>190.48</ele>
        <time>2021-05-13T10:04:41Z</time>
      </trkpt>
      <trkpt lat="46.89802" lon="-0.87922">
        <ele>190.48</ele>
        <time>2021-05-13T10:04:55Z</time>
      </trkpt>
      <trkpt lat="46.89805" lon="-0.87929">
        <ele>190.48</ele>
        <time>2021-05-13T10:05:01Z</time>
      </trkpt>
      <trkpt lat="46.89808" lon="-0.87949">
        <ele>190.48</ele>
        <time>2021-05-13T10:05:12Z</time>
      </trkpt>
      <trkpt lat="46.89804" lon="-0.87953">
        <ele>190.48</ele>
        <time>2021-05-13T10:05:19Z</time>
      </trkpt>
      <trkpt lat="46.89786" lon="-0.87967">
        <ele>190.48</ele>
        <time>2021-05-13T10:05:37Z</time>
      </trkpt>
      <trkpt lat="46.89764" lon="-0.87984">
        <ele>189.52</ele>
        <time>2021-05-13T10:05:51Z</time>
      </trkpt>
      <trkpt lat="46.89763" lon="-0.87986">
        <ele>190.96</ele>
        <time>2021-05-13T10:05:53Z</time>
      </trkpt>
      <trkpt lat="46.89762" lon="-0.87988">
        <ele>190.96</ele>
        <time>2021-05-13T10:05:54Z</time>
      </trkpt>
      <trkpt lat="46.89766" lon="-0.88016">
        <ele>191.44</ele>
        <time>2021-05-13T10:06:10Z</time>
      </trkpt>
      <trkpt lat="46.89777" lon="-0.88036">
        <ele>191.44</ele>
        <time>2021-05-13T10:06:27Z</time>
      </trkpt>
      <trkpt lat="46.89783" lon="-0.88059">
        <ele>190</ele>
        <time>2021-05-13T10:06:41Z</time>
      </trkpt>
      <trkpt lat="46.89788" lon="-0.88076">
        <ele>189.52</ele>
        <time>2021-05-13T10:06:56Z</time>
      </trkpt>
      <trkpt lat="46.89789" lon="-0.88082">
        <ele>189.52</ele>
        <time>2021-05-13T10:07:16Z</time>
      </trkpt>
      <trkpt lat="46.89789" lon="-0.88082">
        <ele>189.04</ele>
        <time>2021-05-13T10:07:29Z</time>
      </trkpt>
      <trkpt lat="46.89792" lon="-0.88083">
        <ele>190.96</ele>
        <time>2021-05-13T10:07:51Z</time>
      </trkpt>
      <trkpt lat="46.89803" lon="-0.88096">
        <ele>189.04</ele>
        <time>2021-05-13T10:08:08Z</time>
      </trkpt>
      <trkpt lat="46.8982" lon="-0.88113">
        <ele>188.08</ele>
        <time>2021-05-13T10:08:22Z</time>
      </trkpt>
      <trkpt lat="46.89824" lon="-0.88116">
        <ele>188.08</ele>
        <time>2021-05-13T10:08:25Z</time>
      </trkpt>
      <trkpt lat="46.89833" lon="-0.88126">
        <ele>186.63</ele>
        <time>2021-05-13T10:08:37Z</time>
      </trkpt>
      <trkpt lat="46.89851" lon="-0.88139">
        <ele>186.63</ele>
        <time>2021-05-13T10:08:53Z</time>
      </trkpt>
      <trkpt lat="46.89852" lon="-0.88139">
        <ele>186.63</ele>
        <time>2021-05-13T10:08:54Z</time>
      </trkpt>
      <trkpt lat="46.89872" lon="-0.8815">
        <ele>185.19</ele>
        <time>2021-05-13T10:09:11Z</time>
      </trkpt>
      <trkpt lat="46.89894" lon="-0.88161">
        <ele>184.23</ele>
        <time>2021-05-13T10:09:29Z</time>
      </trkpt>
      <trkpt lat="46.89916" lon="-0.88173">
        <ele>182.79</ele>
        <time>2021-05-13T10:09:47Z</time>
      </trkpt>
      <trkpt lat="46.89931" lon="-0.88181">
        <ele>180.38</ele>
        <time>2021-05-13T10:10:00Z</time>
      </trkpt>
      <trkpt lat="46.89951" lon="-0.88191">
        <ele>177.02</ele>
        <time>2021-05-13T10:10:15Z</time>
      </trkpt>
      <trkpt lat="46.89955" lon="-0.88205">
        <ele>175.58</ele>
        <time>2021-05-13T10:10:27Z</time>
      </trkpt>
      <trkpt lat="46.8995" lon="-0.88231">
        <ele>172.21</ele>
        <time>2021-05-13T10:10:43Z</time>
      </trkpt>
      <trkpt lat="46.89951" lon="-0.88255">
        <ele>171.25</ele>
        <time>2021-05-13T10:10:58Z</time>
      </trkpt>
      <trkpt lat="46.89952" lon="-0.88286">
        <ele>169.81</ele>
        <time>2021-05-13T10:11:15Z</time>
      </trkpt>
      <trkpt lat="46.89947" lon="-0.88307">
        <ele>168.85</ele>
        <time>2021-05-13T10:11:29Z</time>
      </trkpt>
      <trkpt lat="46.89935" lon="-0.88325">
        <ele>170.29</ele>
        <time>2021-05-13T10:11:47Z</time>
      </trkpt>
      <trkpt lat="46.89932" lon="-0.88328">
        <ele>170.29</ele>
        <time>2021-05-13T10:11:50Z</time>
      </trkpt>
      <trkpt lat="46.89913" lon="-0.8834">
        <ele>171.73</ele>
        <time>2021-05-13T10:12:06Z</time>
      </trkpt>
      <trkpt lat="46.89893" lon="-0.88368">
        <ele>171.73</ele>
        <time>2021-05-13T10:12:23Z</time>
      </trkpt>
      <trkpt lat="46.89883" lon="-0.88387">
        <ele>171.73</ele>
        <time>2021-05-13T10:12:38Z</time>
      </trkpt>
      <trkpt lat="46.89873" lon="-0.88407">
        <ele>170.29</ele>
        <time>2021-05-13T10:12:54Z</time>
      </trkpt>
      <trkpt lat="46.89874" lon="-0.88422">
        <ele>168.37</ele>
        <time>2021-05-13T10:13:07Z</time>
      </trkpt>
      <trkpt lat="46.89873" lon="-0.88439">
        <ele>167.89</ele>
        <time>2021-05-13T10:13:23Z</time>
      </trkpt>
      <trkpt lat="46.89868" lon="-0.88428">
        <ele>167.89</ele>
        <time>2021-05-13T10:13:37Z</time>
      </trkpt>
      <trkpt lat="46.89868" lon="-0.88422">
        <ele>168.85</ele>
        <time>2021-05-13T10:13:42Z</time>
      </trkpt>
      <trkpt lat="46.89875" lon="-0.88405">
        <ele>169.81</ele>
        <time>2021-05-13T10:13:58Z</time>
      </trkpt>
      <trkpt lat="46.89872" lon="-0.88411">
        <ele>169.81</ele>
        <time>2021-05-13T10:14:14Z</time>
      </trkpt>
      <trkpt lat="46.8987" lon="-0.88413">
        <ele>169.81</ele>
        <time>2021-05-13T10:14:16Z</time>
      </trkpt>
      <trkpt lat="46.89868" lon="-0.88425">
        <ele>168.37</ele>
        <time>2021-05-13T10:14:26Z</time>
      </trkpt>
      <trkpt lat="46.89878" lon="-0.8845">
        <ele>167.89</ele>
        <time>2021-05-13T10:14:44Z</time>
      </trkpt>
      <trkpt lat="46.89888" lon="-0.88471">
        <ele>167.89</ele>
        <time>2021-05-13T10:15:02Z</time>
      </trkpt>
      <trkpt lat="46.89897" lon="-0.8849">
        <ele>167.89</ele>
        <time>2021-05-13T10:15:14Z</time>
      </trkpt>
      <trkpt lat="46.89901" lon="-0.88518">
        <ele>167.41</ele>
        <time>2021-05-13T10:15:30Z</time>
      </trkpt>
      <trkpt lat="46.89908" lon="-0.88549">
        <ele>167.41</ele>
        <time>2021-05-13T10:15:49Z</time>
      </trkpt>
      <trkpt lat="46.89913" lon="-0.88574">
        <ele>167.41</ele>
        <time>2021-05-13T10:16:08Z</time>
      </trkpt>
      <trkpt lat="46.89927" lon="-0.88593">
        <ele>167.41</ele>
        <time>2021-05-13T10:16:28Z</time>
      </trkpt>
      <trkpt lat="46.89944" lon="-0.8859">
        <ele>167.41</ele>
        <time>2021-05-13T10:16:46Z</time>
      </trkpt>
      <trkpt lat="46.89963" lon="-0.8859">
        <ele>169.33</ele>
        <time>2021-05-13T10:17:03Z</time>
      </trkpt>
      <trkpt lat="46.89983" lon="-0.88586">
        <ele>170.77</ele>
        <time>2021-05-13T10:17:20Z</time>
      </trkpt>
      <trkpt lat="46.89994" lon="-0.88582">
        <ele>171.73</ele>
        <time>2021-05-13T10:17:31Z</time>
      </trkpt>
      <trkpt lat="46.90018" lon="-0.88569">
        <ele>172.69</ele>
        <time>2021-05-13T10:17:50Z</time>
      </trkpt>
      <trkpt lat="46.90022" lon="-0.88569">
        <ele>173.17</ele>
        <time>2021-05-13T10:17:53Z</time>
      </trkpt>
      <trkpt lat="46.90043" lon="-0.88577">
        <ele>174.62</ele>
        <time>2021-05-13T10:18:11Z</time>
      </trkpt>
      <trkpt lat="46.90064" lon="-0.88584">
        <ele>174.62</ele>
        <time>2021-05-13T10:18:32Z</time>
      </trkpt>
      <trkpt lat="46.90089" lon="-0.88593">
        <ele>176.06</ele>
        <time>2021-05-13T10:18:50Z</time>
      </trkpt>
      <trkpt lat="46.90103" lon="-0.88602">
        <ele>177.98</ele>
        <time>2021-05-13T10:19:10Z</time>
      </trkpt>
      <trkpt lat="46.90109" lon="-0.88586">
        <ele>178.46</ele>
        <time>2021-05-13T10:19:27Z</time>
      </trkpt>
      <trkpt lat="46.9011" lon="-0.88583">
        <ele>178.46</ele>
        <time>2021-05-13T10:19:29Z</time>
      </trkpt>
      <trkpt lat="46.90117" lon="-0.88554">
        <ele>178.46</ele>
        <time>2021-05-13T10:19:48Z</time>
      </trkpt>
      <trkpt lat="46.90126" lon="-0.88528">
        <ele>178.94</ele>
        <time>2021-05-13T10:20:05Z</time>
      </trkpt>
      <trkpt lat="46.90133" lon="-0.88503">
        <ele>179.9</ele>
        <time>2021-05-13T10:20:22Z</time>
      </trkpt>
      <trkpt lat="46.90134" lon="-0.88497">
        <ele>180.38</ele>
        <time>2021-05-13T10:20:34Z</time>
      </trkpt>
      <trkpt lat="46.90132" lon="-0.88484">
        <ele>180.87</ele>
        <time>2021-05-13T10:20:48Z</time>
      </trkpt>
      <trkpt lat="46.90132" lon="-0.8848">
        <ele>180.87</ele>
        <time>2021-05-13T10:20:56Z</time>
      </trkpt>
      <trkpt lat="46.90133" lon="-0.88491">
        <ele>180.87</ele>
        <time>2021-05-13T10:21:02Z</time>
      </trkpt>
      <trkpt lat="46.90134" lon="-0.88496">
        <ele>180.87</ele>
        <time>2021-05-13T10:21:06Z</time>
      </trkpt>
      <trkpt lat="46.90138" lon="-0.88499">
        <ele>180.87</ele>
        <time>2021-05-13T10:21:11Z</time>
      </trkpt>
      <trkpt lat="46.90143" lon="-0.88493">
        <ele>180.87</ele>
        <time>2021-05-13T10:21:17Z</time>
      </trkpt>
      <trkpt lat="46.90148" lon="-0.88486">
        <ele>180.87</ele>
        <time>2021-05-13T10:21:32Z</time>
      </trkpt>
      <trkpt lat="46.90155" lon="-0.88467">
        <ele>180.87</ele>
        <time>2021-05-13T10:21:48Z</time>
      </trkpt>
      <trkpt lat="46.90168" lon="-0.88451">
        <ele>180.87</ele>
        <time>2021-05-13T10:22:01Z</time>
      </trkpt>
      <trkpt lat="46.90174" lon="-0.88442">
        <ele>180.87</ele>
        <time>2021-05-13T10:22:06Z</time>
      </trkpt>
      <trkpt lat="46.90177" lon="-0.88436">
        <ele>179.9</ele>
        <time>2021-05-13T10:22:12Z</time>
      </trkpt>
      <trkpt lat="46.90187" lon="-0.88418">
        <ele>179.42</ele>
        <time>2021-05-13T10:22:24Z</time>
      </trkpt>
      <trkpt lat="46.90198" lon="-0.88398">
        <ele>177.98</ele>
        <time>2021-05-13T10:22:38Z</time>
      </trkpt>
      <trkpt lat="46.90212" lon="-0.88376">
        <ele>176.54</ele>
        <time>2021-05-13T10:22:54Z</time>
      </trkpt>
      <trkpt lat="46.90225" lon="-0.88358">
        <ele>175.58</ele>
        <time>2021-05-13T10:23:08Z</time>
      </trkpt>
      <trkpt lat="46.90241" lon="-0.88336">
        <ele>174.14</ele>
        <time>2021-05-13T10:23:25Z</time>
      </trkpt>
      <trkpt lat="46.90254" lon="-0.88319">
        <ele>174.14</ele>
        <time>2021-05-13T10:23:40Z</time>
      </trkpt>
      <trkpt lat="46.90271" lon="-0.88295">
        <ele>173.17</ele>
        <time>2021-05-13T10:23:56Z</time>
      </trkpt>
      <trkpt lat="46.90286" lon="-0.88273">
        <ele>173.17</ele>
        <time>2021-05-13T10:24:13Z</time>
      </trkpt>
      <trkpt lat="46.90295" lon="-0.88256">
        <ele>172.69</ele>
        <time>2021-05-13T10:24:24Z</time>
      </trkpt>
      <trkpt lat="46.90312" lon="-0.88229">
        <ele>171.25</ele>
        <time>2021-05-13T10:24:43Z</time>
      </trkpt>
      <trkpt lat="46.90327" lon="-0.88205">
        <ele>169.81</ele>
        <time>2021-05-13T10:25:01Z</time>
      </trkpt>
      <trkpt lat="46.90339" lon="-0.88178">
        <ele>167.89</ele>
        <time>2021-05-13T10:25:19Z</time>
      </trkpt>
      <trkpt lat="46.90346" lon="-0.88156">
        <ele>165.96</ele>
        <time>2021-05-13T10:25:33Z</time>
      </trkpt>
      <trkpt lat="46.90355" lon="-0.88135">
        <ele>165</ele>
        <time>2021-05-13T10:25:48Z</time>
      </trkpt>
      <trkpt lat="46.90358" lon="-0.8812">
        <ele>163.08</ele>
        <time>2021-05-13T10:25:59Z</time>
      </trkpt>
      <trkpt lat="46.90363" lon="-0.88091">
        <ele>161.64</ele>
        <time>2021-05-13T10:26:16Z</time>
      </trkpt>
      <trkpt lat="46.90365" lon="-0.88085">
        <ele>161.64</ele>
        <time>2021-05-13T10:26:20Z</time>
      </trkpt>
      <trkpt lat="46.90373" lon="-0.88058">
        <ele>160.2</ele>
        <time>2021-05-13T10:26:35Z</time>
      </trkpt>
      <trkpt lat="46.90382" lon="-0.88033">
        <ele>160.2</ele>
        <time>2021-05-13T10:26:52Z</time>
      </trkpt>
      <trkpt lat="46.90407" lon="-0.88015">
        <ele>161.64</ele>
        <time>2021-05-13T10:27:15Z</time>
      </trkpt>
      <trkpt lat="46.90432" lon="-0.88004">
        <ele>164.04</ele>
        <time>2021-05-13T10:27:38Z</time>
      </trkpt>
      <trkpt lat="46.9045" lon="-0.8799">
        <ele>165</ele>
        <time>2021-05-13T10:27:53Z</time>
      </trkpt>
      <trkpt lat="46.90473" lon="-0.87975">
        <ele>165.96</ele>
        <time>2021-05-13T10:28:11Z</time>
      </trkpt>
      <trkpt lat="46.90484" lon="-0.87968">
        <ele>167.41</ele>
        <time>2021-05-13T10:28:22Z</time>
      </trkpt>
      <trkpt lat="46.90503" lon="-0.87957">
        <ele>169.33</ele>
        <time>2021-05-13T10:28:41Z</time>
      </trkpt>
      <trkpt lat="46.90514" lon="-0.87944">
        <ele>170.77</ele>
        <time>2021-05-13T10:28:54Z</time>
      </trkpt>
      <trkpt lat="46.90514" lon="-0.87943">
        <ele>170.77</ele>
        <time>2021-05-13T10:28:55Z</time>
      </trkpt>
      <trkpt lat="46.90527" lon="-0.87922">
        <ele>171.73</ele>
        <time>2021-05-13T10:29:09Z</time>
      </trkpt>
      <trkpt lat="46.90539" lon="-0.879">
        <ele>173.17</ele>
        <time>2021-05-13T10:29:27Z</time>
      </trkpt>
      <trkpt lat="46.90542" lon="-0.87896">
        <ele>173.17</ele>
        <time>2021-05-13T10:29:31Z</time>
      </trkpt>
      <trkpt lat="46.90555" lon="-0.87878">
        <ele>174.14</ele>
        <time>2021-05-13T10:29:50Z</time>
      </trkpt>
      <trkpt lat="46.90563" lon="-0.87859">
        <ele>174.14</ele>
        <time>2021-05-13T10:30:04Z</time>
      </trkpt>
      <trkpt lat="46.90576" lon="-0.87828">
        <ele>175.1</ele>
        <time>2021-05-13T10:30:24Z</time>
      </trkpt>
      <trkpt lat="46.90592" lon="-0.87803">
        <ele>175.1</ele>
        <time>2021-05-13T10:30:44Z</time>
      </trkpt>
      <trkpt lat="46.90608" lon="-0.87776">
        <ele>173.66</ele>
        <time>2021-05-13T10:31:02Z</time>
      </trkpt>
      <trkpt lat="46.90621" lon="-0.87755">
        <ele>172.69</ele>
        <time>2021-05-13T10:31:19Z</time>
      </trkpt>
      <trkpt lat="46.90637" lon="-0.87731">
        <ele>172.21</ele>
        <time>2021-05-13T10:31:39Z</time>
      </trkpt>
      <trkpt lat="46.90658" lon="-0.87706">
        <ele>171.25</ele>
        <time>2021-05-13T10:32:00Z</time>
      </trkpt>
      <trkpt lat="46.90677" lon="-0.87682">
        <ele>171.25</ele>
        <time>2021-05-13T10:32:20Z</time>
      </trkpt>
      <trkpt lat="46.90693" lon="-0.87659">
        <ele>170.77</ele>
        <time>2021-05-13T10:32:39Z</time>
      </trkpt>
      <trkpt lat="46.90713" lon="-0.87634">
        <ele>168.85</ele>
        <time>2021-05-13T10:33:01Z</time>
      </trkpt>
      <trkpt lat="46.90718" lon="-0.87629">
        <ele>168.85</ele>
        <time>2021-05-13T10:33:08Z</time>
      </trkpt>
      <trkpt lat="46.90733" lon="-0.87611">
        <ele>167.41</ele>
        <time>2021-05-13T10:33:25Z</time>
      </trkpt>
      <trkpt lat="46.90757" lon="-0.87596">
        <ele>165.48</ele>
        <time>2021-05-13T10:33:45Z</time>
      </trkpt>
      <trkpt lat="46.90774" lon="-0.87588">
        <ele>163.56</ele>
        <time>2021-05-13T10:34:05Z</time>
      </trkpt>
      <trkpt lat="46.90797" lon="-0.87573">
        <ele>162.12</ele>
        <time>2021-05-13T10:34:24Z</time>
      </trkpt>
      <trkpt lat="46.90818" lon="-0.87557">
        <ele>160.2</ele>
        <time>2021-05-13T10:34:44Z</time>
      </trkpt>
      <trkpt lat="46.90827" lon="-0.87552">
        <ele>159.72</ele>
        <time>2021-05-13T10:34:52Z</time>
      </trkpt>
      <trkpt lat="46.9084" lon="-0.87544">
        <ele>156.83</ele>
        <time>2021-05-13T10:35:07Z</time>
      </trkpt>
      <trkpt lat="46.9086" lon="-0.87526">
        <ele>154.43</ele>
        <time>2021-05-13T10:35:27Z</time>
      </trkpt>
      <trkpt lat="46.90882" lon="-0.87512">
        <ele>152.03</ele>
        <time>2021-05-13T10:35:49Z</time>
      </trkpt>
      <trkpt lat="46.90894" lon="-0.87503">
        <ele>151.06</ele>
        <time>2021-05-13T10:36:02Z</time>
      </trkpt>
      <trkpt lat="46.90913" lon="-0.87488">
        <ele>149.62</ele>
        <time>2021-05-13T10:36:16Z</time>
      </trkpt>
      <trkpt lat="46.90926" lon="-0.87484">
        <ele>146.74</ele>
        <time>2021-05-13T10:36:30Z</time>
      </trkpt>
      <trkpt lat="46.90942" lon="-0.87483">
        <ele>143.85</ele>
        <time>2021-05-13T10:36:46Z</time>
      </trkpt>
      <trkpt lat="46.9095" lon="-0.8748">
        <ele>141.45</ele>
        <time>2021-05-13T10:37:04Z</time>
      </trkpt>
      <trkpt lat="46.90974" lon="-0.87461">
        <ele>138.57</ele>
        <time>2021-05-13T10:37:23Z</time>
      </trkpt>
      <trkpt lat="46.91" lon="-0.87429">
        <ele>138.09</ele>
        <time>2021-05-13T10:37:45Z</time>
      </trkpt>
      <trkpt lat="46.91006" lon="-0.87416">
        <ele>136.16</ele>
        <time>2021-05-13T10:37:56Z</time>
      </trkpt>
      <trkpt lat="46.91023" lon="-0.87391">
        <ele>134.24</ele>
        <time>2021-05-13T10:38:13Z</time>
      </trkpt>
      <trkpt lat="46.91028" lon="-0.87372">
        <ele>132.32</ele>
        <time>2021-05-13T10:38:23Z</time>
      </trkpt>
      <trkpt lat="46.91035" lon="-0.87352">
        <ele>131.84</ele>
        <time>2021-05-13T10:38:37Z</time>
      </trkpt>
      <trkpt lat="46.91038" lon="-0.87334">
        <ele>130.4</ele>
        <time>2021-05-13T10:38:49Z</time>
      </trkpt>
      <trkpt lat="46.91039" lon="-0.87301">
        <ele>129.43</ele>
        <time>2021-05-13T10:39:06Z</time>
      </trkpt>
      <trkpt lat="46.9104" lon="-0.87289">
        <ele>128.47</ele>
        <time>2021-05-13T10:39:14Z</time>
      </trkpt>
      <trkpt lat="46.91031" lon="-0.87267">
        <ele>127.51</ele>
        <time>2021-05-13T10:39:30Z</time>
      </trkpt>
      <trkpt lat="46.91022" lon="-0.87249">
        <ele>127.51</ele>
        <time>2021-05-13T10:39:45Z</time>
      </trkpt>
      <trkpt lat="46.91015" lon="-0.87217">
        <ele>127.03</ele>
        <time>2021-05-13T10:40:04Z</time>
      </trkpt>
      <trkpt lat="46.91024" lon="-0.87187">
        <ele>127.03</ele>
        <time>2021-05-13T10:40:23Z</time>
      </trkpt>
      <trkpt lat="46.91036" lon="-0.87182">
        <ele>126.55</ele>
        <time>2021-05-13T10:40:33Z</time>
      </trkpt>
      <trkpt lat="46.91057" lon="-0.87158">
        <ele>125.59</ele>
        <time>2021-05-13T10:40:52Z</time>
      </trkpt>
      <trkpt lat="46.91072" lon="-0.87163">
        <ele>125.11</ele>
        <time>2021-05-13T10:41:05Z</time>
      </trkpt>
      <trkpt lat="46.91095" lon="-0.87164">
        <ele>124.63</ele>
        <time>2021-05-13T10:41:21Z</time>
      </trkpt>
      <trkpt lat="46.91113" lon="-0.87163">
        <ele>123.67</ele>
        <time>2021-05-13T10:41:36Z</time>
      </trkpt>
      <trkpt lat="46.91133" lon="-0.87149">
        <ele>123.67</ele>
        <time>2021-05-13T10:41:50Z</time>
      </trkpt>
      <trkpt lat="46.91146" lon="-0.87145">
        <ele>123.67</ele>
        <time>2021-05-13T10:42:07Z</time>
      </trkpt>
      <trkpt lat="46.91155" lon="-0.87132">
        <ele>125.11</ele>
        <time>2021-05-13T10:42:20Z</time>
      </trkpt>
      <trkpt lat="46.91155" lon="-0.8713">
        <ele>125.11</ele>
        <time>2021-05-13T10:42:21Z</time>
      </trkpt>
      <trkpt lat="46.9115" lon="-0.87114">
        <ele>125.11</ele>
        <time>2021-05-13T10:42:35Z</time>
      </trkpt>
      <trkpt lat="46.91154" lon="-0.87101">
        <ele>125.11</ele>
        <time>2021-05-13T10:42:45Z</time>
      </trkpt>
      <trkpt lat="46.91154" lon="-0.87099">
        <ele>125.11</ele>
        <time>2021-05-13T10:42:46Z</time>
      </trkpt>
      <trkpt lat="46.9115" lon="-0.87071">
        <ele>123.67</ele>
        <time>2021-05-13T10:43:03Z</time>
      </trkpt>
      <trkpt lat="46.91151" lon="-0.87067">
        <ele>123.67</ele>
        <time>2021-05-13T10:43:07Z</time>
      </trkpt>
      <trkpt lat="46.91154" lon="-0.87033">
        <ele>123.67</ele>
        <time>2021-05-13T10:43:23Z</time>
      </trkpt>
      <trkpt lat="46.91155" lon="-0.87013">
        <ele>123.19</ele>
        <time>2021-05-13T10:43:38Z</time>
      </trkpt>
      <trkpt lat="46.91145" lon="-0.8698">
        <ele>123.19</ele>
        <time>2021-05-13T10:43:54Z</time>
      </trkpt>
      <trkpt lat="46.91138" lon="-0.86962">
        <ele>122.71</ele>
        <time>2021-05-13T10:44:09Z</time>
      </trkpt>
      <trkpt lat="46.91128" lon="-0.86942">
        <ele>122.71</ele>
        <time>2021-05-13T10:44:26Z</time>
      </trkpt>
      <trkpt lat="46.91117" lon="-0.86922">
        <ele>123.67</ele>
        <time>2021-05-13T10:44:45Z</time>
      </trkpt>
      <trkpt lat="46.91107" lon="-0.86893">
        <ele>124.15</ele>
        <time>2021-05-13T10:45:01Z</time>
      </trkpt>
      <trkpt lat="46.91093" lon="-0.86857">
        <ele>124.15</ele>
        <time>2021-05-13T10:45:18Z</time>
      </trkpt>
      <trkpt lat="46.91078" lon="-0.86851">
        <ele>125.59</ele>
        <time>2021-05-13T10:45:30Z</time>
      </trkpt>
      <trkpt lat="46.91075" lon="-0.86847">
        <ele>126.07</ele>
        <time>2021-05-13T10:45:42Z</time>
      </trkpt>
      <trkpt lat="46.91071" lon="-0.86834">
        <ele>126.07</ele>
        <time>2021-05-13T10:45:57Z</time>
      </trkpt>
      <trkpt lat="46.91066" lon="-0.86824">
        <ele>126.07</ele>
        <time>2021-05-13T10:46:11Z</time>
      </trkpt>
      <trkpt lat="46.91059" lon="-0.86807">
        <ele>126.07</ele>
        <time>2021-05-13T10:46:24Z</time>
      </trkpt>
      <trkpt lat="46.91055" lon="-0.86794">
        <ele>126.07</ele>
        <time>2021-05-13T10:46:33Z</time>
      </trkpt>
      <trkpt lat="46.9104" lon="-0.86767">
        <ele>127.03</ele>
        <time>2021-05-13T10:46:50Z</time>
      </trkpt>
      <trkpt lat="46.91031" lon="-0.86757">
        <ele>127.03</ele>
        <time>2021-05-13T10:47:06Z</time>
      </trkpt>
      <trkpt lat="46.91025" lon="-0.86746">
        <ele>127.51</ele>
        <time>2021-05-13T10:47:19Z</time>
      </trkpt>
      <trkpt lat="46.9102" lon="-0.86735">
        <ele>127.51</ele>
        <time>2021-05-13T10:47:34Z</time>
      </trkpt>
      <trkpt lat="46.91024" lon="-0.86711">
        <ele>127.51</ele>
        <time>2021-05-13T10:47:53Z</time>
      </trkpt>
      <trkpt lat="46.91026" lon="-0.86707">
        <ele>127.51</ele>
        <time>2021-05-13T10:47:57Z</time>
      </trkpt>
      <trkpt lat="46.9104" lon="-0.86681">
        <ele>127.03</ele>
        <time>2021-05-13T10:48:13Z</time>
      </trkpt>
      <trkpt lat="46.91053" lon="-0.86654">
        <ele>127.03</ele>
        <time>2021-05-13T10:48:31Z</time>
      </trkpt>
      <trkpt lat="46.91063" lon="-0.86631">
        <ele>127.99</ele>
        <time>2021-05-13T10:48:48Z</time>
      </trkpt>
      <trkpt lat="46.91076" lon="-0.86604">
        <ele>128.95</ele>
        <time>2021-05-13T10:49:08Z</time>
      </trkpt>
      <trkpt lat="46.91088" lon="-0.86579">
        <ele>128.95</ele>
        <time>2021-05-13T10:49:25Z</time>
      </trkpt>
      <trkpt lat="46.91103" lon="-0.86558">
        <ele>129.43</ele>
        <time>2021-05-13T10:49:42Z</time>
      </trkpt>
      <trkpt lat="46.91109" lon="-0.86563">
        <ele>129.43</ele>
        <time>2021-05-13T10:50:00Z</time>
      </trkpt>
      <trkpt lat="46.91111" lon="-0.86566">
        <ele>129.43</ele>
        <time>2021-05-13T10:50:22Z</time>
      </trkpt>
      <trkpt lat="46.91113" lon="-0.86568">
        <ele>127.99</ele>
        <time>2021-05-13T10:50:25Z</time>
      </trkpt>
      <trkpt lat="46.91118" lon="-0.86586">
        <ele>127.03</ele>
        <time>2021-05-13T10:50:38Z</time>
      </trkpt>
      <trkpt lat="46.91122" lon="-0.86622">
        <ele>128.47</ele>
        <time>2021-05-13T10:51:00Z</time>
      </trkpt>
      <trkpt lat="46.91125" lon="-0.86647">
        <ele>128.95</ele>
        <time>2021-05-13T10:51:15Z</time>
      </trkpt>
      <trkpt lat="46.91126" lon="-0.8665">
        <ele>129.43</ele>
        <time>2021-05-13T10:51:18Z</time>
      </trkpt>
      <trkpt lat="46.91125" lon="-0.86653">
        <ele>130.4</ele>
        <time>2021-05-13T10:51:20Z</time>
      </trkpt>
      <trkpt lat="46.91125" lon="-0.86669">
        <ele>131.36</ele>
        <time>2021-05-13T10:51:31Z</time>
      </trkpt>
      <trkpt lat="46.91122" lon="-0.86675">
        <ele>132.8</ele>
        <time>2021-05-13T10:51:42Z</time>
      </trkpt>
      <trkpt lat="46.9112" lon="-0.86679">
        <ele>133.28</ele>
        <time>2021-05-13T10:51:45Z</time>
      </trkpt>
      <trkpt lat="46.91121" lon="-0.86686">
        <ele>131.84</ele>
        <time>2021-05-13T10:51:50Z</time>
      </trkpt>
      <trkpt lat="46.91121" lon="-0.86691">
        <ele>131.84</ele>
        <time>2021-05-13T10:52:03Z</time>
      </trkpt>
      <trkpt lat="46.91123" lon="-0.86691">
        <ele>132.8</ele>
        <time>2021-05-13T10:52:24Z</time>
      </trkpt>
      <trkpt lat="46.91124" lon="-0.8669">
        <ele>132.8</ele>
        <time>2021-05-13T10:52:35Z</time>
      </trkpt>
      <trkpt lat="46.91122" lon="-0.86685">
        <ele>132.8</ele>
        <time>2021-05-13T10:52:54Z</time>
      </trkpt>
      <trkpt lat="46.91122" lon="-0.86681">
        <ele>132.8</ele>
        <time>2021-05-13T10:53:11Z</time>
      </trkpt>
      <trkpt lat="46.91122" lon="-0.86667">
        <ele>131.36</ele>
        <time>2021-05-13T10:53:24Z</time>
      </trkpt>
      <trkpt lat="46.9112" lon="-0.86665">
        <ele>130.4</ele>
        <time>2021-05-13T10:53:50Z</time>
      </trkpt>
      <trkpt lat="46.91127" lon="-0.86666">
        <ele>131.84</ele>
        <time>2021-05-13T10:54:10Z</time>
      </trkpt>
      <trkpt lat="46.91127" lon="-0.86662">
        <ele>130.88</ele>
        <time>2021-05-13T10:54:13Z</time>
      </trkpt>
      <trkpt lat="46.9111" lon="-0.86657">
        <ele>130.88</ele>
        <time>2021-05-13T10:54:31Z</time>
      </trkpt>
      <trkpt lat="46.91108" lon="-0.86656">
        <ele>130.88</ele>
        <time>2021-05-13T10:54:33Z</time>
      </trkpt>
      <trkpt lat="46.91107" lon="-0.86654">
        <ele>130.88</ele>
        <time>2021-05-13T10:54:43Z</time>
      </trkpt>
      <trkpt lat="46.91104" lon="-0.86651">
        <ele>130.88</ele>
        <time>2021-05-13T10:55:06Z</time>
      </trkpt>
      <trkpt lat="46.91093" lon="-0.86644">
        <ele>130.4</ele>
        <time>2021-05-13T10:55:28Z</time>
      </trkpt>
      <trkpt lat="46.91097" lon="-0.86644">
        <ele>130.88</ele>
        <time>2021-05-13T10:55:53Z</time>
      </trkpt>
      <trkpt lat="46.9109" lon="-0.86649">
        <ele>130.88</ele>
        <time>2021-05-13T10:56:21Z</time>
      </trkpt>
      <trkpt lat="46.91094" lon="-0.86649">
        <ele>130.88</ele>
        <time>2021-05-13T10:56:42Z</time>
      </trkpt>
      <trkpt lat="46.91094" lon="-0.86646">
        <ele>131.36</ele>
        <time>2021-05-13T10:57:10Z</time>
      </trkpt>
      <trkpt lat="46.9111" lon="-0.86647">
        <ele>131.36</ele>
        <time>2021-05-13T10:57:35Z</time>
      </trkpt>
      <trkpt lat="46.9112" lon="-0.86645">
        <ele>132.8</ele>
        <time>2021-05-13T10:58:02Z</time>
      </trkpt>
      <trkpt lat="46.91119" lon="-0.86646">
        <ele>132.8</ele>
        <time>2021-05-13T10:58:28Z</time>
      </trkpt>
      <trkpt lat="46.9112" lon="-0.86648">
        <ele>132.8</ele>
        <time>2021-05-13T10:58:57Z</time>
      </trkpt>
      <trkpt lat="46.91131" lon="-0.86641">
        <ele>132.8</ele>
        <time>2021-05-13T10:59:23Z</time>
      </trkpt>
      <trkpt lat="46.9113" lon="-0.86635">
        <ele>132.8</ele>
        <time>2021-05-13T10:59:49Z</time>
      </trkpt>
      <trkpt lat="46.91132" lon="-0.86634">
        <ele>132.8</ele>
        <time>2021-05-13T10:59:52Z</time>
      </trkpt>
      <trkpt lat="46.91139" lon="-0.86642">
        <ele>132.8</ele>
        <time>2021-05-13T11:00:19Z</time>
      </trkpt>
      <trkpt lat="46.91124" lon="-0.86652">
        <ele>132.8</ele>
        <time>2021-05-13T11:00:51Z</time>
      </trkpt>
      <trkpt lat="46.91126" lon="-0.86654">
        <ele>132.8</ele>
        <time>2021-05-13T11:01:20Z</time>
      </trkpt>
      <trkpt lat="46.91122" lon="-0.86653">
        <ele>132.8</ele>
        <time>2021-05-13T11:01:47Z</time>
      </trkpt>
      <trkpt lat="46.9112" lon="-0.86675">
        <ele>132.8</ele>
        <time>2021-05-13T11:02:15Z</time>
      </trkpt>
      <trkpt lat="46.91123" lon="-0.86674">
        <ele>132.8</ele>
        <time>2021-05-13T11:02:38Z</time>
      </trkpt>
      <trkpt lat="46.91115" lon="-0.86667">
        <ele>132.8</ele>
        <time>2021-05-13T11:03:04Z</time>
      </trkpt>
      <trkpt lat="46.9111" lon="-0.8666">
        <ele>132.8</ele>
        <time>2021-05-13T11:03:31Z</time>
      </trkpt>
      <trkpt lat="46.91111" lon="-0.86664">
        <ele>132.8</ele>
        <time>2021-05-13T11:03:59Z</time>
      </trkpt>
      <trkpt lat="46.91114" lon="-0.86652">
        <ele>132.8</ele>
        <time>2021-05-13T11:04:21Z</time>
      </trkpt>
      <trkpt lat="46.91107" lon="-0.86651">
        <ele>132.8</ele>
        <time>2021-05-13T11:04:29Z</time>
      </trkpt>
      <trkpt lat="46.91097" lon="-0.86658">
        <ele>132.8</ele>
        <time>2021-05-13T11:04:53Z</time>
      </trkpt>
      <trkpt lat="46.91095" lon="-0.86669">
        <ele>132.8</ele>
        <time>2021-05-13T11:05:20Z</time>
      </trkpt>
      <trkpt lat="46.91133" lon="-0.86665">
        <ele>134.24</ele>
        <time>2021-05-13T11:24:28Z</time>
      </trkpt>
      <trkpt lat="46.91116" lon="-0.86668">
        <ele>134.24</ele>
        <time>2021-05-13T11:24:51Z</time>
      </trkpt>
      <trkpt lat="46.91118" lon="-0.86676">
        <ele>134.24</ele>
        <time>2021-05-13T11:25:19Z</time>
      </trkpt>
      <trkpt lat="46.91117" lon="-0.8668">
        <ele>134.24</ele>
        <time>2021-05-13T11:25:40Z</time>
      </trkpt>
      <trkpt lat="46.9111" lon="-0.86686">
        <ele>133.76</ele>
        <time>2021-05-13T11:26:03Z</time>
      </trkpt>
      <trkpt lat="46.91108" lon="-0.86683">
        <ele>133.76</ele>
        <time>2021-05-13T11:26:15Z</time>
      </trkpt>
      <trkpt lat="46.91109" lon="-0.86683">
        <ele>133.28</ele>
        <time>2021-05-13T11:26:30Z</time>
      </trkpt>
      <trkpt lat="46.91104" lon="-0.86686">
        <ele>132.8</ele>
        <time>2021-05-13T11:26:51Z</time>
      </trkpt>
      <trkpt lat="46.91093" lon="-0.86682">
        <ele>131.36</ele>
        <time>2021-05-13T11:27:06Z</time>
      </trkpt>
      <trkpt lat="46.9109" lon="-0.86683">
        <ele>130.4</ele>
        <time>2021-05-13T11:27:30Z</time>
      </trkpt>
      <trkpt lat="46.91096" lon="-0.86682">
        <ele>129.92</ele>
        <time>2021-05-13T11:27:48Z</time>
      </trkpt>
      <trkpt lat="46.91099" lon="-0.86686">
        <ele>129.92</ele>
        <time>2021-05-13T11:28:03Z</time>
      </trkpt>
      <trkpt lat="46.91107" lon="-0.8669">
        <ele>128.95</ele>
        <time>2021-05-13T11:28:25Z</time>
      </trkpt>
      <trkpt lat="46.911" lon="-0.86685">
        <ele>128.47</ele>
        <time>2021-05-13T11:28:46Z</time>
      </trkpt>
      <trkpt lat="46.91101" lon="-0.8668">
        <ele>127.99</ele>
        <time>2021-05-13T11:29:14Z</time>
      </trkpt>
      <trkpt lat="46.91098" lon="-0.86689">
        <ele>127.03</ele>
        <time>2021-05-13T11:29:35Z</time>
      </trkpt>
      <trkpt lat="46.91103" lon="-0.86696">
        <ele>126.55</ele>
        <time>2021-05-13T11:30:02Z</time>
      </trkpt>
      <trkpt lat="46.911" lon="-0.86693">
        <ele>125.59</ele>
        <time>2021-05-13T11:30:31Z</time>
      </trkpt>
      <trkpt lat="46.911" lon="-0.86693">
        <ele>125.59</ele>
        <time>2021-05-13T11:30:33Z</time>
      </trkpt>
      <trkpt lat="46.91098" lon="-0.86693">
        <ele>124.63</ele>
        <time>2021-05-13T11:30:50Z</time>
      </trkpt>
      <trkpt lat="46.91098" lon="-0.86693">
        <ele>123.67</ele>
        <time>2021-05-13T11:31:12Z</time>
      </trkpt>
      <trkpt lat="46.91098" lon="-0.86695">
        <ele>123.19</ele>
        <time>2021-05-13T11:31:35Z</time>
      </trkpt>
      <trkpt lat="46.91098" lon="-0.86694">
        <ele>122.71</ele>
        <time>2021-05-13T11:31:51Z</time>
      </trkpt>
      <trkpt lat="46.91102" lon="-0.86695">
        <ele>123.19</ele>
        <time>2021-05-13T11:32:04Z</time>
      </trkpt>
      <trkpt lat="46.91099" lon="-0.86691">
        <ele>123.67</ele>
        <time>2021-05-13T11:32:17Z</time>
      </trkpt>
      <trkpt lat="46.91103" lon="-0.8669">
        <ele>122.71</ele>
        <time>2021-05-13T11:32:39Z</time>
      </trkpt>
      <trkpt lat="46.91109" lon="-0.86686">
        <ele>122.22</ele>
        <time>2021-05-13T11:33:00Z</time>
      </trkpt>
      <trkpt lat="46.91103" lon="-0.86687">
        <ele>121.74</ele>
        <time>2021-05-13T11:33:24Z</time>
      </trkpt>
      <trkpt lat="46.91103" lon="-0.86686">
        <ele>121.26</ele>
        <time>2021-05-13T11:33:44Z</time>
      </trkpt>
      <trkpt lat="46.911" lon="-0.86684">
        <ele>120.78</ele>
        <time>2021-05-13T11:34:05Z</time>
      </trkpt>
      <trkpt lat="46.91105" lon="-0.86684">
        <ele>120.3</ele>
        <time>2021-05-13T11:34:27Z</time>
      </trkpt>
      <trkpt lat="46.91102" lon="-0.86685">
        <ele>119.82</ele>
        <time>2021-05-13T11:34:51Z</time>
      </trkpt>
      <trkpt lat="46.91108" lon="-0.86687">
        <ele>119.82</ele>
        <time>2021-05-13T11:35:14Z</time>
      </trkpt>
      <trkpt lat="46.91116" lon="-0.86695">
        <ele>119.82</ele>
        <time>2021-05-13T11:35:26Z</time>
      </trkpt>
      <trkpt lat="46.91121" lon="-0.86706">
        <ele>119.82</ele>
        <time>2021-05-13T11:35:41Z</time>
      </trkpt>
      <trkpt lat="46.91123" lon="-0.86711">
        <ele>118.38</ele>
        <time>2021-05-13T11:35:47Z</time>
      </trkpt>
      <trkpt lat="46.91126" lon="-0.86715">
        <ele>118.38</ele>
        <time>2021-05-13T11:35:50Z</time>
      </trkpt>
      <trkpt lat="46.91134" lon="-0.86722">
        <ele>118.38</ele>
        <time>2021-05-13T11:36:02Z</time>
      </trkpt>
      <trkpt lat="46.91137" lon="-0.86724">
        <ele>119.82</ele>
        <time>2021-05-13T11:36:06Z</time>
      </trkpt>
      <trkpt lat="46.91148" lon="-0.86731">
        <ele>120.78</ele>
        <time>2021-05-13T11:36:19Z</time>
      </trkpt>
      <trkpt lat="46.91159" lon="-0.86734">
        <ele>119.34</ele>
        <time>2021-05-13T11:36:33Z</time>
      </trkpt>
      <trkpt lat="46.91164" lon="-0.86734">
        <ele>118.86</ele>
        <time>2021-05-13T11:36:39Z</time>
      </trkpt>
      <trkpt lat="46.91178" lon="-0.8674">
        <ele>116.94</ele>
        <time>2021-05-13T11:36:55Z</time>
      </trkpt>
      <trkpt lat="46.91183" lon="-0.86744">
        <ele>116.46</ele>
        <time>2021-05-13T11:37:13Z</time>
      </trkpt>
      <trkpt lat="46.91189" lon="-0.86757">
        <ele>116.46</ele>
        <time>2021-05-13T11:37:29Z</time>
      </trkpt>
      <trkpt lat="46.91198" lon="-0.86774">
        <ele>118.38</ele>
        <time>2021-05-13T11:37:54Z</time>
      </trkpt>
      <trkpt lat="46.91201" lon="-0.86786">
        <ele>119.34</ele>
        <time>2021-05-13T11:38:09Z</time>
      </trkpt>
      <trkpt lat="46.91206" lon="-0.86806">
        <ele>121.26</ele>
        <time>2021-05-13T11:38:29Z</time>
      </trkpt>
      <trkpt lat="46.91214" lon="-0.86824">
        <ele>121.74</ele>
        <time>2021-05-13T11:38:45Z</time>
      </trkpt>
      <trkpt lat="46.91231" lon="-0.86851">
        <ele>120.78</ele>
        <time>2021-05-13T11:39:08Z</time>
      </trkpt>
      <trkpt lat="46.91237" lon="-0.86854">
        <ele>120.3</ele>
        <time>2021-05-13T11:39:14Z</time>
      </trkpt>
      <trkpt lat="46.91245" lon="-0.86864">
        <ele>117.42</ele>
        <time>2021-05-13T11:39:28Z</time>
      </trkpt>
      <trkpt lat="46.91257" lon="-0.86874">
        <ele>114.05</ele>
        <time>2021-05-13T11:39:45Z</time>
      </trkpt>
      <trkpt lat="46.9127" lon="-0.86877">
        <ele>112.61</ele>
        <time>2021-05-13T11:40:03Z</time>
      </trkpt>
      <trkpt lat="46.91293" lon="-0.86879">
        <ele>111.65</ele>
        <time>2021-05-13T11:40:21Z</time>
      </trkpt>
      <trkpt lat="46.91311" lon="-0.86881">
        <ele>113.57</ele>
        <time>2021-05-13T11:40:41Z</time>
      </trkpt>
      <trkpt lat="46.91325" lon="-0.86889">
        <ele>115.5</ele>
        <time>2021-05-13T11:41:01Z</time>
      </trkpt>
      <trkpt lat="46.91328" lon="-0.86892">
        <ele>115.5</ele>
        <time>2021-05-13T11:41:05Z</time>
      </trkpt>
      <trkpt lat="46.91331" lon="-0.86898">
        <ele>115.5</ele>
        <time>2021-05-13T11:41:10Z</time>
      </trkpt>
      <trkpt lat="46.9134" lon="-0.86924">
        <ele>115.98</ele>
        <time>2021-05-13T11:41:32Z</time>
      </trkpt>
      <trkpt lat="46.91338" lon="-0.86938">
        <ele>116.46</ele>
        <time>2021-05-13T11:41:43Z</time>
      </trkpt>
      <trkpt lat="46.91341" lon="-0.86967">
        <ele>113.57</ele>
        <time>2021-05-13T11:42:00Z</time>
      </trkpt>
      <trkpt lat="46.91344" lon="-0.86992">
        <ele>112.13</ele>
        <time>2021-05-13T11:42:15Z</time>
      </trkpt>
      <trkpt lat="46.91361" lon="-0.87013">
        <ele>110.69</ele>
        <time>2021-05-13T11:42:34Z</time>
      </trkpt>
      <trkpt lat="46.91378" lon="-0.87023">
        <ele>111.17</ele>
        <time>2021-05-13T11:42:51Z</time>
      </trkpt>
      <trkpt lat="46.91407" lon="-0.8704">
        <ele>111.17</ele>
        <time>2021-05-13T11:43:14Z</time>
      </trkpt>
      <trkpt lat="46.91423" lon="-0.8705">
        <ele>111.17</ele>
        <time>2021-05-13T11:43:34Z</time>
      </trkpt>
      <trkpt lat="46.91444" lon="-0.8706">
        <ele>111.17</ele>
        <time>2021-05-13T11:43:48Z</time>
      </trkpt>
      <trkpt lat="46.91459" lon="-0.87078">
        <ele>112.61</ele>
        <time>2021-05-13T11:44:05Z</time>
      </trkpt>
      <trkpt lat="46.91459" lon="-0.87079">
        <ele>112.61</ele>
        <time>2021-05-13T11:44:06Z</time>
      </trkpt>
      <trkpt lat="46.91468" lon="-0.87096">
        <ele>112.61</ele>
        <time>2021-05-13T11:44:19Z</time>
      </trkpt>
      <trkpt lat="46.91474" lon="-0.87105">
        <ele>112.61</ele>
        <time>2021-05-13T11:44:27Z</time>
      </trkpt>
      <trkpt lat="46.91484" lon="-0.8712">
        <ele>112.61</ele>
        <time>2021-05-13T11:44:39Z</time>
      </trkpt>
      <trkpt lat="46.91492" lon="-0.87144">
        <ele>112.61</ele>
        <time>2021-05-13T11:44:55Z</time>
      </trkpt>
      <trkpt lat="46.91494" lon="-0.8715">
        <ele>112.61</ele>
        <time>2021-05-13T11:44:59Z</time>
      </trkpt>
      <trkpt lat="46.915" lon="-0.87181">
        <ele>112.61</ele>
        <time>2021-05-13T11:45:16Z</time>
      </trkpt>
      <trkpt lat="46.91509" lon="-0.87205">
        <ele>112.61</ele>
        <time>2021-05-13T11:45:33Z</time>
      </trkpt>
      <trkpt lat="46.91516" lon="-0.87229">
        <ele>112.61</ele>
        <time>2021-05-13T11:45:48Z</time>
      </trkpt>
      <trkpt lat="46.91526" lon="-0.87253">
        <ele>113.09</ele>
        <time>2021-05-13T11:46:05Z</time>
      </trkpt>
      <trkpt lat="46.91537" lon="-0.87279">
        <ele>113.09</ele>
        <time>2021-05-13T11:46:22Z</time>
      </trkpt>
      <trkpt lat="46.91558" lon="-0.87302">
        <ele>113.09</ele>
        <time>2021-05-13T11:46:41Z</time>
      </trkpt>
      <trkpt lat="46.91575" lon="-0.8732">
        <ele>113.09</ele>
        <time>2021-05-13T11:46:58Z</time>
      </trkpt>
      <trkpt lat="46.91591" lon="-0.87338">
        <ele>113.09</ele>
        <time>2021-05-13T11:47:14Z</time>
      </trkpt>
      <trkpt lat="46.91595" lon="-0.87341">
        <ele>113.09</ele>
        <time>2021-05-13T11:47:17Z</time>
      </trkpt>
      <trkpt lat="46.91611" lon="-0.87352">
        <ele>113.57</ele>
        <time>2021-05-13T11:47:32Z</time>
      </trkpt>
      <trkpt lat="46.91621" lon="-0.87362">
        <ele>112.13</ele>
        <time>2021-05-13T11:47:42Z</time>
      </trkpt>
      <trkpt lat="46.91624" lon="-0.87375">
        <ele>112.13</ele>
        <time>2021-05-13T11:47:49Z</time>
      </trkpt>
      <trkpt lat="46.91631" lon="-0.87393">
        <ele>112.13</ele>
        <time>2021-05-13T11:48:01Z</time>
      </trkpt>
      <trkpt lat="46.91634" lon="-0.87396">
        <ele>112.13</ele>
        <time>2021-05-13T11:48:04Z</time>
      </trkpt>
      <trkpt lat="46.9164" lon="-0.87402">
        <ele>112.13</ele>
        <time>2021-05-13T11:48:10Z</time>
      </trkpt>
      <trkpt lat="46.91666" lon="-0.87414">
        <ele>112.13</ele>
        <time>2021-05-13T11:48:31Z</time>
      </trkpt>
      <trkpt lat="46.9169" lon="-0.87427">
        <ele>112.61</ele>
        <time>2021-05-13T11:48:50Z</time>
      </trkpt>
      <trkpt lat="46.91715" lon="-0.87439">
        <ele>112.61</ele>
        <time>2021-05-13T11:49:09Z</time>
      </trkpt>
      <trkpt lat="46.91737" lon="-0.87449">
        <ele>112.61</ele>
        <time>2021-05-13T11:49:28Z</time>
      </trkpt>
      <trkpt lat="46.91754" lon="-0.87446">
        <ele>112.61</ele>
        <time>2021-05-13T11:49:44Z</time>
      </trkpt>
      <trkpt lat="46.91773" lon="-0.87451">
        <ele>112.13</ele>
        <time>2021-05-13T11:50:00Z</time>
      </trkpt>
      <trkpt lat="46.91796" lon="-0.87455">
        <ele>112.13</ele>
        <time>2021-05-13T11:50:16Z</time>
      </trkpt>
      <trkpt lat="46.91821" lon="-0.87454">
        <ele>112.13</ele>
        <time>2021-05-13T11:50:36Z</time>
      </trkpt>
      <trkpt lat="46.91842" lon="-0.87451">
        <ele>112.13</ele>
        <time>2021-05-13T11:50:52Z</time>
      </trkpt>
      <trkpt lat="46.91857" lon="-0.8745">
        <ele>112.13</ele>
        <time>2021-05-13T11:51:06Z</time>
      </trkpt>
      <trkpt lat="46.91877" lon="-0.87449">
        <ele>111.65</ele>
        <time>2021-05-13T11:51:21Z</time>
      </trkpt>
      <trkpt lat="46.91894" lon="-0.87448">
        <ele>111.65</ele>
        <time>2021-05-13T11:51:35Z</time>
      </trkpt>
      <trkpt lat="46.91906" lon="-0.87444">
        <ele>111.65</ele>
        <time>2021-05-13T11:51:50Z</time>
      </trkpt>
      <trkpt lat="46.9192" lon="-0.87439">
        <ele>111.65</ele>
        <time>2021-05-13T11:52:04Z</time>
      </trkpt>
      <trkpt lat="46.9194" lon="-0.87438">
        <ele>111.17</ele>
        <time>2021-05-13T11:52:18Z</time>
      </trkpt>
      <trkpt lat="46.91958" lon="-0.87424">
        <ele>111.17</ele>
        <time>2021-05-13T11:52:34Z</time>
      </trkpt>
      <trkpt lat="46.91971" lon="-0.87412">
        <ele>111.17</ele>
        <time>2021-05-13T11:52:49Z</time>
      </trkpt>
      <trkpt lat="46.91977" lon="-0.87405">
        <ele>111.17</ele>
        <time>2021-05-13T11:52:55Z</time>
      </trkpt>
      <trkpt lat="46.91982" lon="-0.87398">
        <ele>111.17</ele>
        <time>2021-05-13T11:52:59Z</time>
      </trkpt>
      <trkpt lat="46.91997" lon="-0.87379">
        <ele>110.69</ele>
        <time>2021-05-13T11:53:14Z</time>
      </trkpt>
      <trkpt lat="46.92023" lon="-0.87365">
        <ele>112.13</ele>
        <time>2021-05-13T11:53:35Z</time>
      </trkpt>
      <trkpt lat="46.92042" lon="-0.87356">
        <ele>112.13</ele>
        <time>2021-05-13T11:53:50Z</time>
      </trkpt>
      <trkpt lat="46.92066" lon="-0.8734">
        <ele>112.13</ele>
        <time>2021-05-13T11:54:11Z</time>
      </trkpt>
      <trkpt lat="46.92069" lon="-0.87337">
        <ele>110.69</ele>
        <time>2021-05-13T11:54:17Z</time>
      </trkpt>
      <trkpt lat="46.92072" lon="-0.87335">
        <ele>110.69</ele>
        <time>2021-05-13T11:54:19Z</time>
      </trkpt>
      <trkpt lat="46.92082" lon="-0.87329">
        <ele>110.69</ele>
        <time>2021-05-13T11:54:35Z</time>
      </trkpt>
      <trkpt lat="46.92098" lon="-0.87335">
        <ele>109.73</ele>
        <time>2021-05-13T11:54:51Z</time>
      </trkpt>
      <trkpt lat="46.92106" lon="-0.87332">
        <ele>109.73</ele>
        <time>2021-05-13T11:55:02Z</time>
      </trkpt>
      <trkpt lat="46.9212" lon="-0.87327">
        <ele>109.73</ele>
        <time>2021-05-13T11:55:17Z</time>
      </trkpt>
      <trkpt lat="46.92134" lon="-0.87332">
        <ele>109.73</ele>
        <time>2021-05-13T11:55:32Z</time>
      </trkpt>
      <trkpt lat="46.92144" lon="-0.8734">
        <ele>111.65</ele>
        <time>2021-05-13T11:55:47Z</time>
      </trkpt>
      <trkpt lat="46.92145" lon="-0.87356">
        <ele>111.17</ele>
        <time>2021-05-13T11:55:59Z</time>
      </trkpt>
      <trkpt lat="46.9215" lon="-0.87369">
        <ele>111.17</ele>
        <time>2021-05-13T11:56:16Z</time>
      </trkpt>
      <trkpt lat="46.92152" lon="-0.87371">
        <ele>111.17</ele>
        <time>2021-05-13T11:56:33Z</time>
      </trkpt>
      <trkpt lat="46.92157" lon="-0.87378">
        <ele>110.21</ele>
        <time>2021-05-13T11:56:46Z</time>
      </trkpt>
      <trkpt lat="46.92166" lon="-0.87394">
        <ele>110.21</ele>
        <time>2021-05-13T11:57:01Z</time>
      </trkpt>
      <trkpt lat="46.92169" lon="-0.87395">
        <ele>110.21</ele>
        <time>2021-05-13T11:57:05Z</time>
      </trkpt>
      <trkpt lat="46.92184" lon="-0.87398">
        <ele>110.21</ele>
        <time>2021-05-13T11:57:22Z</time>
      </trkpt>
      <trkpt lat="46.92189" lon="-0.874">
        <ele>110.21</ele>
        <time>2021-05-13T11:57:36Z</time>
      </trkpt>
      <trkpt lat="46.92201" lon="-0.87401">
        <ele>110.21</ele>
        <time>2021-05-13T11:57:47Z</time>
      </trkpt>
      <trkpt lat="46.92212" lon="-0.87402">
        <ele>110.21</ele>
        <time>2021-05-13T11:58:01Z</time>
      </trkpt>
      <trkpt lat="46.9222" lon="-0.87401">
        <ele>110.21</ele>
        <time>2021-05-13T11:58:16Z</time>
      </trkpt>
      <trkpt lat="46.92231" lon="-0.87404">
        <ele>110.21</ele>
        <time>2021-05-13T11:58:31Z</time>
      </trkpt>
      <trkpt lat="46.92233" lon="-0.87403">
        <ele>110.21</ele>
        <time>2021-05-13T11:58:44Z</time>
      </trkpt>
      <trkpt lat="46.92236" lon="-0.87401">
        <ele>110.69</ele>
        <time>2021-05-13T11:58:59Z</time>
      </trkpt>
      <trkpt lat="46.92236" lon="-0.87398">
        <ele>110.69</ele>
        <time>2021-05-13T11:59:18Z</time>
      </trkpt>
      <trkpt lat="46.92236" lon="-0.87397">
        <ele>110.69</ele>
        <time>2021-05-13T11:59:41Z</time>
      </trkpt>
      <trkpt lat="46.92234" lon="-0.87395">
        <ele>110.69</ele>
        <time>2021-05-13T12:00:02Z</time>
      </trkpt>
      <trkpt lat="46.92232" lon="-0.87393">
        <ele>111.17</ele>
        <time>2021-05-13T12:00:24Z</time>
      </trkpt>
      <trkpt lat="46.92233" lon="-0.87394">
        <ele>111.17</ele>
        <time>2021-05-13T12:00:46Z</time>
      </trkpt>
      <trkpt lat="46.92235" lon="-0.87391">
        <ele>111.17</ele>
        <time>2021-05-13T12:01:09Z</time>
      </trkpt>
      <trkpt lat="46.92235" lon="-0.8739">
        <ele>111.17</ele>
        <time>2021-05-13T12:01:24Z</time>
      </trkpt>
      <trkpt lat="46.92234" lon="-0.87392">
        <ele>111.17</ele>
        <time>2021-05-13T12:01:41Z</time>
      </trkpt>
      <trkpt lat="46.92232" lon="-0.87392">
        <ele>111.17</ele>
        <time>2021-05-13T12:02:00Z</time>
      </trkpt>
      <trkpt lat="46.92232" lon="-0.87388">
        <ele>111.65</ele>
        <time>2021-05-13T12:02:17Z</time>
      </trkpt>
      <trkpt lat="46.92226" lon="-0.87401">
        <ele>111.65</ele>
        <time>2021-05-13T12:02:32Z</time>
      </trkpt>
      <trkpt lat="46.92225" lon="-0.87412">
        <ele>111.65</ele>
        <time>2021-05-13T12:02:39Z</time>
      </trkpt>
      <trkpt lat="46.92222" lon="-0.87444">
        <ele>114.53</ele>
        <time>2021-05-13T12:02:58Z</time>
      </trkpt>
      <trkpt lat="46.92228" lon="-0.87467">
        <ele>115.01</ele>
        <time>2021-05-13T12:03:14Z</time>
      </trkpt>
      <trkpt lat="46.92243" lon="-0.87467">
        <ele>115.98</ele>
        <time>2021-05-13T12:03:26Z</time>
      </trkpt>
      <trkpt lat="46.92253" lon="-0.87467">
        <ele>115.98</ele>
        <time>2021-05-13T12:03:33Z</time>
      </trkpt>
      <trkpt lat="46.92271" lon="-0.87455">
        <ele>115.98</ele>
        <time>2021-05-13T12:03:52Z</time>
      </trkpt>
      <trkpt lat="46.92282" lon="-0.87448">
        <ele>115.98</ele>
        <time>2021-05-13T12:04:02Z</time>
      </trkpt>
      <trkpt lat="46.92287" lon="-0.87447">
        <ele>115.98</ele>
        <time>2021-05-13T12:04:06Z</time>
      </trkpt>
      <trkpt lat="46.92314" lon="-0.87438">
        <ele>115.98</ele>
        <time>2021-05-13T12:04:26Z</time>
      </trkpt>
      <trkpt lat="46.92334" lon="-0.87433">
        <ele>115.01</ele>
        <time>2021-05-13T12:04:43Z</time>
      </trkpt>
      <trkpt lat="46.92357" lon="-0.87426">
        <ele>114.53</ele>
        <time>2021-05-13T12:05:01Z</time>
      </trkpt>
      <trkpt lat="46.92363" lon="-0.87425">
        <ele>114.53</ele>
        <time>2021-05-13T12:05:05Z</time>
      </trkpt>
      <trkpt lat="46.92378" lon="-0.87422">
        <ele>114.05</ele>
        <time>2021-05-13T12:05:21Z</time>
      </trkpt>
      <trkpt lat="46.92389" lon="-0.87426">
        <ele>114.05</ele>
        <time>2021-05-13T12:05:37Z</time>
      </trkpt>
      <trkpt lat="46.9242" lon="-0.87425">
        <ele>115.5</ele>
        <time>2021-05-13T12:05:59Z</time>
      </trkpt>
      <trkpt lat="46.92444" lon="-0.87423">
        <ele>115.5</ele>
        <time>2021-05-13T12:06:19Z</time>
      </trkpt>
      <trkpt lat="46.92467" lon="-0.87415">
        <ele>115.98</ele>
        <time>2021-05-13T12:06:40Z</time>
      </trkpt>
      <trkpt lat="46.92491" lon="-0.87418">
        <ele>115.98</ele>
        <time>2021-05-13T12:06:57Z</time>
      </trkpt>
      <trkpt lat="46.92511" lon="-0.87416">
        <ele>115.98</ele>
        <time>2021-05-13T12:07:14Z</time>
      </trkpt>
      <trkpt lat="46.92513" lon="-0.87413">
        <ele>115.98</ele>
        <time>2021-05-13T12:07:17Z</time>
      </trkpt>
      <trkpt lat="46.92542" lon="-0.87407">
        <ele>115.01</ele>
        <time>2021-05-13T12:07:35Z</time>
      </trkpt>
      <trkpt lat="46.92563" lon="-0.87409">
        <ele>115.01</ele>
        <time>2021-05-13T12:07:52Z</time>
      </trkpt>
      <trkpt lat="46.92581" lon="-0.87422">
        <ele>114.53</ele>
        <time>2021-05-13T12:08:11Z</time>
      </trkpt>
      <trkpt lat="46.92593" lon="-0.87434">
        <ele>117.9</ele>
        <time>2021-05-13T12:08:30Z</time>
      </trkpt>
      <trkpt lat="46.92611" lon="-0.8744">
        <ele>121.26</ele>
        <time>2021-05-13T12:08:49Z</time>
      </trkpt>
      <trkpt lat="46.92632" lon="-0.8744">
        <ele>124.63</ele>
        <time>2021-05-13T12:09:10Z</time>
      </trkpt>
      <trkpt lat="46.92649" lon="-0.8744">
        <ele>126.07</ele>
        <time>2021-05-13T12:09:24Z</time>
      </trkpt>
      <trkpt lat="46.9267" lon="-0.87431">
        <ele>126.07</ele>
        <time>2021-05-13T12:09:44Z</time>
      </trkpt>
      <trkpt lat="46.92689" lon="-0.87408">
        <ele>128.47</ele>
        <time>2021-05-13T12:10:08Z</time>
      </trkpt>
      <trkpt lat="46.92695" lon="-0.87398">
        <ele>127.51</ele>
        <time>2021-05-13T12:10:15Z</time>
      </trkpt>
      <trkpt lat="46.92709" lon="-0.87381">
        <ele>124.15</ele>
        <time>2021-05-13T12:10:31Z</time>
      </trkpt>
      <trkpt lat="46.92726" lon="-0.87354">
        <ele>121.26</ele>
        <time>2021-05-13T12:10:53Z</time>
      </trkpt>
      <trkpt lat="46.9274" lon="-0.87336">
        <ele>117.9</ele>
        <time>2021-05-13T12:11:12Z</time>
      </trkpt>
      <trkpt lat="46.92764" lon="-0.87316">
        <ele>115.01</ele>
        <time>2021-05-13T12:11:31Z</time>
      </trkpt>
      <trkpt lat="46.92793" lon="-0.87318">
        <ele>114.53</ele>
        <time>2021-05-13T12:11:54Z</time>
      </trkpt>
      <trkpt lat="46.92817" lon="-0.87323">
        <ele>115.01</ele>
        <time>2021-05-13T12:12:15Z</time>
      </trkpt>
      <trkpt lat="46.92845" lon="-0.87318">
        <ele>115.01</ele>
        <time>2021-05-13T12:12:38Z</time>
      </trkpt>
      <trkpt lat="46.92864" lon="-0.87307">
        <ele>115.01</ele>
        <time>2021-05-13T12:12:57Z</time>
      </trkpt>
      <trkpt lat="46.92874" lon="-0.87278">
        <ele>115.01</ele>
        <time>2021-05-13T12:13:13Z</time>
      </trkpt>
      <trkpt lat="46.92883" lon="-0.87252">
        <ele>115.01</ele>
        <time>2021-05-13T12:13:30Z</time>
      </trkpt>
      <trkpt lat="46.9289" lon="-0.87232">
        <ele>115.01</ele>
        <time>2021-05-13T12:13:45Z</time>
      </trkpt>
      <trkpt lat="46.92892" lon="-0.87229">
        <ele>115.01</ele>
        <time>2021-05-13T12:13:48Z</time>
      </trkpt>
      <trkpt lat="46.92895" lon="-0.87222">
        <ele>115.01</ele>
        <time>2021-05-13T12:13:53Z</time>
      </trkpt>
      <trkpt lat="46.92908" lon="-0.87189">
        <ele>114.53</ele>
        <time>2021-05-13T12:14:13Z</time>
      </trkpt>
      <trkpt lat="46.92914" lon="-0.87155">
        <ele>114.05</ele>
        <time>2021-05-13T12:14:31Z</time>
      </trkpt>
      <trkpt lat="46.92915" lon="-0.87152">
        <ele>114.05</ele>
        <time>2021-05-13T12:14:32Z</time>
      </trkpt>
      <trkpt lat="46.92915" lon="-0.87139">
        <ele>114.05</ele>
        <time>2021-05-13T12:14:38Z</time>
      </trkpt>
      <trkpt lat="46.92916" lon="-0.8712">
        <ele>114.05</ele>
        <time>2021-05-13T12:14:53Z</time>
      </trkpt>
      <trkpt lat="46.92916" lon="-0.87092">
        <ele>115.01</ele>
        <time>2021-05-13T12:15:08Z</time>
      </trkpt>
      <trkpt lat="46.92911" lon="-0.8707">
        <ele>115.01</ele>
        <time>2021-05-13T12:15:22Z</time>
      </trkpt>
      <trkpt lat="46.92901" lon="-0.87046">
        <ele>113.57</ele>
        <time>2021-05-13T12:15:37Z</time>
      </trkpt>
      <trkpt lat="46.92888" lon="-0.87022">
        <ele>115.5</ele>
        <time>2021-05-13T12:15:53Z</time>
      </trkpt>
      <trkpt lat="46.92882" lon="-0.86997">
        <ele>115.01</ele>
        <time>2021-05-13T12:16:08Z</time>
      </trkpt>
      <trkpt lat="46.92891" lon="-0.86976">
        <ele>115.5</ele>
        <time>2021-05-13T12:16:24Z</time>
      </trkpt>
      <trkpt lat="46.92905" lon="-0.86952">
        <ele>115.5</ele>
        <time>2021-05-13T12:16:44Z</time>
      </trkpt>
      <trkpt lat="46.92919" lon="-0.86928">
        <ele>116.46</ele>
        <time>2021-05-13T12:17:00Z</time>
      </trkpt>
      <trkpt lat="46.92938" lon="-0.8691">
        <ele>115.98</ele>
        <time>2021-05-13T12:17:15Z</time>
      </trkpt>
      <trkpt lat="46.92962" lon="-0.86903">
        <ele>115.98</ele>
        <time>2021-05-13T12:17:34Z</time>
      </trkpt>
      <trkpt lat="46.92965" lon="-0.86906">
        <ele>115.01</ele>
        <time>2021-05-13T12:17:37Z</time>
      </trkpt>
      <trkpt lat="46.9297" lon="-0.86914">
        <ele>114.53</ele>
        <time>2021-05-13T12:17:43Z</time>
      </trkpt>
      <trkpt lat="46.9298" lon="-0.86926">
        <ele>114.53</ele>
        <time>2021-05-13T12:17:57Z</time>
      </trkpt>
      <trkpt lat="46.92999" lon="-0.86938">
        <ele>114.05</ele>
        <time>2021-05-13T12:18:13Z</time>
      </trkpt>
      <trkpt lat="46.93004" lon="-0.86942">
        <ele>114.05</ele>
        <time>2021-05-13T12:18:18Z</time>
      </trkpt>
      <trkpt lat="46.93008" lon="-0.86945">
        <ele>115.01</ele>
        <time>2021-05-13T12:18:22Z</time>
      </trkpt>
      <trkpt lat="46.9302" lon="-0.86949">
        <ele>115.01</ele>
        <time>2021-05-13T12:18:32Z</time>
      </trkpt>
      <trkpt lat="46.93041" lon="-0.86947">
        <ele>114.05</ele>
        <time>2021-05-13T12:18:49Z</time>
      </trkpt>
      <trkpt lat="46.93061" lon="-0.86943">
        <ele>113.57</ele>
        <time>2021-05-13T12:19:04Z</time>
      </trkpt>
      <trkpt lat="46.93077" lon="-0.86942">
        <ele>115.01</ele>
        <time>2021-05-13T12:19:17Z</time>
      </trkpt>
      <trkpt lat="46.93098" lon="-0.8694">
        <ele>115.5</ele>
        <time>2021-05-13T12:19:34Z</time>
      </trkpt>
      <trkpt lat="46.93115" lon="-0.86946">
        <ele>114.05</ele>
        <time>2021-05-13T12:19:50Z</time>
      </trkpt>
      <trkpt lat="46.9313" lon="-0.86953">
        <ele>113.57</ele>
        <time>2021-05-13T12:20:05Z</time>
      </trkpt>
      <trkpt lat="46.93138" lon="-0.86953">
        <ele>113.57</ele>
        <time>2021-05-13T12:20:12Z</time>
      </trkpt>
      <trkpt lat="46.93164" lon="-0.86945">
        <ele>113.09</ele>
        <time>2021-05-13T12:20:31Z</time>
      </trkpt>
      <trkpt lat="46.93184" lon="-0.8695">
        <ele>112.61</ele>
        <time>2021-05-13T12:20:47Z</time>
      </trkpt>
      <trkpt lat="46.93208" lon="-0.8695">
        <ele>112.13</ele>
        <time>2021-05-13T12:21:04Z</time>
      </trkpt>
      <trkpt lat="46.93234" lon="-0.86953">
        <ele>112.13</ele>
        <time>2021-05-13T12:21:22Z</time>
      </trkpt>
      <trkpt lat="46.93256" lon="-0.86954">
        <ele>112.13</ele>
        <time>2021-05-13T12:21:36Z</time>
      </trkpt>
      <trkpt lat="46.93272" lon="-0.86961">
        <ele>112.13</ele>
        <time>2021-05-13T12:21:50Z</time>
      </trkpt>
      <trkpt lat="46.93276" lon="-0.8697">
        <ele>113.57</ele>
        <time>2021-05-13T12:21:59Z</time>
      </trkpt>
      <trkpt lat="46.93281" lon="-0.86989">
        <ele>114.05</ele>
        <time>2021-05-13T12:22:11Z</time>
      </trkpt>
      <trkpt lat="46.93289" lon="-0.87033">
        <ele>115.01</ele>
        <time>2021-05-13T12:22:30Z</time>
      </trkpt>
      <trkpt lat="46.93297" lon="-0.87064">
        <ele>115.98</ele>
        <time>2021-05-13T12:22:47Z</time>
      </trkpt>
      <trkpt lat="46.93301" lon="-0.87089">
        <ele>117.9</ele>
        <time>2021-05-13T12:23:06Z</time>
      </trkpt>
      <trkpt lat="46.9331" lon="-0.87105">
        <ele>119.82</ele>
        <time>2021-05-13T12:23:22Z</time>
      </trkpt>
      <trkpt lat="46.93315" lon="-0.87114">
        <ele>120.3</ele>
        <time>2021-05-13T12:23:32Z</time>
      </trkpt>
      <trkpt lat="46.93323" lon="-0.87139">
        <ele>122.22</ele>
        <time>2021-05-13T12:23:50Z</time>
      </trkpt>
      <trkpt lat="46.93325" lon="-0.87167">
        <ele>125.59</ele>
        <time>2021-05-13T12:24:09Z</time>
      </trkpt>
      <trkpt lat="46.93334" lon="-0.87199">
        <ele>126.07</ele>
        <time>2021-05-13T12:24:28Z</time>
      </trkpt>
      <trkpt lat="46.93337" lon="-0.87203">
        <ele>124.63</ele>
        <time>2021-05-13T12:24:31Z</time>
      </trkpt>
      <trkpt lat="46.93354" lon="-0.87211">
        <ele>123.19</ele>
        <time>2021-05-13T12:24:47Z</time>
      </trkpt>
      <trkpt lat="46.93379" lon="-0.87216">
        <ele>122.71</ele>
        <time>2021-05-13T12:25:04Z</time>
      </trkpt>
      <trkpt lat="46.93382" lon="-0.8722">
        <ele>122.71</ele>
        <time>2021-05-13T12:25:08Z</time>
      </trkpt>
      <trkpt lat="46.93384" lon="-0.87226">
        <ele>122.71</ele>
        <time>2021-05-13T12:25:12Z</time>
      </trkpt>
      <trkpt lat="46.93381" lon="-0.87242">
        <ele>122.71</ele>
        <time>2021-05-13T12:25:23Z</time>
      </trkpt>
      <trkpt lat="46.93378" lon="-0.87252">
        <ele>123.67</ele>
        <time>2021-05-13T12:25:31Z</time>
      </trkpt>
      <trkpt lat="46.93372" lon="-0.87279">
        <ele>125.11</ele>
        <time>2021-05-13T12:25:48Z</time>
      </trkpt>
      <trkpt lat="46.93361" lon="-0.87318">
        <ele>126.55</ele>
        <time>2021-05-13T12:26:07Z</time>
      </trkpt>
      <trkpt lat="46.93351" lon="-0.87339">
        <ele>127.99</ele>
        <time>2021-05-13T12:26:23Z</time>
      </trkpt>
      <trkpt lat="46.9335" lon="-0.87347">
        <ele>127.99</ele>
        <time>2021-05-13T12:26:28Z</time>
      </trkpt>
      <trkpt lat="46.93358" lon="-0.87363">
        <ele>127.99</ele>
        <time>2021-05-13T12:26:43Z</time>
      </trkpt>
      <trkpt lat="46.93382" lon="-0.87365">
        <ele>127.99</ele>
        <time>2021-05-13T12:27:06Z</time>
      </trkpt>
      <trkpt lat="46.93389" lon="-0.87369">
        <ele>128.47</ele>
        <time>2021-05-13T12:27:11Z</time>
      </trkpt>
      <trkpt lat="46.93393" lon="-0.8737">
        <ele>128.47</ele>
        <time>2021-05-13T12:27:13Z</time>
      </trkpt>
      <trkpt lat="46.93417" lon="-0.87379">
        <ele>129.92</ele>
        <time>2021-05-13T12:27:34Z</time>
      </trkpt>
      <trkpt lat="46.9344" lon="-0.87385">
        <ele>129.92</ele>
        <time>2021-05-13T12:27:55Z</time>
      </trkpt>
      <trkpt lat="46.93464" lon="-0.87399">
        <ele>130.4</ele>
        <time>2021-05-13T12:28:16Z</time>
      </trkpt>
      <trkpt lat="46.93484" lon="-0.87405">
        <ele>131.36</ele>
        <time>2021-05-13T12:28:34Z</time>
      </trkpt>
      <trkpt lat="46.93504" lon="-0.87415">
        <ele>131.84</ele>
        <time>2021-05-13T12:28:53Z</time>
      </trkpt>
      <trkpt lat="46.93523" lon="-0.87427">
        <ele>132.8</ele>
        <time>2021-05-13T12:29:10Z</time>
      </trkpt>
      <trkpt lat="46.93526" lon="-0.87432">
        <ele>133.28</ele>
        <time>2021-05-13T12:29:14Z</time>
      </trkpt>
      <trkpt lat="46.9354" lon="-0.87448">
        <ele>134.24</ele>
        <time>2021-05-13T12:29:29Z</time>
      </trkpt>
      <trkpt lat="46.93544" lon="-0.87476">
        <ele>133.28</ele>
        <time>2021-05-13T12:29:47Z</time>
      </trkpt>
      <trkpt lat="46.93541" lon="-0.87489">
        <ele>131.84</ele>
        <time>2021-05-13T12:29:57Z</time>
      </trkpt>
      <trkpt lat="46.93518" lon="-0.87484">
        <ele>131.84</ele>
        <time>2021-05-13T12:30:17Z</time>
      </trkpt>
      <trkpt lat="46.93498" lon="-0.87497">
        <ele>129.92</ele>
        <time>2021-05-13T12:30:35Z</time>
      </trkpt>
      <trkpt lat="46.93495" lon="-0.87509">
        <ele>129.92</ele>
        <time>2021-05-13T12:30:49Z</time>
      </trkpt>
      <trkpt lat="46.93497" lon="-0.87512">
        <ele>129.92</ele>
        <time>2021-05-13T12:31:00Z</time>
      </trkpt>
      <trkpt lat="46.93499" lon="-0.87531">
        <ele>128.47</ele>
        <time>2021-05-13T12:31:14Z</time>
      </trkpt>
      <trkpt lat="46.93513" lon="-0.8755">
        <ele>127.99</ele>
        <time>2021-05-13T12:31:30Z</time>
      </trkpt>
      <trkpt lat="46.93523" lon="-0.8756">
        <ele>125.59</ele>
        <time>2021-05-13T12:31:43Z</time>
      </trkpt>
      <trkpt lat="46.93545" lon="-0.87583">
        <ele>123.67</ele>
        <time>2021-05-13T12:32:04Z</time>
      </trkpt>
      <trkpt lat="46.93564" lon="-0.87591">
        <ele>125.11</ele>
        <time>2021-05-13T12:32:20Z</time>
      </trkpt>
      <trkpt lat="46.9358" lon="-0.87607">
        <ele>127.03</ele>
        <time>2021-05-13T12:32:38Z</time>
      </trkpt>
      <trkpt lat="46.93598" lon="-0.87623">
        <ele>130.4</ele>
        <time>2021-05-13T12:32:55Z</time>
      </trkpt>
      <trkpt lat="46.93621" lon="-0.87644">
        <ele>132.8</ele>
        <time>2021-05-13T12:33:17Z</time>
      </trkpt>
      <trkpt lat="46.93628" lon="-0.87648">
        <ele>134.72</ele>
        <time>2021-05-13T12:33:34Z</time>
      </trkpt>
      <trkpt lat="46.93628" lon="-0.87646">
        <ele>134.72</ele>
        <time>2021-05-13T12:33:56Z</time>
      </trkpt>
      <trkpt lat="46.93627" lon="-0.87648">
        <ele>135.2</ele>
        <time>2021-05-13T12:34:15Z</time>
      </trkpt>
      <trkpt lat="46.93628" lon="-0.87647">
        <ele>135.2</ele>
        <time>2021-05-13T12:34:38Z</time>
      </trkpt>
      <trkpt lat="46.9364" lon="-0.87658">
        <ele>136.16</ele>
        <time>2021-05-13T12:34:54Z</time>
      </trkpt>
      <trkpt lat="46.9365" lon="-0.87671">
        <ele>137.13</ele>
        <time>2021-05-13T12:35:07Z</time>
      </trkpt>
      <trkpt lat="46.93661" lon="-0.87703">
        <ele>138.09</ele>
        <time>2021-05-13T12:35:24Z</time>
      </trkpt>
      <trkpt lat="46.93663" lon="-0.87726">
        <ele>138.57</ele>
        <time>2021-05-13T12:35:40Z</time>
      </trkpt>
      <trkpt lat="46.93667" lon="-0.8775">
        <ele>138.57</ele>
        <time>2021-05-13T12:35:50Z</time>
      </trkpt>
      <trkpt lat="46.9367" lon="-0.87781">
        <ele>139.05</ele>
        <time>2021-05-13T12:36:07Z</time>
      </trkpt>
      <trkpt lat="46.93674" lon="-0.87801">
        <ele>137.13</ele>
        <time>2021-05-13T12:36:19Z</time>
      </trkpt>
      <trkpt lat="46.93686" lon="-0.87833">
        <ele>137.61</ele>
        <time>2021-05-13T12:36:38Z</time>
      </trkpt>
      <trkpt lat="46.93701" lon="-0.87866">
        <ele>135.68</ele>
        <time>2021-05-13T12:37:00Z</time>
      </trkpt>
      <trkpt lat="46.93718" lon="-0.87899">
        <ele>135.68</ele>
        <time>2021-05-13T12:37:21Z</time>
      </trkpt>
      <trkpt lat="46.93732" lon="-0.87928">
        <ele>135.2</ele>
        <time>2021-05-13T12:37:39Z</time>
      </trkpt>
      <trkpt lat="46.93738" lon="-0.87959">
        <ele>134.72</ele>
        <time>2021-05-13T12:37:56Z</time>
      </trkpt>
      <trkpt lat="46.93744" lon="-0.87996">
        <ele>134.24</ele>
        <time>2021-05-13T12:38:15Z</time>
      </trkpt>
      <trkpt lat="46.93751" lon="-0.88025">
        <ele>133.76</ele>
        <time>2021-05-13T12:38:32Z</time>
      </trkpt>
      <trkpt lat="46.93762" lon="-0.88042">
        <ele>133.28</ele>
        <time>2021-05-13T12:38:50Z</time>
      </trkpt>
      <trkpt lat="46.93762" lon="-0.88044">
        <ele>133.28</ele>
        <time>2021-05-13T12:39:21Z</time>
      </trkpt>
      <trkpt lat="46.93772" lon="-0.88051">
        <ele>133.28</ele>
        <time>2021-05-13T12:39:35Z</time>
      </trkpt>
      <trkpt lat="46.93795" lon="-0.88067">
        <ele>133.28</ele>
        <time>2021-05-13T12:39:56Z</time>
      </trkpt>
      <trkpt lat="46.93819" lon="-0.88087">
        <ele>134.24</ele>
        <time>2021-05-13T12:40:18Z</time>
      </trkpt>
      <trkpt lat="46.93837" lon="-0.88109">
        <ele>132.32</ele>
        <time>2021-05-13T12:40:36Z</time>
      </trkpt>
      <trkpt lat="46.93857" lon="-0.88133">
        <ele>130.88</ele>
        <time>2021-05-13T12:40:54Z</time>
      </trkpt>
      <trkpt lat="46.93874" lon="-0.8816">
        <ele>129.92</ele>
        <time>2021-05-13T12:41:14Z</time>
      </trkpt>
      <trkpt lat="46.93885" lon="-0.8819">
        <ele>129.92</ele>
        <time>2021-05-13T12:41:32Z</time>
      </trkpt>
      <trkpt lat="46.93886" lon="-0.88195">
        <ele>131.36</ele>
        <time>2021-05-13T12:41:35Z</time>
      </trkpt>
      <trkpt lat="46.93895" lon="-0.88225">
        <ele>133.28</ele>
        <time>2021-05-13T12:41:52Z</time>
      </trkpt>
      <trkpt lat="46.93905" lon="-0.88248">
        <ele>136.64</ele>
        <time>2021-05-13T12:42:09Z</time>
      </trkpt>
      <trkpt lat="46.93921" lon="-0.88266">
        <ele>139.53</ele>
        <time>2021-05-13T12:42:30Z</time>
      </trkpt>
      <trkpt lat="46.93922" lon="-0.88267">
        <ele>140.01</ele>
        <time>2021-05-13T12:42:31Z</time>
      </trkpt>
      <trkpt lat="46.93923" lon="-0.88267">
        <ele>140.01</ele>
        <time>2021-05-13T12:42:32Z</time>
      </trkpt>
      <trkpt lat="46.93942" lon="-0.88282">
        <ele>142.89</ele>
        <time>2021-05-13T12:42:54Z</time>
      </trkpt>
      <trkpt lat="46.93961" lon="-0.88293">
        <ele>144.82</ele>
        <time>2021-05-13T12:43:11Z</time>
      </trkpt>
      <trkpt lat="46.93977" lon="-0.88306">
        <ele>148.18</ele>
        <time>2021-05-13T12:43:29Z</time>
      </trkpt>
      <trkpt lat="46.93996" lon="-0.8832">
        <ele>151.06</ele>
        <time>2021-05-13T12:43:48Z</time>
      </trkpt>
      <trkpt lat="46.94018" lon="-0.88337">
        <ele>153.95</ele>
        <time>2021-05-13T12:44:10Z</time>
      </trkpt>
      <trkpt lat="46.94035" lon="-0.8835">
        <ele>156.35</ele>
        <time>2021-05-13T12:44:28Z</time>
      </trkpt>
      <trkpt lat="46.94056" lon="-0.88365">
        <ele>158.75</ele>
        <time>2021-05-13T12:44:47Z</time>
      </trkpt>
      <trkpt lat="46.94081" lon="-0.88382">
        <ele>160.68</ele>
        <time>2021-05-13T12:45:11Z</time>
      </trkpt>
      <trkpt lat="46.94104" lon="-0.88391">
        <ele>161.64</ele>
        <time>2021-05-13T12:45:30Z</time>
      </trkpt>
      <trkpt lat="46.94135" lon="-0.88399">
        <ele>163.56</ele>
        <time>2021-05-13T12:45:54Z</time>
      </trkpt>
      <trkpt lat="46.94158" lon="-0.88411">
        <ele>164.52</ele>
        <time>2021-05-13T12:46:13Z</time>
      </trkpt>
      <trkpt lat="46.9418" lon="-0.88433">
        <ele>164.52</ele>
        <time>2021-05-13T12:46:32Z</time>
      </trkpt>
      <trkpt lat="46.94203" lon="-0.88456">
        <ele>164.52</ele>
        <time>2021-05-13T12:46:53Z</time>
      </trkpt>
      <trkpt lat="46.94223" lon="-0.88477">
        <ele>164.52</ele>
        <time>2021-05-13T12:47:12Z</time>
      </trkpt>
      <trkpt lat="46.94227" lon="-0.88482">
        <ele>163.08</ele>
        <time>2021-05-13T12:47:16Z</time>
      </trkpt>
      <trkpt lat="46.94247" lon="-0.88511">
        <ele>162.6</ele>
        <time>2021-05-13T12:47:38Z</time>
      </trkpt>
      <trkpt lat="46.94267" lon="-0.88542">
        <ele>162.12</ele>
        <time>2021-05-13T12:48:01Z</time>
      </trkpt>
      <trkpt lat="46.94285" lon="-0.88575">
        <ele>162.6</ele>
        <time>2021-05-13T12:48:22Z</time>
      </trkpt>
      <trkpt lat="46.94299" lon="-0.88604">
        <ele>162.6</ele>
        <time>2021-05-13T12:48:40Z</time>
      </trkpt>
      <trkpt lat="46.9431" lon="-0.8863">
        <ele>163.56</ele>
        <time>2021-05-13T12:48:56Z</time>
      </trkpt>
      <trkpt lat="46.94319" lon="-0.88648">
        <ele>163.56</ele>
        <time>2021-05-13T12:49:14Z</time>
      </trkpt>
      <trkpt lat="46.94316" lon="-0.88653">
        <ele>163.56</ele>
        <time>2021-05-13T12:49:28Z</time>
      </trkpt>
      <trkpt lat="46.94314" lon="-0.88656">
        <ele>162.6</ele>
        <time>2021-05-13T12:49:36Z</time>
      </trkpt>
      <trkpt lat="46.94313" lon="-0.88669">
        <ele>162.6</ele>
        <time>2021-05-13T12:49:45Z</time>
      </trkpt>
      <trkpt lat="46.94298" lon="-0.88692">
        <ele>162.6</ele>
        <time>2021-05-13T12:50:05Z</time>
      </trkpt>
      <trkpt lat="46.94286" lon="-0.88717">
        <ele>163.56</ele>
        <time>2021-05-13T12:50:23Z</time>
      </trkpt>
      <trkpt lat="46.94281" lon="-0.88732">
        <ele>164.04</ele>
        <time>2021-05-13T12:50:33Z</time>
      </trkpt>
      <trkpt lat="46.94281" lon="-0.88734">
        <ele>164.04</ele>
        <time>2021-05-13T12:50:34Z</time>
      </trkpt>
      <trkpt lat="46.94281" lon="-0.88736">
        <ele>164.04</ele>
        <time>2021-05-13T12:50:35Z</time>
      </trkpt>
      <trkpt lat="46.94287" lon="-0.88767">
        <ele>165.48</ele>
        <time>2021-05-13T12:50:54Z</time>
      </trkpt>
      <trkpt lat="46.94292" lon="-0.88792">
        <ele>165.48</ele>
        <time>2021-05-13T12:51:09Z</time>
      </trkpt>
      <trkpt lat="46.94296" lon="-0.88822">
        <ele>165.48</ele>
        <time>2021-05-13T12:51:28Z</time>
      </trkpt>
      <trkpt lat="46.94296" lon="-0.88824">
        <ele>165.48</ele>
        <time>2021-05-13T12:51:29Z</time>
      </trkpt>
      <trkpt lat="46.943" lon="-0.88853">
        <ele>165.48</ele>
        <time>2021-05-13T12:51:45Z</time>
      </trkpt>
      <trkpt lat="46.94308" lon="-0.88881">
        <ele>165.48</ele>
        <time>2021-05-13T12:52:01Z</time>
      </trkpt>
      <trkpt lat="46.94321" lon="-0.88915">
        <ele>165.48</ele>
        <time>2021-05-13T12:52:18Z</time>
      </trkpt>
      <trkpt lat="46.94327" lon="-0.88943">
        <ele>165.96</ele>
        <time>2021-05-13T12:52:37Z</time>
      </trkpt>
      <trkpt lat="46.9433" lon="-0.88969">
        <ele>166.93</ele>
        <time>2021-05-13T12:52:54Z</time>
      </trkpt>
      <trkpt lat="46.94333" lon="-0.88995">
        <ele>167.41</ele>
        <time>2021-05-13T12:53:12Z</time>
      </trkpt>
      <trkpt lat="46.9434" lon="-0.89018">
        <ele>167.89</ele>
        <time>2021-05-13T12:53:29Z</time>
      </trkpt>
      <trkpt lat="46.94342" lon="-0.89019">
        <ele>167.89</ele>
        <time>2021-05-13T12:53:31Z</time>
      </trkpt>
      <trkpt lat="46.94363" lon="-0.89031">
        <ele>169.33</ele>
        <time>2021-05-13T12:53:46Z</time>
      </trkpt>
      <trkpt lat="46.94364" lon="-0.89033">
        <ele>169.81</ele>
        <time>2021-05-13T12:53:52Z</time>
      </trkpt>
      <trkpt lat="46.94366" lon="-0.89033">
        <ele>169.81</ele>
        <time>2021-05-13T12:53:53Z</time>
      </trkpt>
      <trkpt lat="46.94367" lon="-0.89034">
        <ele>169.81</ele>
        <time>2021-05-13T12:53:54Z</time>
      </trkpt>
      <trkpt lat="46.94368" lon="-0.89034">
        <ele>169.81</ele>
        <time>2021-05-13T12:53:55Z</time>
      </trkpt>
      <trkpt lat="46.9437" lon="-0.89034">
        <ele>170.29</ele>
        <time>2021-05-13T12:53:56Z</time>
      </trkpt>
      <trkpt lat="46.94391" lon="-0.89043">
        <ele>171.25</ele>
        <time>2021-05-13T12:54:14Z</time>
      </trkpt>
      <trkpt lat="46.94413" lon="-0.89053">
        <ele>172.69</ele>
        <time>2021-05-13T12:54:35Z</time>
      </trkpt>
      <trkpt lat="46.94435" lon="-0.89064">
        <ele>172.69</ele>
        <time>2021-05-13T12:54:55Z</time>
      </trkpt>
      <trkpt lat="46.94456" lon="-0.89072">
        <ele>172.69</ele>
        <time>2021-05-13T12:55:13Z</time>
      </trkpt>
      <trkpt lat="46.94476" lon="-0.8908">
        <ele>173.66</ele>
        <time>2021-05-13T12:55:29Z</time>
      </trkpt>
      <trkpt lat="46.94492" lon="-0.89087">
        <ele>173.66</ele>
        <time>2021-05-13T12:55:42Z</time>
      </trkpt>
      <trkpt lat="46.94495" lon="-0.89088">
        <ele>173.66</ele>
        <time>2021-05-13T12:55:44Z</time>
      </trkpt>
      <trkpt lat="46.94496" lon="-0.89089">
        <ele>173.66</ele>
        <time>2021-05-13T12:55:45Z</time>
      </trkpt>
      <trkpt lat="46.94503" lon="-0.89108">
        <ele>173.66</ele>
        <time>2021-05-13T12:55:59Z</time>
      </trkpt>
      <trkpt lat="46.94504" lon="-0.89138">
        <ele>174.62</ele>
        <time>2021-05-13T12:56:17Z</time>
      </trkpt>
      <trkpt lat="46.94506" lon="-0.89169">
        <ele>175.1</ele>
        <time>2021-05-13T12:56:32Z</time>
      </trkpt>
      <trkpt lat="46.94509" lon="-0.89183">
        <ele>173.66</ele>
        <time>2021-05-13T12:56:40Z</time>
      </trkpt>
      <trkpt lat="46.94515" lon="-0.89205">
        <ele>175.1</ele>
        <time>2021-05-13T12:56:53Z</time>
      </trkpt>
      <trkpt lat="46.94532" lon="-0.89228">
        <ele>175.1</ele>
        <time>2021-05-13T12:57:10Z</time>
      </trkpt>
      <trkpt lat="46.94559" lon="-0.89243">
        <ele>173.66</ele>
        <time>2021-05-13T12:57:29Z</time>
      </trkpt>
      <trkpt lat="46.94577" lon="-0.8926">
        <ele>173.66</ele>
        <time>2021-05-13T12:57:46Z</time>
      </trkpt>
      <trkpt lat="46.94592" lon="-0.89276">
        <ele>173.66</ele>
        <time>2021-05-13T12:58:04Z</time>
      </trkpt>
      <trkpt lat="46.94595" lon="-0.8928">
        <ele>175.1</ele>
        <time>2021-05-13T12:58:07Z</time>
      </trkpt>
      <trkpt lat="46.94616" lon="-0.89295">
        <ele>175.1</ele>
        <time>2021-05-13T12:58:23Z</time>
      </trkpt>
      <trkpt lat="46.94634" lon="-0.89299">
        <ele>177.5</ele>
        <time>2021-05-13T12:58:39Z</time>
      </trkpt>
      <trkpt lat="46.94662" lon="-0.89293">
        <ele>177.98</ele>
        <time>2021-05-13T12:58:58Z</time>
      </trkpt>
      <trkpt lat="46.94688" lon="-0.89296">
        <ele>177.98</ele>
        <time>2021-05-13T12:59:19Z</time>
      </trkpt>
      <trkpt lat="46.94697" lon="-0.893">
        <ele>177.02</ele>
        <time>2021-05-13T12:59:27Z</time>
      </trkpt>
      <trkpt lat="46.94716" lon="-0.8931">
        <ele>175.58</ele>
        <time>2021-05-13T12:59:42Z</time>
      </trkpt>
      <trkpt lat="46.94735" lon="-0.89323">
        <ele>175.1</ele>
        <time>2021-05-13T13:00:02Z</time>
      </trkpt>
      <trkpt lat="46.94736" lon="-0.89324">
        <ele>175.1</ele>
        <time>2021-05-13T13:00:09Z</time>
      </trkpt>
      <trkpt lat="46.94736" lon="-0.89323">
        <ele>174.62</ele>
        <time>2021-05-13T13:00:19Z</time>
      </trkpt>
      <trkpt lat="46.94735" lon="-0.89323">
        <ele>174.62</ele>
        <time>2021-05-13T13:00:36Z</time>
      </trkpt>
      <trkpt lat="46.94737" lon="-0.89323">
        <ele>174.62</ele>
        <time>2021-05-13T13:00:46Z</time>
      </trkpt>
      <trkpt lat="46.94737" lon="-0.89327">
        <ele>174.62</ele>
        <time>2021-05-13T13:01:02Z</time>
      </trkpt>
      <trkpt lat="46.94737" lon="-0.89329">
        <ele>174.62</ele>
        <time>2021-05-13T13:01:18Z</time>
      </trkpt>
      <trkpt lat="46.94738" lon="-0.89328">
        <ele>174.62</ele>
        <time>2021-05-13T13:01:39Z</time>
      </trkpt>
      <trkpt lat="46.9474" lon="-0.89329">
        <ele>174.62</ele>
        <time>2021-05-13T13:01:43Z</time>
      </trkpt>
      <trkpt lat="46.94741" lon="-0.8933">
        <ele>174.62</ele>
        <time>2021-05-13T13:01:44Z</time>
      </trkpt>
      <trkpt lat="46.9475" lon="-0.8934">
        <ele>174.62</ele>
        <time>2021-05-13T13:01:56Z</time>
      </trkpt>
      <trkpt lat="46.94758" lon="-0.89343">
        <ele>174.62</ele>
        <time>2021-05-13T13:02:03Z</time>
      </trkpt>
      <trkpt lat="46.94759" lon="-0.89343">
        <ele>174.62</ele>
        <time>2021-05-13T13:02:04Z</time>
      </trkpt>
      <trkpt lat="46.94763" lon="-0.89345">
        <ele>174.62</ele>
        <time>2021-05-13T13:02:07Z</time>
      </trkpt>
      <trkpt lat="46.9477" lon="-0.89349">
        <ele>174.14</ele>
        <time>2021-05-13T13:02:13Z</time>
      </trkpt>
      <trkpt lat="46.94771" lon="-0.8935">
        <ele>174.14</ele>
        <time>2021-05-13T13:02:14Z</time>
      </trkpt>
      <trkpt lat="46.94772" lon="-0.89351">
        <ele>174.14</ele>
        <time>2021-05-13T13:02:15Z</time>
      </trkpt>
      <trkpt lat="46.94773" lon="-0.89352">
        <ele>174.14</ele>
        <time>2021-05-13T13:02:16Z</time>
      </trkpt>
      <trkpt lat="46.94774" lon="-0.89353">
        <ele>174.14</ele>
        <time>2021-05-13T13:02:17Z</time>
      </trkpt>
      <trkpt lat="46.94779" lon="-0.89357">
        <ele>174.14</ele>
        <time>2021-05-13T13:02:21Z</time>
      </trkpt>
      <trkpt lat="46.9478" lon="-0.89358">
        <ele>174.14</ele>
        <time>2021-05-13T13:02:22Z</time>
      </trkpt>
      <trkpt lat="46.94794" lon="-0.89375">
        <ele>173.66</ele>
        <time>2021-05-13T13:02:38Z</time>
      </trkpt>
      <trkpt lat="46.94804" lon="-0.89383">
        <ele>173.17</ele>
        <time>2021-05-13T13:02:55Z</time>
      </trkpt>
      <trkpt lat="46.94805" lon="-0.89384">
        <ele>173.17</ele>
        <time>2021-05-13T13:02:57Z</time>
      </trkpt>
      <trkpt lat="46.94806" lon="-0.89385">
        <ele>172.69</ele>
        <time>2021-05-13T13:02:58Z</time>
      </trkpt>
      <trkpt lat="46.9482" lon="-0.89398">
        <ele>171.73</ele>
        <time>2021-05-13T13:03:14Z</time>
      </trkpt>
      <trkpt lat="46.94833" lon="-0.89406">
        <ele>170.29</ele>
        <time>2021-05-13T13:03:35Z</time>
      </trkpt>
      <trkpt lat="46.94833" lon="-0.89408">
        <ele>170.29</ele>
        <time>2021-05-13T13:03:36Z</time>
      </trkpt>
      <trkpt lat="46.94832" lon="-0.89409">
        <ele>170.29</ele>
        <time>2021-05-13T13:03:37Z</time>
      </trkpt>
      <trkpt lat="46.9483" lon="-0.89417">
        <ele>171.73</ele>
        <time>2021-05-13T13:03:52Z</time>
      </trkpt>
      <trkpt lat="46.94827" lon="-0.89418">
        <ele>169.81</ele>
        <time>2021-05-13T13:04:15Z</time>
      </trkpt>
      <trkpt lat="46.94829" lon="-0.89425">
        <ele>172.21</ele>
        <time>2021-05-13T13:04:29Z</time>
      </trkpt>
      <trkpt lat="46.94828" lon="-0.89417">
        <ele>171.25</ele>
        <time>2021-05-13T13:04:47Z</time>
      </trkpt>
      <trkpt lat="46.94833" lon="-0.89405">
        <ele>171.25</ele>
        <time>2021-05-13T13:05:01Z</time>
      </trkpt>
      <trkpt lat="46.94834" lon="-0.89401">
        <ele>171.25</ele>
        <time>2021-05-13T13:05:04Z</time>
      </trkpt>
      <trkpt lat="46.94844" lon="-0.89376">
        <ele>169.81</ele>
        <time>2021-05-13T13:05:21Z</time>
      </trkpt>
      <trkpt lat="46.94856" lon="-0.89343">
        <ele>167.89</ele>
        <time>2021-05-13T13:05:41Z</time>
      </trkpt>
      <trkpt lat="46.94867" lon="-0.89309">
        <ele>166.93</ele>
        <time>2021-05-13T13:06:02Z</time>
      </trkpt>
      <trkpt lat="46.94877" lon="-0.89276">
        <ele>165.48</ele>
        <time>2021-05-13T13:06:21Z</time>
      </trkpt>
      <trkpt lat="46.94884" lon="-0.89251">
        <ele>164.04</ele>
        <time>2021-05-13T13:06:38Z</time>
      </trkpt>
      <trkpt lat="46.94885" lon="-0.89249">
        <ele>164.04</ele>
        <time>2021-05-13T13:06:39Z</time>
      </trkpt>
      <trkpt lat="46.94885" lon="-0.89247">
        <ele>163.56</ele>
        <time>2021-05-13T13:06:40Z</time>
      </trkpt>
      <trkpt lat="46.94895" lon="-0.8922">
        <ele>163.08</ele>
        <time>2021-05-13T13:06:57Z</time>
      </trkpt>
      <trkpt lat="46.94897" lon="-0.89202">
        <ele>161.64</ele>
        <time>2021-05-13T13:07:08Z</time>
      </trkpt>
      <trkpt lat="46.94896" lon="-0.892">
        <ele>161.64</ele>
        <time>2021-05-13T13:07:09Z</time>
      </trkpt>
      <trkpt lat="46.94881" lon="-0.89166">
        <ele>161.16</ele>
        <time>2021-05-13T13:07:29Z</time>
      </trkpt>
      <trkpt lat="46.94867" lon="-0.89141">
        <ele>161.16</ele>
        <time>2021-05-13T13:07:46Z</time>
      </trkpt>
      <trkpt lat="46.94866" lon="-0.89107">
        <ele>161.16</ele>
        <time>2021-05-13T13:08:02Z</time>
      </trkpt>
      <trkpt lat="46.94868" lon="-0.89102">
        <ele>163.08</ele>
        <time>2021-05-13T13:08:05Z</time>
      </trkpt>
      <trkpt lat="46.94872" lon="-0.8909">
        <ele>161.64</ele>
        <time>2021-05-13T13:08:12Z</time>
      </trkpt>
      <trkpt lat="46.94885" lon="-0.89058">
        <ele>159.72</ele>
        <time>2021-05-13T13:08:31Z</time>
      </trkpt>
      <trkpt lat="46.94895" lon="-0.89031">
        <ele>159.24</ele>
        <time>2021-05-13T13:08:48Z</time>
      </trkpt>
      <trkpt lat="46.949" lon="-0.89006">
        <ele>158.75</ele>
        <time>2021-05-13T13:09:02Z</time>
      </trkpt>
      <trkpt lat="46.94904" lon="-0.88979">
        <ele>157.79</ele>
        <time>2021-05-13T13:09:17Z</time>
      </trkpt>
      <trkpt lat="46.94922" lon="-0.88968">
        <ele>157.31</ele>
        <time>2021-05-13T13:09:31Z</time>
      </trkpt>
      <trkpt lat="46.94937" lon="-0.88963">
        <ele>155.87</ele>
        <time>2021-05-13T13:09:47Z</time>
      </trkpt>
      <trkpt lat="46.94953" lon="-0.88955">
        <ele>155.87</ele>
        <time>2021-05-13T13:10:01Z</time>
      </trkpt>
      <trkpt lat="46.9497" lon="-0.88949">
        <ele>154.43</ele>
        <time>2021-05-13T13:10:17Z</time>
      </trkpt>
      <trkpt lat="46.94971" lon="-0.88949">
        <ele>154.43</ele>
        <time>2021-05-13T13:10:18Z</time>
      </trkpt>
      <trkpt lat="46.94972" lon="-0.88949">
        <ele>154.43</ele>
        <time>2021-05-13T13:10:19Z</time>
      </trkpt>
      <trkpt lat="46.94974" lon="-0.8895">
        <ele>154.43</ele>
        <time>2021-05-13T13:10:20Z</time>
      </trkpt>
      <trkpt lat="46.94976" lon="-0.88951">
        <ele>154.43</ele>
        <time>2021-05-13T13:10:21Z</time>
      </trkpt>
      <trkpt lat="46.94978" lon="-0.88951">
        <ele>154.43</ele>
        <time>2021-05-13T13:10:22Z</time>
      </trkpt>
      <trkpt lat="46.94986" lon="-0.88952">
        <ele>152.99</ele>
        <time>2021-05-13T13:10:34Z</time>
      </trkpt>
      <trkpt lat="46.94992" lon="-0.88962">
        <ele>152.99</ele>
        <time>2021-05-13T13:10:47Z</time>
      </trkpt>
      <trkpt lat="46.95012" lon="-0.88954">
        <ele>152.99</ele>
        <time>2021-05-13T13:11:01Z</time>
      </trkpt>
      <trkpt lat="46.95028" lon="-0.88945">
        <ele>154.43</ele>
        <time>2021-05-13T13:11:12Z</time>
      </trkpt>
      <trkpt lat="46.95039" lon="-0.88947">
        <ele>154.43</ele>
        <time>2021-05-13T13:11:27Z</time>
      </trkpt>
      <trkpt lat="46.9504" lon="-0.88947">
        <ele>154.43</ele>
        <time>2021-05-13T13:11:28Z</time>
      </trkpt>
      <trkpt lat="46.95064" lon="-0.88951">
        <ele>154.43</ele>
        <time>2021-05-13T13:11:45Z</time>
      </trkpt>
      <trkpt lat="46.9507" lon="-0.88958">
        <ele>154.91</ele>
        <time>2021-05-13T13:11:56Z</time>
      </trkpt>
      <trkpt lat="46.95071" lon="-0.8896">
        <ele>155.39</ele>
        <time>2021-05-13T13:11:57Z</time>
      </trkpt>
      <trkpt lat="46.95073" lon="-0.88961">
        <ele>155.39</ele>
        <time>2021-05-13T13:11:58Z</time>
      </trkpt>
      <trkpt lat="46.95074" lon="-0.88962">
        <ele>155.39</ele>
        <time>2021-05-13T13:11:59Z</time>
      </trkpt>
      <trkpt lat="46.95075" lon="-0.88964">
        <ele>155.39</ele>
        <time>2021-05-13T13:12:00Z</time>
      </trkpt>
      <trkpt lat="46.95076" lon="-0.88965">
        <ele>155.39</ele>
        <time>2021-05-13T13:12:01Z</time>
      </trkpt>
      <trkpt lat="46.95077" lon="-0.88967">
        <ele>155.39</ele>
        <time>2021-05-13T13:12:02Z</time>
      </trkpt>
      <trkpt lat="46.95079" lon="-0.88969">
        <ele>155.39</ele>
        <time>2021-05-13T13:12:03Z</time>
      </trkpt>
      <trkpt lat="46.95093" lon="-0.88986">
        <ele>155.39</ele>
        <time>2021-05-13T13:12:17Z</time>
      </trkpt>
      <trkpt lat="46.95107" lon="-0.89004">
        <ele>154.43</ele>
        <time>2021-05-13T13:12:34Z</time>
      </trkpt>
      <trkpt lat="46.95113" lon="-0.89014">
        <ele>152.51</ele>
        <time>2021-05-13T13:12:44Z</time>
      </trkpt>
      <trkpt lat="46.95114" lon="-0.89016">
        <ele>152.51</ele>
        <time>2021-05-13T13:12:45Z</time>
      </trkpt>
      <trkpt lat="46.95126" lon="-0.89035">
        <ele>152.51</ele>
        <time>2021-05-13T13:12:59Z</time>
      </trkpt>
      <trkpt lat="46.95139" lon="-0.89054">
        <ele>151.06</ele>
        <time>2021-05-13T13:13:13Z</time>
      </trkpt>
      <trkpt lat="46.95141" lon="-0.89061">
        <ele>151.06</ele>
        <time>2021-05-13T13:13:18Z</time>
      </trkpt>
      <trkpt lat="46.9515" lon="-0.8908">
        <ele>151.06</ele>
        <time>2021-05-13T13:13:32Z</time>
      </trkpt>
      <trkpt lat="46.95155" lon="-0.89093">
        <ele>151.06</ele>
        <time>2021-05-13T13:13:49Z</time>
      </trkpt>
      <trkpt lat="46.95162" lon="-0.89107">
        <ele>152.03</ele>
        <time>2021-05-13T13:13:58Z</time>
      </trkpt>
      <trkpt lat="46.9518" lon="-0.89137">
        <ele>152.51</ele>
        <time>2021-05-13T13:14:18Z</time>
      </trkpt>
      <trkpt lat="46.95187" lon="-0.89153">
        <ele>153.47</ele>
        <time>2021-05-13T13:14:33Z</time>
      </trkpt>
      <trkpt lat="46.95188" lon="-0.89155">
        <ele>153.47</ele>
        <time>2021-05-13T13:14:34Z</time>
      </trkpt>
      <trkpt lat="46.95193" lon="-0.89186">
        <ele>153.47</ele>
        <time>2021-05-13T13:14:48Z</time>
      </trkpt>
      <trkpt lat="46.95192" lon="-0.89214">
        <ele>153.95</ele>
        <time>2021-05-13T13:15:05Z</time>
      </trkpt>
      <trkpt lat="46.95186" lon="-0.89238">
        <ele>153.95</ele>
        <time>2021-05-13T13:15:20Z</time>
      </trkpt>
      <trkpt lat="46.95185" lon="-0.89256">
        <ele>152.51</ele>
        <time>2021-05-13T13:15:28Z</time>
      </trkpt>
      <trkpt lat="46.95187" lon="-0.89277">
        <ele>152.03</ele>
        <time>2021-05-13T13:15:44Z</time>
      </trkpt>
      <trkpt lat="46.95192" lon="-0.89302">
        <ele>152.03</ele>
        <time>2021-05-13T13:15:59Z</time>
      </trkpt>
      <trkpt lat="46.95193" lon="-0.89304">
        <ele>152.03</ele>
        <time>2021-05-13T13:16:00Z</time>
      </trkpt>
      <trkpt lat="46.95193" lon="-0.89307">
        <ele>153.47</ele>
        <time>2021-05-13T13:16:02Z</time>
      </trkpt>
      <trkpt lat="46.95196" lon="-0.8932">
        <ele>152.03</ele>
        <time>2021-05-13T13:16:09Z</time>
      </trkpt>
      <trkpt lat="46.95195" lon="-0.89327">
        <ele>152.03</ele>
        <time>2021-05-13T13:16:20Z</time>
      </trkpt>
      <trkpt lat="46.95194" lon="-0.89328">
        <ele>152.03</ele>
        <time>2021-05-13T13:16:21Z</time>
      </trkpt>
      <trkpt lat="46.95191" lon="-0.89328">
        <ele>153.47</ele>
        <time>2021-05-13T13:16:25Z</time>
      </trkpt>
      <trkpt lat="46.95173" lon="-0.89331">
        <ele>153.47</ele>
        <time>2021-05-13T13:16:37Z</time>
      </trkpt>
      <trkpt lat="46.95159" lon="-0.89336">
        <ele>153.95</ele>
        <time>2021-05-13T13:16:54Z</time>
      </trkpt>
      <trkpt lat="46.95138" lon="-0.89345">
        <ele>153.95</ele>
        <time>2021-05-13T13:17:10Z</time>
      </trkpt>
      <trkpt lat="46.95128" lon="-0.89349">
        <ele>154.43</ele>
        <time>2021-05-13T13:17:22Z</time>
      </trkpt>
      <trkpt lat="46.95117" lon="-0.89346">
        <ele>156.35</ele>
        <time>2021-05-13T13:17:36Z</time>
      </trkpt>
      <trkpt lat="46.95116" lon="-0.89344">
        <ele>156.83</ele>
        <time>2021-05-13T13:17:54Z</time>
      </trkpt>
      <trkpt lat="46.95113" lon="-0.89342">
        <ele>156.83</ele>
        <time>2021-05-13T13:18:11Z</time>
      </trkpt>
      <trkpt lat="46.95113" lon="-0.89346">
        <ele>155.39</ele>
        <time>2021-05-13T13:18:27Z</time>
      </trkpt>
      <trkpt lat="46.95116" lon="-0.89346">
        <ele>156.83</ele>
        <time>2021-05-13T13:18:34Z</time>
      </trkpt>
      <trkpt lat="46.95117" lon="-0.89347">
        <ele>154.91</ele>
        <time>2021-05-13T13:18:43Z</time>
      </trkpt>
      <trkpt lat="46.95117" lon="-0.89353">
        <ele>156.35</ele>
        <time>2021-05-13T13:18:54Z</time>
      </trkpt>
      <trkpt lat="46.95118" lon="-0.8935">
        <ele>156.83</ele>
        <time>2021-05-13T13:19:07Z</time>
      </trkpt>
      <trkpt lat="46.95118" lon="-0.89347">
        <ele>155.39</ele>
        <time>2021-05-13T13:19:29Z</time>
      </trkpt>
      <trkpt lat="46.95119" lon="-0.89347">
        <ele>156.83</ele>
        <time>2021-05-13T13:19:37Z</time>
      </trkpt>
      <trkpt lat="46.95119" lon="-0.89347">
        <ele>155.39</ele>
        <time>2021-05-13T13:19:44Z</time>
      </trkpt>
      <trkpt lat="46.95119" lon="-0.89347">
        <ele>156.83</ele>
        <time>2021-05-13T13:19:50Z</time>
      </trkpt>
      <trkpt lat="46.95119" lon="-0.89348">
        <ele>156.35</ele>
        <time>2021-05-13T13:20:02Z</time>
      </trkpt>
      <trkpt lat="46.9512" lon="-0.89348">
        <ele>155.39</ele>
        <time>2021-05-13T13:20:05Z</time>
      </trkpt>
      <trkpt lat="46.95121" lon="-0.89347">
        <ele>154.91</ele>
        <time>2021-05-13T13:20:15Z</time>
      </trkpt>
      <trkpt lat="46.95122" lon="-0.89347">
        <ele>154.91</ele>
        <time>2021-05-13T13:20:16Z</time>
      </trkpt>
      <trkpt lat="46.95135" lon="-0.89347">
        <ele>153.95</ele>
        <time>2021-05-13T13:20:32Z</time>
      </trkpt>
      <trkpt lat="46.95155" lon="-0.89344">
        <ele>153.47</ele>
        <time>2021-05-13T13:20:49Z</time>
      </trkpt>
      <trkpt lat="46.95172" lon="-0.89338">
        <ele>153.47</ele>
        <time>2021-05-13T13:21:05Z</time>
      </trkpt>
      <trkpt lat="46.9518" lon="-0.89331">
        <ele>154.91</ele>
        <time>2021-05-13T13:21:11Z</time>
      </trkpt>
      <trkpt lat="46.95182" lon="-0.89328">
        <ele>153.47</ele>
        <time>2021-05-13T13:21:14Z</time>
      </trkpt>
      <trkpt lat="46.95193" lon="-0.89327">
        <ele>152.99</ele>
        <time>2021-05-13T13:21:29Z</time>
      </trkpt>
      <trkpt lat="46.95194" lon="-0.89327">
        <ele>152.99</ele>
        <time>2021-05-13T13:21:30Z</time>
      </trkpt>
      <trkpt lat="46.95196" lon="-0.89328">
        <ele>152.99</ele>
        <time>2021-05-13T13:21:32Z</time>
      </trkpt>
      <trkpt lat="46.95197" lon="-0.89329">
        <ele>152.99</ele>
        <time>2021-05-13T13:21:33Z</time>
      </trkpt>
      <trkpt lat="46.95198" lon="-0.89331">
        <ele>152.99</ele>
        <time>2021-05-13T13:21:34Z</time>
      </trkpt>
      <trkpt lat="46.95202" lon="-0.89338">
        <ele>152.99</ele>
        <time>2021-05-13T13:21:40Z</time>
      </trkpt>
      <trkpt lat="46.95216" lon="-0.89346">
        <ele>152.99</ele>
        <time>2021-05-13T13:21:54Z</time>
      </trkpt>
      <trkpt lat="46.95219" lon="-0.89354">
        <ele>152.51</ele>
        <time>2021-05-13T13:22:00Z</time>
      </trkpt>
      <trkpt lat="46.95225" lon="-0.89378">
        <ele>151.06</ele>
        <time>2021-05-13T13:22:14Z</time>
      </trkpt>
      <trkpt lat="46.95233" lon="-0.8941">
        <ele>151.06</ele>
        <time>2021-05-13T13:22:30Z</time>
      </trkpt>
      <trkpt lat="46.9524" lon="-0.89429">
        <ele>151.06</ele>
        <time>2021-05-13T13:22:46Z</time>
      </trkpt>
      <trkpt lat="46.95255" lon="-0.89456">
        <ele>151.06</ele>
        <time>2021-05-13T13:23:01Z</time>
      </trkpt>
      <trkpt lat="46.9526" lon="-0.89464">
        <ele>152.03</ele>
        <time>2021-05-13T13:23:10Z</time>
      </trkpt>
      <trkpt lat="46.95263" lon="-0.89477">
        <ele>152.03</ele>
        <time>2021-05-13T13:23:21Z</time>
      </trkpt>
      <trkpt lat="46.95264" lon="-0.89479">
        <ele>152.03</ele>
        <time>2021-05-13T13:23:22Z</time>
      </trkpt>
      <trkpt lat="46.95264" lon="-0.89481">
        <ele>152.03</ele>
        <time>2021-05-13T13:23:23Z</time>
      </trkpt>
      <trkpt lat="46.95272" lon="-0.89505">
        <ele>150.58</ele>
        <time>2021-05-13T13:23:33Z</time>
      </trkpt>
      <trkpt lat="46.95275" lon="-0.89517">
        <ele>150.58</ele>
        <time>2021-05-13T13:23:45Z</time>
      </trkpt>
      <trkpt lat="46.95282" lon="-0.89542">
        <ele>150.58</ele>
        <time>2021-05-13T13:23:59Z</time>
      </trkpt>
      <trkpt lat="46.95295" lon="-0.89562">
        <ele>152.03</ele>
        <time>2021-05-13T13:24:12Z</time>
      </trkpt>
      <trkpt lat="46.95297" lon="-0.8957">
        <ele>152.03</ele>
        <time>2021-05-13T13:24:18Z</time>
      </trkpt>
      <trkpt lat="46.95297" lon="-0.89571">
        <ele>152.03</ele>
        <time>2021-05-13T13:24:19Z</time>
      </trkpt>
      <trkpt lat="46.95298" lon="-0.89573">
        <ele>152.03</ele>
        <time>2021-05-13T13:24:20Z</time>
      </trkpt>
      <trkpt lat="46.95298" lon="-0.89575">
        <ele>150.58</ele>
        <time>2021-05-13T13:24:21Z</time>
      </trkpt>
      <trkpt lat="46.95299" lon="-0.89576">
        <ele>150.58</ele>
        <time>2021-05-13T13:24:22Z</time>
      </trkpt>
      <trkpt lat="46.95305" lon="-0.89593">
        <ele>150.58</ele>
        <time>2021-05-13T13:24:35Z</time>
      </trkpt>
      <trkpt lat="46.95315" lon="-0.89607">
        <ele>149.62</ele>
        <time>2021-05-13T13:24:48Z</time>
      </trkpt>
      <trkpt lat="46.95328" lon="-0.89627">
        <ele>148.18</ele>
        <time>2021-05-13T13:25:04Z</time>
      </trkpt>
      <trkpt lat="46.95351" lon="-0.8965">
        <ele>147.7</ele>
        <time>2021-05-13T13:25:26Z</time>
      </trkpt>
      <trkpt lat="46.95359" lon="-0.89662">
        <ele>147.7</ele>
        <time>2021-05-13T13:25:33Z</time>
      </trkpt>
      <trkpt lat="46.95362" lon="-0.89664">
        <ele>147.7</ele>
        <time>2021-05-13T13:25:34Z</time>
      </trkpt>
      <trkpt lat="46.95382" lon="-0.89679">
        <ele>147.7</ele>
        <time>2021-05-13T13:25:51Z</time>
      </trkpt>
      <trkpt lat="46.95399" lon="-0.89691">
        <ele>147.22</ele>
        <time>2021-05-13T13:26:07Z</time>
      </trkpt>
      <trkpt lat="46.95416" lon="-0.8971">
        <ele>145.78</ele>
        <time>2021-05-13T13:26:26Z</time>
      </trkpt>
      <trkpt lat="46.9543" lon="-0.89725">
        <ele>144.82</ele>
        <time>2021-05-13T13:26:44Z</time>
      </trkpt>
      <trkpt lat="46.95452" lon="-0.89736">
        <ele>144.82</ele>
        <time>2021-05-13T13:27:00Z</time>
      </trkpt>
      <trkpt lat="46.95471" lon="-0.8975">
        <ele>145.78</ele>
        <time>2021-05-13T13:27:18Z</time>
      </trkpt>
      <trkpt lat="46.95492" lon="-0.89766">
        <ele>145.78</ele>
        <time>2021-05-13T13:27:36Z</time>
      </trkpt>
      <trkpt lat="46.95495" lon="-0.89767">
        <ele>144.82</ele>
        <time>2021-05-13T13:27:39Z</time>
      </trkpt>
      <trkpt lat="46.95498" lon="-0.89768">
        <ele>144.34</ele>
        <time>2021-05-13T13:27:41Z</time>
      </trkpt>
      <trkpt lat="46.95499" lon="-0.89768">
        <ele>144.34</ele>
        <time>2021-05-13T13:27:42Z</time>
      </trkpt>
      <trkpt lat="46.955" lon="-0.89769">
        <ele>144.34</ele>
        <time>2021-05-13T13:27:43Z</time>
      </trkpt>
      <trkpt lat="46.95518" lon="-0.89776">
        <ele>143.85</ele>
        <time>2021-05-13T13:27:57Z</time>
      </trkpt>
      <trkpt lat="46.95542" lon="-0.89777">
        <ele>143.37</ele>
        <time>2021-05-13T13:28:16Z</time>
      </trkpt>
      <trkpt lat="46.95561" lon="-0.89777">
        <ele>142.41</ele>
        <time>2021-05-13T13:28:33Z</time>
      </trkpt>
      <trkpt lat="46.95579" lon="-0.89776">
        <ele>142.41</ele>
        <time>2021-05-13T13:28:46Z</time>
      </trkpt>
      <trkpt lat="46.95602" lon="-0.89781">
        <ele>140.49</ele>
        <time>2021-05-13T13:29:05Z</time>
      </trkpt>
      <trkpt lat="46.95602" lon="-0.89785">
        <ele>139.05</ele>
        <time>2021-05-13T13:29:08Z</time>
      </trkpt>
      <trkpt lat="46.95602" lon="-0.89786">
        <ele>139.05</ele>
        <time>2021-05-13T13:29:09Z</time>
      </trkpt>
      <trkpt lat="46.95601" lon="-0.89787">
        <ele>139.05</ele>
        <time>2021-05-13T13:29:10Z</time>
      </trkpt>
      <trkpt lat="46.956" lon="-0.89788">
        <ele>139.05</ele>
        <time>2021-05-13T13:29:11Z</time>
      </trkpt>
      <trkpt lat="46.95598" lon="-0.89788">
        <ele>139.05</ele>
        <time>2021-05-13T13:29:12Z</time>
      </trkpt>
      <trkpt lat="46.95597" lon="-0.89788">
        <ele>139.05</ele>
        <time>2021-05-13T13:29:13Z</time>
      </trkpt>
      <trkpt lat="46.95574" lon="-0.89799">
        <ele>137.61</ele>
        <time>2021-05-13T13:29:33Z</time>
      </trkpt>
      <trkpt lat="46.95572" lon="-0.89805">
        <ele>137.13</ele>
        <time>2021-05-13T13:29:36Z</time>
      </trkpt>
      <trkpt lat="46.95571" lon="-0.89813">
        <ele>138.09</ele>
        <time>2021-05-13T13:29:42Z</time>
      </trkpt>
      <trkpt lat="46.9557" lon="-0.89814">
        <ele>138.09</ele>
        <time>2021-05-13T13:29:43Z</time>
      </trkpt>
      <trkpt lat="46.95569" lon="-0.89815">
        <ele>138.09</ele>
        <time>2021-05-13T13:29:44Z</time>
      </trkpt>
      <trkpt lat="46.95568" lon="-0.89815">
        <ele>138.09</ele>
        <time>2021-05-13T13:29:45Z</time>
      </trkpt>
      <trkpt lat="46.95567" lon="-0.89815">
        <ele>138.09</ele>
        <time>2021-05-13T13:29:46Z</time>
      </trkpt>
      <trkpt lat="46.95563" lon="-0.89817">
        <ele>138.09</ele>
        <time>2021-05-13T13:29:50Z</time>
      </trkpt>
      <trkpt lat="46.95563" lon="-0.89819">
        <ele>138.09</ele>
        <time>2021-05-13T13:29:51Z</time>
      </trkpt>
      <trkpt lat="46.95562" lon="-0.89821">
        <ele>138.09</ele>
        <time>2021-05-13T13:29:52Z</time>
      </trkpt>
      <trkpt lat="46.95563" lon="-0.89823">
        <ele>138.09</ele>
        <time>2021-05-13T13:29:53Z</time>
      </trkpt>
      <trkpt lat="46.95563" lon="-0.89825">
        <ele>138.09</ele>
        <time>2021-05-13T13:29:54Z</time>
      </trkpt>
      <trkpt lat="46.95566" lon="-0.89829">
        <ele>136.64</ele>
        <time>2021-05-13T13:29:57Z</time>
      </trkpt>
      <trkpt lat="46.95567" lon="-0.8983">
        <ele>135.68</ele>
        <time>2021-05-13T13:30:00Z</time>
      </trkpt>
      <trkpt lat="46.95568" lon="-0.89846">
        <ele>132.8</ele>
        <time>2021-05-13T13:30:12Z</time>
      </trkpt>
      <trkpt lat="46.95569" lon="-0.8985">
        <ele>132.32</ele>
        <time>2021-05-13T13:30:16Z</time>
      </trkpt>
      <trkpt lat="46.9557" lon="-0.89852">
        <ele>132.32</ele>
        <time>2021-05-13T13:30:17Z</time>
      </trkpt>
      <trkpt lat="46.95571" lon="-0.89853">
        <ele>131.84</ele>
        <time>2021-05-13T13:30:18Z</time>
      </trkpt>
      <trkpt lat="46.95573" lon="-0.89855">
        <ele>131.84</ele>
        <time>2021-05-13T13:30:19Z</time>
      </trkpt>
      <trkpt lat="46.95574" lon="-0.89856">
        <ele>131.84</ele>
        <time>2021-05-13T13:30:20Z</time>
      </trkpt>
      <trkpt lat="46.95576" lon="-0.89856">
        <ele>131.84</ele>
        <time>2021-05-13T13:30:21Z</time>
      </trkpt>
      <trkpt lat="46.95578" lon="-0.89856">
        <ele>131.84</ele>
        <time>2021-05-13T13:30:22Z</time>
      </trkpt>
      <trkpt lat="46.95593" lon="-0.89855">
        <ele>131.36</ele>
        <time>2021-05-13T13:30:36Z</time>
      </trkpt>
      <trkpt lat="46.95624" lon="-0.89847">
        <ele>131.36</ele>
        <time>2021-05-13T13:30:59Z</time>
      </trkpt>
      <trkpt lat="46.95645" lon="-0.89843">
        <ele>130.88</ele>
        <time>2021-05-13T13:31:18Z</time>
      </trkpt>
      <trkpt lat="46.95664" lon="-0.89844">
        <ele>129.92</ele>
        <time>2021-05-13T13:31:31Z</time>
      </trkpt>
      <trkpt lat="46.95664" lon="-0.89846">
        <ele>129.92</ele>
        <time>2021-05-13T13:31:32Z</time>
      </trkpt>
      <trkpt lat="46.95665" lon="-0.89848">
        <ele>129.92</ele>
        <time>2021-05-13T13:31:33Z</time>
      </trkpt>
      <trkpt lat="46.95665" lon="-0.8985">
        <ele>129.92</ele>
        <time>2021-05-13T13:31:34Z</time>
      </trkpt>
      <trkpt lat="46.95666" lon="-0.89852">
        <ele>129.92</ele>
        <time>2021-05-13T13:31:35Z</time>
      </trkpt>
      <trkpt lat="46.95665" lon="-0.89878">
        <ele>129.92</ele>
        <time>2021-05-13T13:31:50Z</time>
      </trkpt>
      <trkpt lat="46.95671" lon="-0.89907">
        <ele>129.92</ele>
        <time>2021-05-13T13:32:07Z</time>
      </trkpt>
      <trkpt lat="46.95673" lon="-0.8991">
        <ele>129.92</ele>
        <time>2021-05-13T13:32:09Z</time>
      </trkpt>
      <trkpt lat="46.95674" lon="-0.89911">
        <ele>129.92</ele>
        <time>2021-05-13T13:32:10Z</time>
      </trkpt>
      <trkpt lat="46.95683" lon="-0.89918">
        <ele>131.36</ele>
        <time>2021-05-13T13:32:19Z</time>
      </trkpt>
      <trkpt lat="46.95702" lon="-0.8993">
        <ele>131.36</ele>
        <time>2021-05-13T13:32:35Z</time>
      </trkpt>
      <trkpt lat="46.95719" lon="-0.89941">
        <ele>131.36</ele>
        <time>2021-05-13T13:32:49Z</time>
      </trkpt>
      <trkpt lat="46.95723" lon="-0.89944">
        <ele>131.36</ele>
        <time>2021-05-13T13:32:53Z</time>
      </trkpt>
      <trkpt lat="46.95724" lon="-0.89945">
        <ele>131.36</ele>
        <time>2021-05-13T13:32:54Z</time>
      </trkpt>
      <trkpt lat="46.95725" lon="-0.89946">
        <ele>131.36</ele>
        <time>2021-05-13T13:32:55Z</time>
      </trkpt>
      <trkpt lat="46.95746" lon="-0.89961">
        <ele>130.88</ele>
        <time>2021-05-13T13:33:12Z</time>
      </trkpt>
      <trkpt lat="46.95758" lon="-0.89973">
        <ele>130.88</ele>
        <time>2021-05-13T13:33:24Z</time>
      </trkpt>
      <trkpt lat="46.9576" lon="-0.89974">
        <ele>130.88</ele>
        <time>2021-05-13T13:33:25Z</time>
      </trkpt>
      <trkpt lat="46.95779" lon="-0.89988">
        <ele>130.88</ele>
        <time>2021-05-13T13:33:39Z</time>
      </trkpt>
      <trkpt lat="46.95794" lon="-0.89994">
        <ele>130.88</ele>
        <time>2021-05-13T13:33:52Z</time>
      </trkpt>
      <trkpt lat="46.9581" lon="-0.89995">
        <ele>130.88</ele>
        <time>2021-05-13T13:34:06Z</time>
      </trkpt>
      <trkpt lat="46.9582" lon="-0.89991">
        <ele>130.88</ele>
        <time>2021-05-13T13:34:20Z</time>
      </trkpt>
      <trkpt lat="46.95821" lon="-0.89995">
        <ele>130.88</ele>
        <time>2021-05-13T13:34:55Z</time>
      </trkpt>
      <trkpt lat="46.95832" lon="-0.89998">
        <ele>131.36</ele>
        <time>2021-05-13T13:35:09Z</time>
      </trkpt>
      <trkpt lat="46.95846" lon="-0.89991">
        <ele>131.36</ele>
        <time>2021-05-13T13:35:22Z</time>
      </trkpt>
      <trkpt lat="46.9586" lon="-0.8998">
        <ele>131.36</ele>
        <time>2021-05-13T13:35:38Z</time>
      </trkpt>
      <trkpt lat="46.95861" lon="-0.8998">
        <ele>131.36</ele>
        <time>2021-05-13T13:35:39Z</time>
      </trkpt>
      <trkpt lat="46.95862" lon="-0.89979">
        <ele>131.36</ele>
        <time>2021-05-13T13:35:40Z</time>
      </trkpt>
      <trkpt lat="46.95863" lon="-0.89979">
        <ele>131.36</ele>
        <time>2021-05-13T13:35:41Z</time>
      </trkpt>
      <trkpt lat="46.95864" lon="-0.89978">
        <ele>131.36</ele>
        <time>2021-05-13T13:35:42Z</time>
      </trkpt>
      <trkpt lat="46.95866" lon="-0.89977">
        <ele>131.36</ele>
        <time>2021-05-13T13:35:43Z</time>
      </trkpt>
      <trkpt lat="46.95867" lon="-0.89977">
        <ele>131.36</ele>
        <time>2021-05-13T13:35:44Z</time>
      </trkpt>
      <trkpt lat="46.95869" lon="-0.89976">
        <ele>131.36</ele>
        <time>2021-05-13T13:35:45Z</time>
      </trkpt>
      <trkpt lat="46.95883" lon="-0.8997">
        <ele>131.36</ele>
        <time>2021-05-13T13:35:56Z</time>
      </trkpt>
      <trkpt lat="46.95898" lon="-0.89971">
        <ele>131.36</ele>
        <time>2021-05-13T13:36:10Z</time>
      </trkpt>
      <trkpt lat="46.95917" lon="-0.89977">
        <ele>131.84</ele>
        <time>2021-05-13T13:36:25Z</time>
      </trkpt>
      <trkpt lat="46.9592" lon="-0.89979">
        <ele>131.84</ele>
        <time>2021-05-13T13:36:45Z</time>
      </trkpt>
      <trkpt lat="46.95926" lon="-0.89984">
        <ele>131.84</ele>
        <time>2021-05-13T13:36:55Z</time>
      </trkpt>
      <trkpt lat="46.95929" lon="-0.89992">
        <ele>129.92</ele>
        <time>2021-05-13T13:37:01Z</time>
      </trkpt>
      <trkpt lat="46.95936" lon="-0.90017">
        <ele>129.43</ele>
        <time>2021-05-13T13:37:19Z</time>
      </trkpt>
      <trkpt lat="46.95954" lon="-0.90021">
        <ele>129.43</ele>
        <time>2021-05-13T13:37:36Z</time>
      </trkpt>
      <trkpt lat="46.95954" lon="-0.90017">
        <ele>129.43</ele>
        <time>2021-05-13T13:38:02Z</time>
      </trkpt>
      <trkpt lat="46.95955" lon="-0.90019">
        <ele>129.43</ele>
        <time>2021-05-13T13:38:26Z</time>
      </trkpt>
      <trkpt lat="46.95953" lon="-0.90017">
        <ele>128.95</ele>
        <time>2021-05-13T13:38:52Z</time>
      </trkpt>
      <trkpt lat="46.95955" lon="-0.90014">
        <ele>130.4</ele>
        <time>2021-05-13T13:39:16Z</time>
      </trkpt>
      <trkpt lat="46.95953" lon="-0.90011">
        <ele>128.95</ele>
        <time>2021-05-13T13:39:39Z</time>
      </trkpt>
      <trkpt lat="46.95958" lon="-0.90017">
        <ele>128.95</ele>
        <time>2021-05-13T13:40:01Z</time>
      </trkpt>
      <trkpt lat="46.95969" lon="-0.9002">
        <ele>128.95</ele>
        <time>2021-05-13T13:40:14Z</time>
      </trkpt>
      <trkpt lat="46.9597" lon="-0.9002">
        <ele>128.95</ele>
        <time>2021-05-13T13:40:15Z</time>
      </trkpt>
      <trkpt lat="46.95971" lon="-0.9002">
        <ele>128.95</ele>
        <time>2021-05-13T13:40:16Z</time>
      </trkpt>
      <trkpt lat="46.95987" lon="-0.90027">
        <ele>128.95</ele>
        <time>2021-05-13T13:40:31Z</time>
      </trkpt>
      <trkpt lat="46.96004" lon="-0.90035">
        <ele>130.4</ele>
        <time>2021-05-13T13:40:46Z</time>
      </trkpt>
      <trkpt lat="46.96022" lon="-0.9004">
        <ele>130.4</ele>
        <time>2021-05-13T13:41:03Z</time>
      </trkpt>
      <trkpt lat="46.96037" lon="-0.90045">
        <ele>130.4</ele>
        <time>2021-05-13T13:41:17Z</time>
      </trkpt>
      <trkpt lat="46.96056" lon="-0.90049">
        <ele>130.4</ele>
        <time>2021-05-13T13:41:32Z</time>
      </trkpt>
      <trkpt lat="46.96074" lon="-0.90046">
        <ele>130.4</ele>
        <time>2021-05-13T13:41:47Z</time>
      </trkpt>
      <trkpt lat="46.96093" lon="-0.90043">
        <ele>129.43</ele>
        <time>2021-05-13T13:42:00Z</time>
      </trkpt>
      <trkpt lat="46.96096" lon="-0.90043">
        <ele>128.95</ele>
        <time>2021-05-13T13:42:03Z</time>
      </trkpt>
      <trkpt lat="46.96118" lon="-0.90051">
        <ele>127.51</ele>
        <time>2021-05-13T13:42:19Z</time>
      </trkpt>
      <trkpt lat="46.96123" lon="-0.90054">
        <ele>127.51</ele>
        <time>2021-05-13T13:42:23Z</time>
      </trkpt>
      <trkpt lat="46.96138" lon="-0.90066">
        <ele>126.07</ele>
        <time>2021-05-13T13:42:39Z</time>
      </trkpt>
      <trkpt lat="46.96144" lon="-0.90069">
        <ele>125.11</ele>
        <time>2021-05-13T13:42:44Z</time>
      </trkpt>
      <trkpt lat="46.96166" lon="-0.90081">
        <ele>123.19</ele>
        <time>2021-05-13T13:43:02Z</time>
      </trkpt>
      <trkpt lat="46.96178" lon="-0.90094">
        <ele>122.71</ele>
        <time>2021-05-13T13:43:18Z</time>
      </trkpt>
      <trkpt lat="46.96181" lon="-0.90097">
        <ele>122.71</ele>
        <time>2021-05-13T13:43:21Z</time>
      </trkpt>
      <trkpt lat="46.96203" lon="-0.90103">
        <ele>123.19</ele>
        <time>2021-05-13T13:43:35Z</time>
      </trkpt>
      <trkpt lat="46.96214" lon="-0.90108">
        <ele>123.19</ele>
        <time>2021-05-13T13:43:46Z</time>
      </trkpt>
      <trkpt lat="46.96215" lon="-0.90109">
        <ele>123.19</ele>
        <time>2021-05-13T13:43:47Z</time>
      </trkpt>
      <trkpt lat="46.96216" lon="-0.9011">
        <ele>123.19</ele>
        <time>2021-05-13T13:43:48Z</time>
      </trkpt>
      <trkpt lat="46.96217" lon="-0.90111">
        <ele>123.19</ele>
        <time>2021-05-13T13:43:49Z</time>
      </trkpt>
      <trkpt lat="46.96219" lon="-0.90112">
        <ele>123.19</ele>
        <time>2021-05-13T13:43:50Z</time>
      </trkpt>
      <trkpt lat="46.9622" lon="-0.90113">
        <ele>123.19</ele>
        <time>2021-05-13T13:43:51Z</time>
      </trkpt>
      <trkpt lat="46.96221" lon="-0.90115">
        <ele>123.19</ele>
        <time>2021-05-13T13:43:52Z</time>
      </trkpt>
      <trkpt lat="46.96222" lon="-0.90116">
        <ele>123.19</ele>
        <time>2021-05-13T13:43:53Z</time>
      </trkpt>
      <trkpt lat="46.96227" lon="-0.9012">
        <ele>124.63</ele>
        <time>2021-05-13T13:43:57Z</time>
      </trkpt>
      <trkpt lat="46.9624" lon="-0.90126">
        <ele>125.11</ele>
        <time>2021-05-13T13:44:13Z</time>
      </trkpt>
      <trkpt lat="46.96242" lon="-0.90129">
        <ele>125.11</ele>
        <time>2021-05-13T13:44:28Z</time>
      </trkpt>
      <trkpt lat="46.96229" lon="-0.90115">
        <ele>124.63</ele>
        <time>2021-05-13T13:44:48Z</time>
      </trkpt>
      <trkpt lat="46.96217" lon="-0.90084">
        <ele>122.71</ele>
        <time>2021-05-13T13:45:08Z</time>
      </trkpt>
      <trkpt lat="46.962" lon="-0.90068">
        <ele>121.74</ele>
        <time>2021-05-13T13:45:28Z</time>
      </trkpt>
      <trkpt lat="46.96202" lon="-0.90067">
        <ele>121.26</ele>
        <time>2021-05-13T13:45:30Z</time>
      </trkpt>
      <trkpt lat="46.96214" lon="-0.90061">
        <ele>121.26</ele>
        <time>2021-05-13T13:45:36Z</time>
      </trkpt>
      <trkpt lat="46.96227" lon="-0.90071">
        <ele>119.34</ele>
        <time>2021-05-13T13:45:50Z</time>
      </trkpt>
      <trkpt lat="46.96229" lon="-0.90071">
        <ele>119.34</ele>
        <time>2021-05-13T13:45:51Z</time>
      </trkpt>
      <trkpt lat="46.9624" lon="-0.90077">
        <ele>118.38</ele>
        <time>2021-05-13T13:46:04Z</time>
      </trkpt>
      <trkpt lat="46.96258" lon="-0.90085">
        <ele>117.42</ele>
        <time>2021-05-13T13:46:19Z</time>
      </trkpt>
      <trkpt lat="46.96274" lon="-0.90083">
        <ele>116.46</ele>
        <time>2021-05-13T13:46:34Z</time>
      </trkpt>
      <trkpt lat="46.96289" lon="-0.90092">
        <ele>114.05</ele>
        <time>2021-05-13T13:46:49Z</time>
      </trkpt>
      <trkpt lat="46.96312" lon="-0.90087">
        <ele>111.65</ele>
        <time>2021-05-13T13:47:10Z</time>
      </trkpt>
      <trkpt lat="46.96331" lon="-0.90075">
        <ele>110.21</ele>
        <time>2021-05-13T13:47:26Z</time>
      </trkpt>
      <trkpt lat="46.96353" lon="-0.9007">
        <ele>107.32</ele>
        <time>2021-05-13T13:47:45Z</time>
      </trkpt>
      <trkpt lat="46.96371" lon="-0.9006">
        <ele>106.84</ele>
        <time>2021-05-13T13:48:00Z</time>
      </trkpt>
      <trkpt lat="46.96386" lon="-0.90047">
        <ele>106.36</ele>
        <time>2021-05-13T13:48:17Z</time>
      </trkpt>
      <trkpt lat="46.96397" lon="-0.90036">
        <ele>106.36</ele>
        <time>2021-05-13T13:48:30Z</time>
      </trkpt>
      <trkpt lat="46.96395" lon="-0.90019">
        <ele>106.36</ele>
        <time>2021-05-13T13:48:39Z</time>
      </trkpt>
      <trkpt lat="46.96391" lon="-0.9">
        <ele>106.36</ele>
        <time>2021-05-13T13:48:48Z</time>
      </trkpt>
      <trkpt lat="46.9639" lon="-0.89994">
        <ele>106.36</ele>
        <time>2021-05-13T13:48:54Z</time>
      </trkpt>
      <trkpt lat="46.96388" lon="-0.8999">
        <ele>106.36</ele>
        <time>2021-05-13T13:48:57Z</time>
      </trkpt>
      <trkpt lat="46.96388" lon="-0.89988">
        <ele>106.36</ele>
        <time>2021-05-13T13:48:58Z</time>
      </trkpt>
      <trkpt lat="46.96387" lon="-0.89987">
        <ele>106.36</ele>
        <time>2021-05-13T13:48:59Z</time>
      </trkpt>
      <trkpt lat="46.96378" lon="-0.8996">
        <ele>106.36</ele>
        <time>2021-05-13T13:49:15Z</time>
      </trkpt>
      <trkpt lat="46.96373" lon="-0.8994">
        <ele>106.36</ele>
        <time>2021-05-13T13:49:31Z</time>
      </trkpt>
      <trkpt lat="46.96369" lon="-0.89909">
        <ele>106.36</ele>
        <time>2021-05-13T13:49:47Z</time>
      </trkpt>
      <trkpt lat="46.9636" lon="-0.89875">
        <ele>107.32</ele>
        <time>2021-05-13T13:50:04Z</time>
      </trkpt>
      <trkpt lat="46.96354" lon="-0.89852">
        <ele>107.81</ele>
        <time>2021-05-13T13:50:21Z</time>
      </trkpt>
      <trkpt lat="46.96343" lon="-0.8982">
        <ele>107.81</ele>
        <time>2021-05-13T13:50:38Z</time>
      </trkpt>
      <trkpt lat="46.96332" lon="-0.89811">
        <ele>108.29</ele>
        <time>2021-05-13T13:50:49Z</time>
      </trkpt>
      <trkpt lat="46.96328" lon="-0.89807">
        <ele>109.25</ele>
        <time>2021-05-13T13:51:04Z</time>
      </trkpt>
      <trkpt lat="46.96323" lon="-0.89805">
        <ele>109.25</ele>
        <time>2021-05-13T13:51:23Z</time>
      </trkpt>
      <trkpt lat="46.96318" lon="-0.89811">
        <ele>108.77</ele>
        <time>2021-05-13T13:51:50Z</time>
      </trkpt>
      <trkpt lat="46.96318" lon="-0.89811">
        <ele>107.32</ele>
        <time>2021-05-13T13:51:58Z</time>
      </trkpt>
      <trkpt lat="46.96322" lon="-0.89801">
        <ele>108.77</ele>
        <time>2021-05-13T13:52:02Z</time>
      </trkpt>
      <trkpt lat="46.96323" lon="-0.89796">
        <ele>108.77</ele>
        <time>2021-05-13T13:52:04Z</time>
      </trkpt>
      <trkpt lat="46.9632" lon="-0.89797">
        <ele>108.77</ele>
        <time>2021-05-13T13:52:20Z</time>
      </trkpt>
      <trkpt lat="46.96318" lon="-0.898">
        <ele>108.77</ele>
        <time>2021-05-13T13:52:46Z</time>
      </trkpt>
      <trkpt lat="46.96315" lon="-0.89785">
        <ele>108.77</ele>
        <time>2021-05-13T13:53:01Z</time>
      </trkpt>
      <trkpt lat="46.96317" lon="-0.89775">
        <ele>109.73</ele>
        <time>2021-05-13T13:53:10Z</time>
      </trkpt>
      <trkpt lat="46.96328" lon="-0.89746">
        <ele>111.17</ele>
        <time>2021-05-13T13:53:26Z</time>
      </trkpt>
      <trkpt lat="46.96335" lon="-0.89731">
        <ele>109.73</ele>
        <time>2021-05-13T13:53:41Z</time>
      </trkpt>
      <trkpt lat="46.96344" lon="-0.89718">
        <ele>107.81</ele>
        <time>2021-05-13T13:53:55Z</time>
      </trkpt>
      <trkpt lat="46.96348" lon="-0.89692">
        <ele>107.81</ele>
        <time>2021-05-13T13:54:12Z</time>
      </trkpt>
      <trkpt lat="46.96348" lon="-0.89679">
        <ele>109.25</ele>
        <time>2021-05-13T13:54:31Z</time>
      </trkpt>
      <trkpt lat="46.96345" lon="-0.89676">
        <ele>109.25</ele>
        <time>2021-05-13T13:54:37Z</time>
      </trkpt>
      <trkpt lat="46.96333" lon="-0.89663">
        <ele>110.69</ele>
        <time>2021-05-13T13:54:52Z</time>
      </trkpt>
      <trkpt lat="46.96322" lon="-0.89652">
        <ele>112.61</ele>
        <time>2021-05-13T13:55:06Z</time>
      </trkpt>
      <trkpt lat="46.96314" lon="-0.89648">
        <ele>111.17</ele>
        <time>2021-05-13T13:55:16Z</time>
      </trkpt>
      <trkpt lat="46.96296" lon="-0.89634">
        <ele>110.21</ele>
        <time>2021-05-13T13:55:33Z</time>
      </trkpt>
      <trkpt lat="46.96295" lon="-0.89629">
        <ele>110.21</ele>
        <time>2021-05-13T13:55:53Z</time>
      </trkpt>
      <trkpt lat="46.96284" lon="-0.89618">
        <ele>109.73</ele>
        <time>2021-05-13T13:56:05Z</time>
      </trkpt>
      <trkpt lat="46.96283" lon="-0.89616">
        <ele>109.73</ele>
        <time>2021-05-13T13:56:07Z</time>
      </trkpt>
      <trkpt lat="46.96283" lon="-0.89615">
        <ele>109.73</ele>
        <time>2021-05-13T13:56:08Z</time>
      </trkpt>
      <trkpt lat="46.96269" lon="-0.89601">
        <ele>109.25</ele>
        <time>2021-05-13T13:56:22Z</time>
      </trkpt>
      <trkpt lat="46.96247" lon="-0.89583">
        <ele>109.25</ele>
        <time>2021-05-13T13:56:42Z</time>
      </trkpt>
      <trkpt lat="46.96229" lon="-0.89567">
        <ele>109.25</ele>
        <time>2021-05-13T13:56:57Z</time>
      </trkpt>
      <trkpt lat="46.96217" lon="-0.89556">
        <ele>109.25</ele>
        <time>2021-05-13T13:57:14Z</time>
      </trkpt>
      <trkpt lat="46.96217" lon="-0.89547">
        <ele>109.25</ele>
        <time>2021-05-13T13:57:23Z</time>
      </trkpt>
      <trkpt lat="46.96221" lon="-0.89542">
        <ele>109.25</ele>
        <time>2021-05-13T13:57:27Z</time>
      </trkpt>
      <trkpt lat="46.96233" lon="-0.89538">
        <ele>109.25</ele>
        <time>2021-05-13T13:57:42Z</time>
      </trkpt>
      <trkpt lat="46.96242" lon="-0.89533">
        <ele>109.25</ele>
        <time>2021-05-13T13:57:59Z</time>
      </trkpt>
      <trkpt lat="46.96248" lon="-0.8953">
        <ele>109.25</ele>
        <time>2021-05-13T13:58:06Z</time>
      </trkpt>
      <trkpt lat="46.96251" lon="-0.89526">
        <ele>109.25</ele>
        <time>2021-05-13T13:58:10Z</time>
      </trkpt>
      <trkpt lat="46.96267" lon="-0.89509">
        <ele>108.77</ele>
        <time>2021-05-13T13:58:25Z</time>
      </trkpt>
      <trkpt lat="46.96281" lon="-0.89495">
        <ele>109.25</ele>
        <time>2021-05-13T13:58:41Z</time>
      </trkpt>
      <trkpt lat="46.96295" lon="-0.89485">
        <ele>109.25</ele>
        <time>2021-05-13T13:58:55Z</time>
      </trkpt>
      <trkpt lat="46.96313" lon="-0.89474">
        <ele>109.25</ele>
        <time>2021-05-13T13:59:12Z</time>
      </trkpt>
      <trkpt lat="46.9633" lon="-0.89458">
        <ele>109.25</ele>
        <time>2021-05-13T13:59:29Z</time>
      </trkpt>
      <trkpt lat="46.96334" lon="-0.89434">
        <ele>110.69</ele>
        <time>2021-05-13T13:59:42Z</time>
      </trkpt>
      <trkpt lat="46.96335" lon="-0.89426">
        <ele>110.69</ele>
        <time>2021-05-13T13:59:49Z</time>
      </trkpt>
      <trkpt lat="46.96333" lon="-0.89392">
        <ele>110.69</ele>
        <time>2021-05-13T14:00:06Z</time>
      </trkpt>
      <trkpt lat="46.9633" lon="-0.89386">
        <ele>109.25</ele>
        <time>2021-05-13T14:00:10Z</time>
      </trkpt>
      <trkpt lat="46.9633" lon="-0.89363">
        <ele>109.25</ele>
        <time>2021-05-13T14:00:26Z</time>
      </trkpt>
      <trkpt lat="46.96326" lon="-0.89335">
        <ele>110.21</ele>
        <time>2021-05-13T14:00:41Z</time>
      </trkpt>
      <trkpt lat="46.96326" lon="-0.89308">
        <ele>110.21</ele>
        <time>2021-05-13T14:00:56Z</time>
      </trkpt>
      <trkpt lat="46.96325" lon="-0.89283">
        <ele>110.21</ele>
        <time>2021-05-13T14:01:11Z</time>
      </trkpt>
      <trkpt lat="46.96326" lon="-0.89263">
        <ele>110.21</ele>
        <time>2021-05-13T14:01:25Z</time>
      </trkpt>
      <trkpt lat="46.96325" lon="-0.89253">
        <ele>110.21</ele>
        <time>2021-05-13T14:01:43Z</time>
      </trkpt>
      <trkpt lat="46.96323" lon="-0.8925">
        <ele>110.21</ele>
        <time>2021-05-13T14:01:56Z</time>
      </trkpt>
      <trkpt lat="46.96325" lon="-0.89226">
        <ele>110.21</ele>
        <time>2021-05-13T14:02:12Z</time>
      </trkpt>
      <trkpt lat="46.96328" lon="-0.8922">
        <ele>110.21</ele>
        <time>2021-05-13T14:02:17Z</time>
      </trkpt>
      <trkpt lat="46.96332" lon="-0.89218">
        <ele>110.21</ele>
        <time>2021-05-13T14:02:21Z</time>
      </trkpt>
      <trkpt lat="46.96347" lon="-0.89219">
        <ele>111.17</ele>
        <time>2021-05-13T14:02:36Z</time>
      </trkpt>
      <trkpt lat="46.96363" lon="-0.89219">
        <ele>112.61</ele>
        <time>2021-05-13T14:02:49Z</time>
      </trkpt>
      <trkpt lat="46.9637" lon="-0.89221">
        <ele>113.09</ele>
        <time>2021-05-13T14:02:56Z</time>
      </trkpt>
      <trkpt lat="46.96379" lon="-0.89231">
        <ele>113.09</ele>
        <time>2021-05-13T14:03:10Z</time>
      </trkpt>
      <trkpt lat="46.96392" lon="-0.89255">
        <ele>114.05</ele>
        <time>2021-05-13T14:03:28Z</time>
      </trkpt>
      <trkpt lat="46.96406" lon="-0.89277">
        <ele>114.53</ele>
        <time>2021-05-13T14:03:44Z</time>
      </trkpt>
      <trkpt lat="46.96418" lon="-0.89297">
        <ele>115.5</ele>
        <time>2021-05-13T14:04:00Z</time>
      </trkpt>
      <trkpt lat="46.96432" lon="-0.89319">
        <ele>117.42</ele>
        <time>2021-05-13T14:04:19Z</time>
      </trkpt>
    </trkseg>
  </trk>
</gpx>